<?xml version="1.0" encoding="UTF-8" standalone="no" ?>
<gpx xmlns="http://www.topografix.com/GPX/1/1" xmlns:xsi="http://www.w3.org/2001/XMLSchema-instance" xsi:schemaLocation="http://www.topografix.com/GPX/1/1 http://www.topografix.com/GPX/1/1/gpx.xsd" version="1.1" creator="VisuGPX - https://www.visugpx.com">
  <metadata>
    <name>CHEZINE CENS</name>
    <desc><![CDATA[CHEZINE CENS]]></desc>
  </metadata>
  <trk>
    <name><![CDATA[2014-08-03-01 à 8]]></name>
    <trkseg>
      <trkpt lat="47.23083" lon="-1.60641">
        <ele>27</ele>
        <time>2014-08-03T07:31:35Z</time>
      </trkpt>
      <trkpt lat="47.23083" lon="-1.60641">
        <ele>27</ele>
        <time>2014-08-03T07:31:36Z</time>
      </trkpt>
      <trkpt lat="47.23075" lon="-1.60665">
        <ele>27</ele>
        <time>2014-08-03T07:32:29Z</time>
      </trkpt>
      <trkpt lat="47.2307" lon="-1.60681">
        <ele>28.7</ele>
        <time>2014-08-03T07:32:32Z</time>
      </trkpt>
      <trkpt lat="47.2307" lon="-1.60695">
        <ele>30.4</ele>
        <time>2014-08-03T07:32:36Z</time>
      </trkpt>
      <trkpt lat="47.23072" lon="-1.60708">
        <ele>32</ele>
        <time>2014-08-03T07:32:40Z</time>
      </trkpt>
      <trkpt lat="47.23075" lon="-1.60724">
        <ele>33.9</ele>
        <time>2014-08-03T07:32:44Z</time>
      </trkpt>
      <trkpt lat="47.23078" lon="-1.60741">
        <ele>35.9</ele>
        <time>2014-08-03T07:32:48Z</time>
      </trkpt>
      <trkpt lat="47.23086" lon="-1.60749">
        <ele>36.8</ele>
        <time>2014-08-03T07:32:52Z</time>
      </trkpt>
      <trkpt lat="47.23097" lon="-1.60739">
        <ele>35.7</ele>
        <time>2014-08-03T07:32:55Z</time>
      </trkpt>
      <trkpt lat="47.23107" lon="-1.60732">
        <ele>35</ele>
        <time>2014-08-03T07:32:57Z</time>
      </trkpt>
      <trkpt lat="47.23119" lon="-1.60728">
        <ele>34.3</ele>
        <time>2014-08-03T07:33:00Z</time>
      </trkpt>
      <trkpt lat="47.23129" lon="-1.60716">
        <ele>32.9</ele>
        <time>2014-08-03T07:33:03Z</time>
      </trkpt>
      <trkpt lat="47.2314" lon="-1.60706">
        <ele>31.8</ele>
        <time>2014-08-03T07:33:06Z</time>
      </trkpt>
      <trkpt lat="47.23151" lon="-1.60708">
        <ele>32</ele>
        <time>2014-08-03T07:33:09Z</time>
      </trkpt>
      <trkpt lat="47.2316" lon="-1.60722">
        <ele>33.7</ele>
        <time>2014-08-03T07:33:12Z</time>
      </trkpt>
      <trkpt lat="47.23166" lon="-1.60735">
        <ele>35.3</ele>
        <time>2014-08-03T07:33:14Z</time>
      </trkpt>
      <trkpt lat="47.23172" lon="-1.60752">
        <ele>37</ele>
        <time>2014-08-03T07:33:16Z</time>
      </trkpt>
      <trkpt lat="47.23181" lon="-1.60762">
        <ele>37</ele>
        <time>2014-08-03T07:33:19Z</time>
      </trkpt>
      <trkpt lat="47.2319" lon="-1.60766">
        <ele>37</ele>
        <time>2014-08-03T07:33:21Z</time>
      </trkpt>
      <trkpt lat="47.23199" lon="-1.60774">
        <ele>37</ele>
        <time>2014-08-03T07:33:23Z</time>
      </trkpt>
      <trkpt lat="47.23209" lon="-1.60782">
        <ele>37</ele>
        <time>2014-08-03T07:33:25Z</time>
      </trkpt>
      <trkpt lat="47.23217" lon="-1.60788">
        <ele>37</ele>
        <time>2014-08-03T07:33:27Z</time>
      </trkpt>
      <trkpt lat="47.23227" lon="-1.60801">
        <ele>37</ele>
        <time>2014-08-03T07:33:30Z</time>
      </trkpt>
      <trkpt lat="47.23236" lon="-1.60809">
        <ele>37</ele>
        <time>2014-08-03T07:33:33Z</time>
      </trkpt>
      <trkpt lat="47.23243" lon="-1.60818">
        <ele>37</ele>
        <time>2014-08-03T07:33:36Z</time>
      </trkpt>
      <trkpt lat="47.23255" lon="-1.60816">
        <ele>37</ele>
        <time>2014-08-03T07:33:40Z</time>
      </trkpt>
      <trkpt lat="47.23267" lon="-1.60806">
        <ele>37</ele>
        <time>2014-08-03T07:33:42Z</time>
      </trkpt>
      <trkpt lat="47.23279" lon="-1.60795">
        <ele>37</ele>
        <time>2014-08-03T07:33:44Z</time>
      </trkpt>
      <trkpt lat="47.2329" lon="-1.60782">
        <ele>37</ele>
        <time>2014-08-03T07:33:46Z</time>
      </trkpt>
      <trkpt lat="47.233" lon="-1.60772">
        <ele>37</ele>
        <time>2014-08-03T07:33:48Z</time>
      </trkpt>
      <trkpt lat="47.2331" lon="-1.60764">
        <ele>37</ele>
        <time>2014-08-03T07:33:50Z</time>
      </trkpt>
      <trkpt lat="47.23321" lon="-1.60758">
        <ele>37</ele>
        <time>2014-08-03T07:33:52Z</time>
      </trkpt>
      <trkpt lat="47.23334" lon="-1.60751">
        <ele>37</ele>
        <time>2014-08-03T07:33:54Z</time>
      </trkpt>
      <trkpt lat="47.23346" lon="-1.60743">
        <ele>36.6</ele>
        <time>2014-08-03T07:33:56Z</time>
      </trkpt>
      <trkpt lat="47.23357" lon="-1.60732">
        <ele>36.3</ele>
        <time>2014-08-03T07:33:58Z</time>
      </trkpt>
      <trkpt lat="47.23366" lon="-1.60724">
        <ele>36.5</ele>
        <time>2014-08-03T07:34:00Z</time>
      </trkpt>
      <trkpt lat="47.23377" lon="-1.60716">
        <ele>37.3</ele>
        <time>2014-08-03T07:34:03Z</time>
      </trkpt>
      <trkpt lat="47.23393" lon="-1.60715">
        <ele>38.9</ele>
        <time>2014-08-03T07:34:09Z</time>
      </trkpt>
      <trkpt lat="47.23402" lon="-1.60711">
        <ele>40.1</ele>
        <time>2014-08-03T07:34:20Z</time>
      </trkpt>
      <trkpt lat="47.23411" lon="-1.60696">
        <ele>42.2</ele>
        <time>2014-08-03T07:34:23Z</time>
      </trkpt>
      <trkpt lat="47.2342" lon="-1.60685">
        <ele>44.2</ele>
        <time>2014-08-03T07:34:25Z</time>
      </trkpt>
      <trkpt lat="47.23428" lon="-1.60674">
        <ele>45.2</ele>
        <time>2014-08-03T07:34:27Z</time>
      </trkpt>
      <trkpt lat="47.23437" lon="-1.60665">
        <ele>46</ele>
        <time>2014-08-03T07:34:29Z</time>
      </trkpt>
      <trkpt lat="47.23445" lon="-1.60654">
        <ele>46</ele>
        <time>2014-08-03T07:34:31Z</time>
      </trkpt>
      <trkpt lat="47.23454" lon="-1.60642">
        <ele>46</ele>
        <time>2014-08-03T07:34:33Z</time>
      </trkpt>
      <trkpt lat="47.23463" lon="-1.60628">
        <ele>46</ele>
        <time>2014-08-03T07:34:35Z</time>
      </trkpt>
      <trkpt lat="47.23477" lon="-1.60619">
        <ele>46</ele>
        <time>2014-08-03T07:34:37Z</time>
      </trkpt>
      <trkpt lat="47.23486" lon="-1.60613">
        <ele>46</ele>
        <time>2014-08-03T07:34:39Z</time>
      </trkpt>
      <trkpt lat="47.23494" lon="-1.60604">
        <ele>46</ele>
        <time>2014-08-03T07:34:43Z</time>
      </trkpt>
      <trkpt lat="47.23504" lon="-1.60599">
        <ele>46</ele>
        <time>2014-08-03T07:34:47Z</time>
      </trkpt>
      <trkpt lat="47.23508" lon="-1.6061">
        <ele>46</ele>
        <time>2014-08-03T07:34:51Z</time>
      </trkpt>
      <trkpt lat="47.2352" lon="-1.60609">
        <ele>46</ele>
        <time>2014-08-03T07:34:55Z</time>
      </trkpt>
      <trkpt lat="47.23527" lon="-1.60598">
        <ele>46</ele>
        <time>2014-08-03T07:34:57Z</time>
      </trkpt>
      <trkpt lat="47.23535" lon="-1.60588">
        <ele>46</ele>
        <time>2014-08-03T07:34:59Z</time>
      </trkpt>
      <trkpt lat="47.23543" lon="-1.6058">
        <ele>46</ele>
        <time>2014-08-03T07:35:01Z</time>
      </trkpt>
      <trkpt lat="47.23553" lon="-1.6058">
        <ele>46</ele>
        <time>2014-08-03T07:35:03Z</time>
      </trkpt>
      <trkpt lat="47.23566" lon="-1.60584">
        <ele>46</ele>
        <time>2014-08-03T07:35:06Z</time>
      </trkpt>
      <trkpt lat="47.23577" lon="-1.6059">
        <ele>46</ele>
        <time>2014-08-03T07:35:08Z</time>
      </trkpt>
      <trkpt lat="47.23586" lon="-1.60601">
        <ele>46</ele>
        <time>2014-08-03T07:35:10Z</time>
      </trkpt>
      <trkpt lat="47.23594" lon="-1.60616">
        <ele>46</ele>
        <time>2014-08-03T07:35:12Z</time>
      </trkpt>
      <trkpt lat="47.236" lon="-1.60627">
        <ele>46</ele>
        <time>2014-08-03T07:35:14Z</time>
      </trkpt>
      <trkpt lat="47.23608" lon="-1.60637">
        <ele>46</ele>
        <time>2014-08-03T07:35:16Z</time>
      </trkpt>
      <trkpt lat="47.23617" lon="-1.60645">
        <ele>46</ele>
        <time>2014-08-03T07:35:18Z</time>
      </trkpt>
      <trkpt lat="47.23627" lon="-1.60653">
        <ele>46</ele>
        <time>2014-08-03T07:35:20Z</time>
      </trkpt>
      <trkpt lat="47.23636" lon="-1.60663">
        <ele>46</ele>
        <time>2014-08-03T07:35:22Z</time>
      </trkpt>
      <trkpt lat="47.23646" lon="-1.60673">
        <ele>45.4</ele>
        <time>2014-08-03T07:35:24Z</time>
      </trkpt>
      <trkpt lat="47.23657" lon="-1.60683">
        <ele>44.4</ele>
        <time>2014-08-03T07:35:26Z</time>
      </trkpt>
      <trkpt lat="47.23667" lon="-1.60695">
        <ele>43.2</ele>
        <time>2014-08-03T07:35:28Z</time>
      </trkpt>
      <trkpt lat="47.2368" lon="-1.6071">
        <ele>41.7</ele>
        <time>2014-08-03T07:35:30Z</time>
      </trkpt>
      <trkpt lat="47.23689" lon="-1.60728">
        <ele>40</ele>
        <time>2014-08-03T07:35:32Z</time>
      </trkpt>
      <trkpt lat="47.23696" lon="-1.60748">
        <ele>38.1</ele>
        <time>2014-08-03T07:35:34Z</time>
      </trkpt>
      <trkpt lat="47.237" lon="-1.60767">
        <ele>38</ele>
        <time>2014-08-03T07:35:36Z</time>
      </trkpt>
      <trkpt lat="47.23698" lon="-1.60786">
        <ele>38</ele>
        <time>2014-08-03T07:35:38Z</time>
      </trkpt>
      <trkpt lat="47.23691" lon="-1.60801">
        <ele>38</ele>
        <time>2014-08-03T07:35:40Z</time>
      </trkpt>
      <trkpt lat="47.23685" lon="-1.60813">
        <ele>38</ele>
        <time>2014-08-03T07:35:42Z</time>
      </trkpt>
      <trkpt lat="47.23678" lon="-1.6083">
        <ele>38</ele>
        <time>2014-08-03T07:35:44Z</time>
      </trkpt>
      <trkpt lat="47.23673" lon="-1.60847">
        <ele>38</ele>
        <time>2014-08-03T07:35:46Z</time>
      </trkpt>
      <trkpt lat="47.2367" lon="-1.6086">
        <ele>38</ele>
        <time>2014-08-03T07:35:48Z</time>
      </trkpt>
      <trkpt lat="47.23663" lon="-1.60877">
        <ele>38</ele>
        <time>2014-08-03T07:35:51Z</time>
      </trkpt>
      <trkpt lat="47.23657" lon="-1.60887">
        <ele>38</ele>
        <time>2014-08-03T07:35:53Z</time>
      </trkpt>
      <trkpt lat="47.23651" lon="-1.60898">
        <ele>38</ele>
        <time>2014-08-03T07:35:55Z</time>
      </trkpt>
      <trkpt lat="47.23645" lon="-1.60909">
        <ele>38</ele>
        <time>2014-08-03T07:35:57Z</time>
      </trkpt>
      <trkpt lat="47.23648" lon="-1.60923">
        <ele>38</ele>
        <time>2014-08-03T07:36:01Z</time>
      </trkpt>
      <trkpt lat="47.23655" lon="-1.60942">
        <ele>38</ele>
        <time>2014-08-03T07:36:04Z</time>
      </trkpt>
      <trkpt lat="47.23658" lon="-1.60955">
        <ele>38</ele>
        <time>2014-08-03T07:36:06Z</time>
      </trkpt>
      <trkpt lat="47.23657" lon="-1.6097">
        <ele>38</ele>
        <time>2014-08-03T07:36:09Z</time>
      </trkpt>
      <trkpt lat="47.2366" lon="-1.60985">
        <ele>38</ele>
        <time>2014-08-03T07:36:12Z</time>
      </trkpt>
      <trkpt lat="47.23663" lon="-1.60998">
        <ele>38</ele>
        <time>2014-08-03T07:36:16Z</time>
      </trkpt>
      <trkpt lat="47.23664" lon="-1.61012">
        <ele>38</ele>
        <time>2014-08-03T07:36:21Z</time>
      </trkpt>
      <trkpt lat="47.23661" lon="-1.61027">
        <ele>38</ele>
        <time>2014-08-03T07:36:25Z</time>
      </trkpt>
      <trkpt lat="47.23658" lon="-1.61046">
        <ele>38</ele>
        <time>2014-08-03T07:36:29Z</time>
      </trkpt>
      <trkpt lat="47.23655" lon="-1.61058">
        <ele>38</ele>
        <time>2014-08-03T07:36:31Z</time>
      </trkpt>
      <trkpt lat="47.23652" lon="-1.61073">
        <ele>38</ele>
        <time>2014-08-03T07:36:33Z</time>
      </trkpt>
      <trkpt lat="47.23647" lon="-1.61088">
        <ele>38</ele>
        <time>2014-08-03T07:36:36Z</time>
      </trkpt>
      <trkpt lat="47.23641" lon="-1.611">
        <ele>38</ele>
        <time>2014-08-03T07:36:39Z</time>
      </trkpt>
      <trkpt lat="47.23636" lon="-1.61117">
        <ele>38</ele>
        <time>2014-08-03T07:36:42Z</time>
      </trkpt>
      <trkpt lat="47.23638" lon="-1.61133">
        <ele>38</ele>
        <time>2014-08-03T07:36:44Z</time>
      </trkpt>
      <trkpt lat="47.23644" lon="-1.61146">
        <ele>38</ele>
        <time>2014-08-03T07:36:46Z</time>
      </trkpt>
      <trkpt lat="47.2365" lon="-1.61157">
        <ele>38</ele>
        <time>2014-08-03T07:36:48Z</time>
      </trkpt>
      <trkpt lat="47.23658" lon="-1.61171">
        <ele>38</ele>
        <time>2014-08-03T07:36:51Z</time>
      </trkpt>
      <trkpt lat="47.23665" lon="-1.61186">
        <ele>38</ele>
        <time>2014-08-03T07:36:54Z</time>
      </trkpt>
      <trkpt lat="47.23672" lon="-1.61196">
        <ele>38</ele>
        <time>2014-08-03T07:36:56Z</time>
      </trkpt>
      <trkpt lat="47.23679" lon="-1.61206">
        <ele>38</ele>
        <time>2014-08-03T07:36:58Z</time>
      </trkpt>
      <trkpt lat="47.23684" lon="-1.6122">
        <ele>38</ele>
        <time>2014-08-03T07:37:00Z</time>
      </trkpt>
      <trkpt lat="47.23686" lon="-1.61235">
        <ele>38</ele>
        <time>2014-08-03T07:37:02Z</time>
      </trkpt>
      <trkpt lat="47.23689" lon="-1.61253">
        <ele>38</ele>
        <time>2014-08-03T07:37:04Z</time>
      </trkpt>
      <trkpt lat="47.23693" lon="-1.61269">
        <ele>38</ele>
        <time>2014-08-03T07:37:06Z</time>
      </trkpt>
      <trkpt lat="47.23697" lon="-1.61283">
        <ele>38</ele>
        <time>2014-08-03T07:37:08Z</time>
      </trkpt>
      <trkpt lat="47.23706" lon="-1.61296">
        <ele>38</ele>
        <time>2014-08-03T07:37:11Z</time>
      </trkpt>
      <trkpt lat="47.23714" lon="-1.61304">
        <ele>38</ele>
        <time>2014-08-03T07:37:13Z</time>
      </trkpt>
      <trkpt lat="47.23726" lon="-1.61305">
        <ele>38</ele>
        <time>2014-08-03T07:37:16Z</time>
      </trkpt>
      <trkpt lat="47.23736" lon="-1.61302">
        <ele>38</ele>
        <time>2014-08-03T07:37:18Z</time>
      </trkpt>
      <trkpt lat="47.23747" lon="-1.61308">
        <ele>38</ele>
        <time>2014-08-03T07:37:21Z</time>
      </trkpt>
      <trkpt lat="47.23756" lon="-1.61314">
        <ele>38</ele>
        <time>2014-08-03T07:37:24Z</time>
      </trkpt>
      <trkpt lat="47.23763" lon="-1.61324">
        <ele>38</ele>
        <time>2014-08-03T07:37:27Z</time>
      </trkpt>
      <trkpt lat="47.2377" lon="-1.61337">
        <ele>38</ele>
        <time>2014-08-03T07:37:30Z</time>
      </trkpt>
      <trkpt lat="47.23778" lon="-1.61349">
        <ele>38.2</ele>
        <time>2014-08-03T07:37:33Z</time>
      </trkpt>
      <trkpt lat="47.23783" lon="-1.61363">
        <ele>38.4</ele>
        <time>2014-08-03T07:37:37Z</time>
      </trkpt>
      <trkpt lat="47.23783" lon="-1.6138">
        <ele>38.6</ele>
        <time>2014-08-03T07:37:40Z</time>
      </trkpt>
      <trkpt lat="47.23781" lon="-1.61397">
        <ele>38.8</ele>
        <time>2014-08-03T07:37:42Z</time>
      </trkpt>
      <trkpt lat="47.23777" lon="-1.61415">
        <ele>39</ele>
        <time>2014-08-03T07:37:44Z</time>
      </trkpt>
      <trkpt lat="47.23777" lon="-1.61433">
        <ele>39</ele>
        <time>2014-08-03T07:37:47Z</time>
      </trkpt>
      <trkpt lat="47.23776" lon="-1.61448">
        <ele>39</ele>
        <time>2014-08-03T07:37:50Z</time>
      </trkpt>
      <trkpt lat="47.23774" lon="-1.61466">
        <ele>39</ele>
        <time>2014-08-03T07:37:53Z</time>
      </trkpt>
      <trkpt lat="47.23769" lon="-1.61479">
        <ele>39</ele>
        <time>2014-08-03T07:37:55Z</time>
      </trkpt>
      <trkpt lat="47.23764" lon="-1.61493">
        <ele>39</ele>
        <time>2014-08-03T07:37:57Z</time>
      </trkpt>
      <trkpt lat="47.2376" lon="-1.61509">
        <ele>39</ele>
        <time>2014-08-03T07:37:59Z</time>
      </trkpt>
      <trkpt lat="47.23755" lon="-1.61522">
        <ele>39</ele>
        <time>2014-08-03T07:38:01Z</time>
      </trkpt>
      <trkpt lat="47.23753" lon="-1.61536">
        <ele>39</ele>
        <time>2014-08-03T07:38:18Z</time>
      </trkpt>
      <trkpt lat="47.23745" lon="-1.61529">
        <ele>39</ele>
        <time>2014-08-03T07:38:58Z</time>
      </trkpt>
      <trkpt lat="47.23737" lon="-1.61522">
        <ele>39</ele>
        <time>2014-08-03T07:39:03Z</time>
      </trkpt>
      <trkpt lat="47.2373" lon="-1.61511">
        <ele>39</ele>
        <time>2014-08-03T07:39:09Z</time>
      </trkpt>
      <trkpt lat="47.23728" lon="-1.61495">
        <ele>39</ele>
        <time>2014-08-03T07:39:12Z</time>
      </trkpt>
      <trkpt lat="47.23726" lon="-1.61479">
        <ele>39</ele>
        <time>2014-08-03T07:39:16Z</time>
      </trkpt>
      <trkpt lat="47.23727" lon="-1.61462">
        <ele>39</ele>
        <time>2014-08-03T07:39:20Z</time>
      </trkpt>
      <trkpt lat="47.23732" lon="-1.61447">
        <ele>39</ele>
        <time>2014-08-03T07:39:24Z</time>
      </trkpt>
      <trkpt lat="47.23736" lon="-1.61432">
        <ele>39</ele>
        <time>2014-08-03T07:39:28Z</time>
      </trkpt>
      <trkpt lat="47.23737" lon="-1.61417">
        <ele>39</ele>
        <time>2014-08-03T07:39:32Z</time>
      </trkpt>
      <trkpt lat="47.23738" lon="-1.61398">
        <ele>38.8</ele>
        <time>2014-08-03T07:39:36Z</time>
      </trkpt>
      <trkpt lat="47.23739" lon="-1.61385">
        <ele>38.6</ele>
        <time>2014-08-03T07:39:39Z</time>
      </trkpt>
      <trkpt lat="47.23738" lon="-1.61371">
        <ele>38.5</ele>
        <time>2014-08-03T07:39:43Z</time>
      </trkpt>
      <trkpt lat="47.2373" lon="-1.6136">
        <ele>38.3</ele>
        <time>2014-08-03T07:39:47Z</time>
      </trkpt>
      <trkpt lat="47.2372" lon="-1.61348">
        <ele>38.2</ele>
        <time>2014-08-03T07:39:50Z</time>
      </trkpt>
      <trkpt lat="47.23711" lon="-1.61338">
        <ele>38.1</ele>
        <time>2014-08-03T07:39:52Z</time>
      </trkpt>
      <trkpt lat="47.23702" lon="-1.6133">
        <ele>38</ele>
        <time>2014-08-03T07:39:54Z</time>
      </trkpt>
      <trkpt lat="47.23694" lon="-1.61322">
        <ele>38</ele>
        <time>2014-08-03T07:39:56Z</time>
      </trkpt>
      <trkpt lat="47.23684" lon="-1.61309">
        <ele>38</ele>
        <time>2014-08-03T07:39:59Z</time>
      </trkpt>
      <trkpt lat="47.23676" lon="-1.61296">
        <ele>38</ele>
        <time>2014-08-03T07:40:02Z</time>
      </trkpt>
      <trkpt lat="47.23672" lon="-1.61281">
        <ele>38</ele>
        <time>2014-08-03T07:40:05Z</time>
      </trkpt>
      <trkpt lat="47.23671" lon="-1.61267">
        <ele>38</ele>
        <time>2014-08-03T07:40:10Z</time>
      </trkpt>
      <trkpt lat="47.23668" lon="-1.61252">
        <ele>38</ele>
        <time>2014-08-03T07:40:13Z</time>
      </trkpt>
      <trkpt lat="47.23662" lon="-1.61233">
        <ele>38</ele>
        <time>2014-08-03T07:40:16Z</time>
      </trkpt>
      <trkpt lat="47.23656" lon="-1.61221">
        <ele>38</ele>
        <time>2014-08-03T07:40:18Z</time>
      </trkpt>
      <trkpt lat="47.23651" lon="-1.61208">
        <ele>38</ele>
        <time>2014-08-03T07:40:20Z</time>
      </trkpt>
      <trkpt lat="47.23643" lon="-1.61192">
        <ele>38</ele>
        <time>2014-08-03T07:40:23Z</time>
      </trkpt>
      <trkpt lat="47.23636" lon="-1.61177">
        <ele>38</ele>
        <time>2014-08-03T07:40:26Z</time>
      </trkpt>
      <trkpt lat="47.2363" lon="-1.61162">
        <ele>38</ele>
        <time>2014-08-03T07:40:29Z</time>
      </trkpt>
      <trkpt lat="47.23625" lon="-1.61148">
        <ele>38</ele>
        <time>2014-08-03T07:40:32Z</time>
      </trkpt>
      <trkpt lat="47.23621" lon="-1.61135">
        <ele>38</ele>
        <time>2014-08-03T07:40:35Z</time>
      </trkpt>
      <trkpt lat="47.23617" lon="-1.6112">
        <ele>38</ele>
        <time>2014-08-03T07:40:38Z</time>
      </trkpt>
      <trkpt lat="47.23615" lon="-1.61104">
        <ele>38</ele>
        <time>2014-08-03T07:40:41Z</time>
      </trkpt>
      <trkpt lat="47.23613" lon="-1.61089">
        <ele>38</ele>
        <time>2014-08-03T07:40:44Z</time>
      </trkpt>
      <trkpt lat="47.23612" lon="-1.61073">
        <ele>38</ele>
        <time>2014-08-03T07:40:47Z</time>
      </trkpt>
      <trkpt lat="47.23609" lon="-1.61056">
        <ele>38</ele>
        <time>2014-08-03T07:40:50Z</time>
      </trkpt>
      <trkpt lat="47.23605" lon="-1.61041">
        <ele>38</ele>
        <time>2014-08-03T07:40:53Z</time>
      </trkpt>
      <trkpt lat="47.23606" lon="-1.61026">
        <ele>38</ele>
        <time>2014-08-03T07:40:56Z</time>
      </trkpt>
      <trkpt lat="47.23605" lon="-1.6101">
        <ele>38</ele>
        <time>2014-08-03T07:40:59Z</time>
      </trkpt>
      <trkpt lat="47.23607" lon="-1.60992">
        <ele>38</ele>
        <time>2014-08-03T07:41:02Z</time>
      </trkpt>
      <trkpt lat="47.2361" lon="-1.60975">
        <ele>38</ele>
        <time>2014-08-03T07:41:05Z</time>
      </trkpt>
      <trkpt lat="47.23614" lon="-1.60961">
        <ele>38</ele>
        <time>2014-08-03T07:41:07Z</time>
      </trkpt>
      <trkpt lat="47.23619" lon="-1.60945">
        <ele>38</ele>
        <time>2014-08-03T07:41:09Z</time>
      </trkpt>
      <trkpt lat="47.23622" lon="-1.60928">
        <ele>38</ele>
        <time>2014-08-03T07:41:12Z</time>
      </trkpt>
      <trkpt lat="47.23623" lon="-1.60912">
        <ele>38</ele>
        <time>2014-08-03T07:41:15Z</time>
      </trkpt>
      <trkpt lat="47.23624" lon="-1.60897">
        <ele>38</ele>
        <time>2014-08-03T07:41:17Z</time>
      </trkpt>
      <trkpt lat="47.23624" lon="-1.60883">
        <ele>38</ele>
        <time>2014-08-03T07:41:20Z</time>
      </trkpt>
      <trkpt lat="47.23625" lon="-1.60868">
        <ele>38</ele>
        <time>2014-08-03T07:41:23Z</time>
      </trkpt>
      <trkpt lat="47.23625" lon="-1.60852">
        <ele>38</ele>
        <time>2014-08-03T07:41:27Z</time>
      </trkpt>
      <trkpt lat="47.23623" lon="-1.60836">
        <ele>38</ele>
        <time>2014-08-03T07:41:31Z</time>
      </trkpt>
      <trkpt lat="47.23614" lon="-1.60823">
        <ele>38</ele>
        <time>2014-08-03T07:41:34Z</time>
      </trkpt>
      <trkpt lat="47.23602" lon="-1.60811">
        <ele>38</ele>
        <time>2014-08-03T07:41:36Z</time>
      </trkpt>
      <trkpt lat="47.23592" lon="-1.60802">
        <ele>38</ele>
        <time>2014-08-03T07:41:38Z</time>
      </trkpt>
      <trkpt lat="47.23584" lon="-1.60795">
        <ele>38</ele>
        <time>2014-08-03T07:41:40Z</time>
      </trkpt>
      <trkpt lat="47.23574" lon="-1.60787">
        <ele>38</ele>
        <time>2014-08-03T07:41:43Z</time>
      </trkpt>
      <trkpt lat="47.23567" lon="-1.60774">
        <ele>38</ele>
        <time>2014-08-03T07:41:46Z</time>
      </trkpt>
      <trkpt lat="47.2356" lon="-1.60763">
        <ele>38</ele>
        <time>2014-08-03T07:41:48Z</time>
      </trkpt>
      <trkpt lat="47.23553" lon="-1.60752">
        <ele>38</ele>
        <time>2014-08-03T07:41:50Z</time>
      </trkpt>
      <trkpt lat="47.23546" lon="-1.60737">
        <ele>39.2</ele>
        <time>2014-08-03T07:41:53Z</time>
      </trkpt>
      <trkpt lat="47.2354" lon="-1.60721">
        <ele>40.7</ele>
        <time>2014-08-03T07:41:56Z</time>
      </trkpt>
      <trkpt lat="47.23533" lon="-1.60705">
        <ele>42.2</ele>
        <time>2014-08-03T07:41:59Z</time>
      </trkpt>
      <trkpt lat="47.23527" lon="-1.60694">
        <ele>43.4</ele>
        <time>2014-08-03T07:42:01Z</time>
      </trkpt>
      <trkpt lat="47.2352" lon="-1.60677">
        <ele>44.9</ele>
        <time>2014-08-03T07:42:04Z</time>
      </trkpt>
      <trkpt lat="47.23518" lon="-1.60663">
        <ele>46</ele>
        <time>2014-08-03T07:42:07Z</time>
      </trkpt>
      <trkpt lat="47.23515" lon="-1.60644">
        <ele>46</ele>
        <time>2014-08-03T07:42:10Z</time>
      </trkpt>
      <trkpt lat="47.23515" lon="-1.6063">
        <ele>46</ele>
        <time>2014-08-03T07:42:12Z</time>
      </trkpt>
      <trkpt lat="47.23515" lon="-1.60612">
        <ele>46</ele>
        <time>2014-08-03T07:42:14Z</time>
      </trkpt>
      <trkpt lat="47.23516" lon="-1.60596">
        <ele>46</ele>
        <time>2014-08-03T07:42:16Z</time>
      </trkpt>
      <trkpt lat="47.23516" lon="-1.60579">
        <ele>46</ele>
        <time>2014-08-03T07:42:18Z</time>
      </trkpt>
      <trkpt lat="47.23516" lon="-1.6056">
        <ele>46</ele>
        <time>2014-08-03T07:42:20Z</time>
      </trkpt>
      <trkpt lat="47.23515" lon="-1.60542">
        <ele>46</ele>
        <time>2014-08-03T07:42:22Z</time>
      </trkpt>
      <trkpt lat="47.23514" lon="-1.60524">
        <ele>46</ele>
        <time>2014-08-03T07:42:24Z</time>
      </trkpt>
      <trkpt lat="47.23513" lon="-1.60507">
        <ele>46</ele>
        <time>2014-08-03T07:42:26Z</time>
      </trkpt>
      <trkpt lat="47.23512" lon="-1.60491">
        <ele>46</ele>
        <time>2014-08-03T07:42:28Z</time>
      </trkpt>
      <trkpt lat="47.23511" lon="-1.60475">
        <ele>46</ele>
        <time>2014-08-03T07:42:30Z</time>
      </trkpt>
      <trkpt lat="47.23509" lon="-1.60458">
        <ele>46</ele>
        <time>2014-08-03T07:42:32Z</time>
      </trkpt>
      <trkpt lat="47.23507" lon="-1.60441">
        <ele>46</ele>
        <time>2014-08-03T07:42:34Z</time>
      </trkpt>
      <trkpt lat="47.23505" lon="-1.60426">
        <ele>46</ele>
        <time>2014-08-03T07:42:36Z</time>
      </trkpt>
      <trkpt lat="47.23502" lon="-1.60407">
        <ele>46</ele>
        <time>2014-08-03T07:42:39Z</time>
      </trkpt>
      <trkpt lat="47.23497" lon="-1.6039">
        <ele>46</ele>
        <time>2014-08-03T07:42:42Z</time>
      </trkpt>
      <trkpt lat="47.23493" lon="-1.60377">
        <ele>46</ele>
        <time>2014-08-03T07:42:44Z</time>
      </trkpt>
      <trkpt lat="47.23488" lon="-1.60363">
        <ele>46</ele>
        <time>2014-08-03T07:42:46Z</time>
      </trkpt>
      <trkpt lat="47.23481" lon="-1.60347">
        <ele>46</ele>
        <time>2014-08-03T07:42:48Z</time>
      </trkpt>
      <trkpt lat="47.2347" lon="-1.60335">
        <ele>46</ele>
        <time>2014-08-03T07:42:50Z</time>
      </trkpt>
      <trkpt lat="47.23462" lon="-1.60326">
        <ele>46</ele>
        <time>2014-08-03T07:42:52Z</time>
      </trkpt>
      <trkpt lat="47.23451" lon="-1.60315">
        <ele>46</ele>
        <time>2014-08-03T07:42:55Z</time>
      </trkpt>
      <trkpt lat="47.23443" lon="-1.60307">
        <ele>46</ele>
        <time>2014-08-03T07:42:57Z</time>
      </trkpt>
      <trkpt lat="47.23432" lon="-1.60297">
        <ele>46</ele>
        <time>2014-08-03T07:43:00Z</time>
      </trkpt>
      <trkpt lat="47.23424" lon="-1.60289">
        <ele>46</ele>
        <time>2014-08-03T07:43:03Z</time>
      </trkpt>
      <trkpt lat="47.23415" lon="-1.60278">
        <ele>45.6</ele>
        <time>2014-08-03T07:43:06Z</time>
      </trkpt>
      <trkpt lat="47.23407" lon="-1.60266">
        <ele>43.8</ele>
        <time>2014-08-03T07:43:08Z</time>
      </trkpt>
      <trkpt lat="47.234" lon="-1.60256">
        <ele>42.1</ele>
        <time>2014-08-03T07:43:09Z</time>
      </trkpt>
      <trkpt lat="47.23389" lon="-1.60242">
        <ele>39.8</ele>
        <time>2014-08-03T07:43:11Z</time>
      </trkpt>
      <trkpt lat="47.2338" lon="-1.60231">
        <ele>37.7</ele>
        <time>2014-08-03T07:43:13Z</time>
      </trkpt>
      <trkpt lat="47.2337" lon="-1.60222">
        <ele>35.5</ele>
        <time>2014-08-03T07:43:16Z</time>
      </trkpt>
      <trkpt lat="47.23361" lon="-1.60214">
        <ele>33.3</ele>
        <time>2014-08-03T07:43:19Z</time>
      </trkpt>
      <trkpt lat="47.23354" lon="-1.60201">
        <ele>31.8</ele>
        <time>2014-08-03T07:43:22Z</time>
      </trkpt>
      <trkpt lat="47.23348" lon="-1.60184">
        <ele>30.4</ele>
        <time>2014-08-03T07:43:25Z</time>
      </trkpt>
      <trkpt lat="47.23339" lon="-1.6017">
        <ele>28.4</ele>
        <time>2014-08-03T07:43:28Z</time>
      </trkpt>
      <trkpt lat="47.2333" lon="-1.60157">
        <ele>27</ele>
        <time>2014-08-03T07:43:31Z</time>
      </trkpt>
      <trkpt lat="47.2332" lon="-1.60145">
        <ele>27</ele>
        <time>2014-08-03T07:43:34Z</time>
      </trkpt>
      <trkpt lat="47.2331" lon="-1.60133">
        <ele>27</ele>
        <time>2014-08-03T07:43:37Z</time>
      </trkpt>
      <trkpt lat="47.23307" lon="-1.60119">
        <ele>27</ele>
        <time>2014-08-03T07:43:40Z</time>
      </trkpt>
      <trkpt lat="47.23308" lon="-1.60101">
        <ele>27</ele>
        <time>2014-08-03T07:43:43Z</time>
      </trkpt>
      <trkpt lat="47.23311" lon="-1.60082">
        <ele>27</ele>
        <time>2014-08-03T07:43:46Z</time>
      </trkpt>
      <trkpt lat="47.23311" lon="-1.60064">
        <ele>27.9</ele>
        <time>2014-08-03T07:43:49Z</time>
      </trkpt>
      <trkpt lat="47.23311" lon="-1.60048">
        <ele>28.7</ele>
        <time>2014-08-03T07:43:51Z</time>
      </trkpt>
      <trkpt lat="47.23311" lon="-1.6003">
        <ele>29.5</ele>
        <time>2014-08-03T07:43:53Z</time>
      </trkpt>
      <trkpt lat="47.23311" lon="-1.60014">
        <ele>30.3</ele>
        <time>2014-08-03T07:43:55Z</time>
      </trkpt>
      <trkpt lat="47.2331" lon="-1.59998">
        <ele>31</ele>
        <time>2014-08-03T07:43:57Z</time>
      </trkpt>
      <trkpt lat="47.2331" lon="-1.59985">
        <ele>31</ele>
        <time>2014-08-03T07:43:59Z</time>
      </trkpt>
      <trkpt lat="47.23306" lon="-1.59966">
        <ele>31</ele>
        <time>2014-08-03T07:44:02Z</time>
      </trkpt>
      <trkpt lat="47.233" lon="-1.59948">
        <ele>31</ele>
        <time>2014-08-03T07:44:05Z</time>
      </trkpt>
      <trkpt lat="47.23293" lon="-1.59934">
        <ele>31</ele>
        <time>2014-08-03T07:44:07Z</time>
      </trkpt>
      <trkpt lat="47.23283" lon="-1.59924">
        <ele>31</ele>
        <time>2014-08-03T07:44:09Z</time>
      </trkpt>
      <trkpt lat="47.23275" lon="-1.59917">
        <ele>31</ele>
        <time>2014-08-03T07:44:11Z</time>
      </trkpt>
      <trkpt lat="47.23263" lon="-1.59909">
        <ele>31</ele>
        <time>2014-08-03T07:44:14Z</time>
      </trkpt>
      <trkpt lat="47.23254" lon="-1.59901">
        <ele>31</ele>
        <time>2014-08-03T07:44:16Z</time>
      </trkpt>
      <trkpt lat="47.23245" lon="-1.59894">
        <ele>31</ele>
        <time>2014-08-03T07:44:18Z</time>
      </trkpt>
      <trkpt lat="47.23235" lon="-1.59884">
        <ele>31</ele>
        <time>2014-08-03T07:44:21Z</time>
      </trkpt>
      <trkpt lat="47.23224" lon="-1.59873">
        <ele>31</ele>
        <time>2014-08-03T07:44:24Z</time>
      </trkpt>
      <trkpt lat="47.23216" lon="-1.59864">
        <ele>31</ele>
        <time>2014-08-03T07:44:26Z</time>
      </trkpt>
      <trkpt lat="47.23209" lon="-1.59853">
        <ele>31</ele>
        <time>2014-08-03T07:44:28Z</time>
      </trkpt>
      <trkpt lat="47.232" lon="-1.59839">
        <ele>31</ele>
        <time>2014-08-03T07:44:31Z</time>
      </trkpt>
      <trkpt lat="47.23193" lon="-1.59828">
        <ele>31</ele>
        <time>2014-08-03T07:44:33Z</time>
      </trkpt>
      <trkpt lat="47.23186" lon="-1.59814">
        <ele>31</ele>
        <time>2014-08-03T07:44:36Z</time>
      </trkpt>
      <trkpt lat="47.23176" lon="-1.598">
        <ele>31</ele>
        <time>2014-08-03T07:44:39Z</time>
      </trkpt>
      <trkpt lat="47.23167" lon="-1.59795">
        <ele>31</ele>
        <time>2014-08-03T07:44:42Z</time>
      </trkpt>
      <trkpt lat="47.23158" lon="-1.59795">
        <ele>31</ele>
        <time>2014-08-03T07:44:44Z</time>
      </trkpt>
      <trkpt lat="47.23146" lon="-1.59791">
        <ele>31</ele>
        <time>2014-08-03T07:44:47Z</time>
      </trkpt>
      <trkpt lat="47.23136" lon="-1.5978">
        <ele>31</ele>
        <time>2014-08-03T07:44:50Z</time>
      </trkpt>
      <trkpt lat="47.23129" lon="-1.5977">
        <ele>31</ele>
        <time>2014-08-03T07:44:52Z</time>
      </trkpt>
      <trkpt lat="47.2312" lon="-1.59756">
        <ele>31</ele>
        <time>2014-08-03T07:44:55Z</time>
      </trkpt>
      <trkpt lat="47.23113" lon="-1.59748">
        <ele>31</ele>
        <time>2014-08-03T07:44:57Z</time>
      </trkpt>
      <trkpt lat="47.23105" lon="-1.59739">
        <ele>31</ele>
        <time>2014-08-03T07:44:59Z</time>
      </trkpt>
      <trkpt lat="47.23096" lon="-1.59728">
        <ele>31</ele>
        <time>2014-08-03T07:45:01Z</time>
      </trkpt>
      <trkpt lat="47.23087" lon="-1.59722">
        <ele>31</ele>
        <time>2014-08-03T07:45:03Z</time>
      </trkpt>
      <trkpt lat="47.23076" lon="-1.59728">
        <ele>31</ele>
        <time>2014-08-03T07:45:06Z</time>
      </trkpt>
      <trkpt lat="47.23071" lon="-1.59744">
        <ele>31</ele>
        <time>2014-08-03T07:45:09Z</time>
      </trkpt>
      <trkpt lat="47.23064" lon="-1.59757">
        <ele>31</ele>
        <time>2014-08-03T07:45:12Z</time>
      </trkpt>
      <trkpt lat="47.23055" lon="-1.59768">
        <ele>31</ele>
        <time>2014-08-03T07:45:15Z</time>
      </trkpt>
      <trkpt lat="47.23042" lon="-1.59778">
        <ele>31</ele>
        <time>2014-08-03T07:45:18Z</time>
      </trkpt>
      <trkpt lat="47.23033" lon="-1.59782">
        <ele>31</ele>
        <time>2014-08-03T07:45:20Z</time>
      </trkpt>
      <trkpt lat="47.23021" lon="-1.59785">
        <ele>31</ele>
        <time>2014-08-03T07:45:23Z</time>
      </trkpt>
      <trkpt lat="47.2301" lon="-1.59788">
        <ele>31</ele>
        <time>2014-08-03T07:45:26Z</time>
      </trkpt>
      <trkpt lat="47.23001" lon="-1.59792">
        <ele>31</ele>
        <time>2014-08-03T07:45:28Z</time>
      </trkpt>
      <trkpt lat="47.22989" lon="-1.59797">
        <ele>31</ele>
        <time>2014-08-03T07:45:31Z</time>
      </trkpt>
      <trkpt lat="47.22978" lon="-1.598">
        <ele>31</ele>
        <time>2014-08-03T07:45:35Z</time>
      </trkpt>
      <trkpt lat="47.22987" lon="-1.59809">
        <ele>31</ele>
        <time>2014-08-03T07:46:46Z</time>
      </trkpt>
      <trkpt lat="47.2298" lon="-1.598">
        <ele>31</ele>
        <time>2014-08-03T07:47:24Z</time>
      </trkpt>
      <trkpt lat="47.2299" lon="-1.59796">
        <ele>31</ele>
        <time>2014-08-03T07:48:35Z</time>
      </trkpt>
      <trkpt lat="47.22999" lon="-1.59791">
        <ele>31</ele>
        <time>2014-08-03T07:48:39Z</time>
      </trkpt>
      <trkpt lat="47.23009" lon="-1.59783">
        <ele>31</ele>
        <time>2014-08-03T07:48:43Z</time>
      </trkpt>
      <trkpt lat="47.23018" lon="-1.59779">
        <ele>31</ele>
        <time>2014-08-03T07:48:46Z</time>
      </trkpt>
      <trkpt lat="47.2303" lon="-1.59779">
        <ele>31</ele>
        <time>2014-08-03T07:48:49Z</time>
      </trkpt>
      <trkpt lat="47.23043" lon="-1.59775">
        <ele>31</ele>
        <time>2014-08-03T07:48:52Z</time>
      </trkpt>
      <trkpt lat="47.23054" lon="-1.59767">
        <ele>31</ele>
        <time>2014-08-03T07:48:55Z</time>
      </trkpt>
      <trkpt lat="47.23064" lon="-1.59756">
        <ele>31</ele>
        <time>2014-08-03T07:48:58Z</time>
      </trkpt>
      <trkpt lat="47.23074" lon="-1.59744">
        <ele>31</ele>
        <time>2014-08-03T07:49:01Z</time>
      </trkpt>
      <trkpt lat="47.2308" lon="-1.59734">
        <ele>31</ele>
        <time>2014-08-03T07:49:03Z</time>
      </trkpt>
      <trkpt lat="47.23089" lon="-1.59724">
        <ele>31</ele>
        <time>2014-08-03T07:49:05Z</time>
      </trkpt>
      <trkpt lat="47.231" lon="-1.59725">
        <ele>31</ele>
        <time>2014-08-03T07:49:07Z</time>
      </trkpt>
      <trkpt lat="47.23108" lon="-1.59731">
        <ele>31</ele>
        <time>2014-08-03T07:49:09Z</time>
      </trkpt>
      <trkpt lat="47.23116" lon="-1.5974">
        <ele>31</ele>
        <time>2014-08-03T07:49:11Z</time>
      </trkpt>
      <trkpt lat="47.23123" lon="-1.59753">
        <ele>31</ele>
        <time>2014-08-03T07:49:13Z</time>
      </trkpt>
      <trkpt lat="47.2313" lon="-1.59764">
        <ele>31</ele>
        <time>2014-08-03T07:49:15Z</time>
      </trkpt>
      <trkpt lat="47.23138" lon="-1.59776">
        <ele>31</ele>
        <time>2014-08-03T07:49:17Z</time>
      </trkpt>
      <trkpt lat="47.23146" lon="-1.59786">
        <ele>31</ele>
        <time>2014-08-03T07:49:19Z</time>
      </trkpt>
      <trkpt lat="47.23157" lon="-1.59798">
        <ele>31</ele>
        <time>2014-08-03T07:49:22Z</time>
      </trkpt>
      <trkpt lat="47.23167" lon="-1.59799">
        <ele>31</ele>
        <time>2014-08-03T07:49:24Z</time>
      </trkpt>
      <trkpt lat="47.23178" lon="-1.59802">
        <ele>31</ele>
        <time>2014-08-03T07:49:26Z</time>
      </trkpt>
      <trkpt lat="47.23188" lon="-1.59811">
        <ele>31</ele>
        <time>2014-08-03T07:49:28Z</time>
      </trkpt>
      <trkpt lat="47.23196" lon="-1.59822">
        <ele>31</ele>
        <time>2014-08-03T07:49:30Z</time>
      </trkpt>
      <trkpt lat="47.23205" lon="-1.59834">
        <ele>31</ele>
        <time>2014-08-03T07:49:32Z</time>
      </trkpt>
      <trkpt lat="47.23217" lon="-1.59851">
        <ele>31</ele>
        <time>2014-08-03T07:49:34Z</time>
      </trkpt>
      <trkpt lat="47.23228" lon="-1.59868">
        <ele>31</ele>
        <time>2014-08-03T07:49:36Z</time>
      </trkpt>
      <trkpt lat="47.23239" lon="-1.59883">
        <ele>31</ele>
        <time>2014-08-03T07:49:38Z</time>
      </trkpt>
      <trkpt lat="47.23249" lon="-1.59896">
        <ele>31</ele>
        <time>2014-08-03T07:49:40Z</time>
      </trkpt>
      <trkpt lat="47.23261" lon="-1.59909">
        <ele>31</ele>
        <time>2014-08-03T07:49:42Z</time>
      </trkpt>
      <trkpt lat="47.23274" lon="-1.59924">
        <ele>31</ele>
        <time>2014-08-03T07:49:44Z</time>
      </trkpt>
      <trkpt lat="47.23287" lon="-1.59936">
        <ele>31</ele>
        <time>2014-08-03T07:49:46Z</time>
      </trkpt>
      <trkpt lat="47.23298" lon="-1.59947">
        <ele>31</ele>
        <time>2014-08-03T07:49:48Z</time>
      </trkpt>
      <trkpt lat="47.23307" lon="-1.59963">
        <ele>31</ele>
        <time>2014-08-03T07:49:50Z</time>
      </trkpt>
      <trkpt lat="47.23313" lon="-1.5998">
        <ele>31</ele>
        <time>2014-08-03T07:49:52Z</time>
      </trkpt>
      <trkpt lat="47.23316" lon="-1.59999">
        <ele>31</ele>
        <time>2014-08-03T07:49:54Z</time>
      </trkpt>
      <trkpt lat="47.23317" lon="-1.60021">
        <ele>30</ele>
        <time>2014-08-03T07:49:56Z</time>
      </trkpt>
      <trkpt lat="47.23317" lon="-1.60041">
        <ele>29</ele>
        <time>2014-08-03T07:49:58Z</time>
      </trkpt>
      <trkpt lat="47.23316" lon="-1.60058">
        <ele>28.2</ele>
        <time>2014-08-03T07:50:00Z</time>
      </trkpt>
      <trkpt lat="47.23316" lon="-1.60074">
        <ele>27.4</ele>
        <time>2014-08-03T07:50:02Z</time>
      </trkpt>
      <trkpt lat="47.23317" lon="-1.6009">
        <ele>27</ele>
        <time>2014-08-03T07:50:04Z</time>
      </trkpt>
      <trkpt lat="47.23316" lon="-1.60104">
        <ele>27</ele>
        <time>2014-08-03T07:50:06Z</time>
      </trkpt>
      <trkpt lat="47.23318" lon="-1.60119">
        <ele>27</ele>
        <time>2014-08-03T07:50:08Z</time>
      </trkpt>
      <trkpt lat="47.23324" lon="-1.60131">
        <ele>27</ele>
        <time>2014-08-03T07:50:10Z</time>
      </trkpt>
      <trkpt lat="47.23333" lon="-1.60146">
        <ele>27</ele>
        <time>2014-08-03T07:50:12Z</time>
      </trkpt>
      <trkpt lat="47.23343" lon="-1.60162">
        <ele>29.1</ele>
        <time>2014-08-03T07:50:14Z</time>
      </trkpt>
      <trkpt lat="47.23352" lon="-1.60178">
        <ele>31.3</ele>
        <time>2014-08-03T07:50:16Z</time>
      </trkpt>
      <trkpt lat="47.2336" lon="-1.60191">
        <ele>33.1</ele>
        <time>2014-08-03T07:50:18Z</time>
      </trkpt>
      <trkpt lat="47.23367" lon="-1.60205">
        <ele>34.7</ele>
        <time>2014-08-03T07:50:20Z</time>
      </trkpt>
      <trkpt lat="47.23374" lon="-1.60218">
        <ele>36.4</ele>
        <time>2014-08-03T07:50:22Z</time>
      </trkpt>
      <trkpt lat="47.23383" lon="-1.60229">
        <ele>38.2</ele>
        <time>2014-08-03T07:50:24Z</time>
      </trkpt>
      <trkpt lat="47.23392" lon="-1.60241">
        <ele>40.4</ele>
        <time>2014-08-03T07:50:26Z</time>
      </trkpt>
      <trkpt lat="47.23403" lon="-1.60254">
        <ele>42.9</ele>
        <time>2014-08-03T07:50:28Z</time>
      </trkpt>
      <trkpt lat="47.23412" lon="-1.60265">
        <ele>44.9</ele>
        <time>2014-08-03T07:50:30Z</time>
      </trkpt>
      <trkpt lat="47.2342" lon="-1.60277">
        <ele>46</ele>
        <time>2014-08-03T07:50:32Z</time>
      </trkpt>
      <trkpt lat="47.23427" lon="-1.60286">
        <ele>46</ele>
        <time>2014-08-03T07:50:34Z</time>
      </trkpt>
      <trkpt lat="47.23435" lon="-1.60297">
        <ele>46</ele>
        <time>2014-08-03T07:50:36Z</time>
      </trkpt>
      <trkpt lat="47.23444" lon="-1.60307">
        <ele>46</ele>
        <time>2014-08-03T07:50:38Z</time>
      </trkpt>
      <trkpt lat="47.23454" lon="-1.60318">
        <ele>46</ele>
        <time>2014-08-03T07:50:40Z</time>
      </trkpt>
      <trkpt lat="47.23464" lon="-1.60329">
        <ele>46</ele>
        <time>2014-08-03T07:50:42Z</time>
      </trkpt>
      <trkpt lat="47.23473" lon="-1.60339">
        <ele>46</ele>
        <time>2014-08-03T07:50:44Z</time>
      </trkpt>
      <trkpt lat="47.23483" lon="-1.60349">
        <ele>46</ele>
        <time>2014-08-03T07:50:46Z</time>
      </trkpt>
      <trkpt lat="47.23491" lon="-1.6036">
        <ele>46</ele>
        <time>2014-08-03T07:50:48Z</time>
      </trkpt>
      <trkpt lat="47.23498" lon="-1.60371">
        <ele>46</ele>
        <time>2014-08-03T07:50:50Z</time>
      </trkpt>
      <trkpt lat="47.23503" lon="-1.6039">
        <ele>46</ele>
        <time>2014-08-03T07:50:52Z</time>
      </trkpt>
      <trkpt lat="47.23508" lon="-1.60411">
        <ele>46</ele>
        <time>2014-08-03T07:50:54Z</time>
      </trkpt>
      <trkpt lat="47.23511" lon="-1.60429">
        <ele>46</ele>
        <time>2014-08-03T07:50:56Z</time>
      </trkpt>
      <trkpt lat="47.23514" lon="-1.60446">
        <ele>46</ele>
        <time>2014-08-03T07:50:58Z</time>
      </trkpt>
      <trkpt lat="47.23515" lon="-1.60466">
        <ele>46</ele>
        <time>2014-08-03T07:51:00Z</time>
      </trkpt>
      <trkpt lat="47.23516" lon="-1.60485">
        <ele>46</ele>
        <time>2014-08-03T07:51:02Z</time>
      </trkpt>
      <trkpt lat="47.23516" lon="-1.60502">
        <ele>46</ele>
        <time>2014-08-03T07:51:04Z</time>
      </trkpt>
      <trkpt lat="47.23515" lon="-1.60519">
        <ele>46</ele>
        <time>2014-08-03T07:51:06Z</time>
      </trkpt>
      <trkpt lat="47.23515" lon="-1.60535">
        <ele>46</ele>
        <time>2014-08-03T07:51:08Z</time>
      </trkpt>
      <trkpt lat="47.23515" lon="-1.60553">
        <ele>46</ele>
        <time>2014-08-03T07:51:10Z</time>
      </trkpt>
      <trkpt lat="47.23515" lon="-1.60569">
        <ele>46</ele>
        <time>2014-08-03T07:51:12Z</time>
      </trkpt>
      <trkpt lat="47.23515" lon="-1.60586">
        <ele>46</ele>
        <time>2014-08-03T07:51:14Z</time>
      </trkpt>
      <trkpt lat="47.23515" lon="-1.60603">
        <ele>46</ele>
        <time>2014-08-03T07:51:16Z</time>
      </trkpt>
      <trkpt lat="47.23516" lon="-1.60619">
        <ele>46</ele>
        <time>2014-08-03T07:51:18Z</time>
      </trkpt>
      <trkpt lat="47.23516" lon="-1.60633">
        <ele>46</ele>
        <time>2014-08-03T07:51:20Z</time>
      </trkpt>
      <trkpt lat="47.23518" lon="-1.60651">
        <ele>46</ele>
        <time>2014-08-03T07:51:23Z</time>
      </trkpt>
      <trkpt lat="47.23521" lon="-1.60668">
        <ele>45.7</ele>
        <time>2014-08-03T07:51:26Z</time>
      </trkpt>
      <trkpt lat="47.23524" lon="-1.60683">
        <ele>44.4</ele>
        <time>2014-08-03T07:51:29Z</time>
      </trkpt>
      <trkpt lat="47.23528" lon="-1.60695">
        <ele>43.2</ele>
        <time>2014-08-03T07:51:31Z</time>
      </trkpt>
      <trkpt lat="47.23533" lon="-1.60706">
        <ele>42.1</ele>
        <time>2014-08-03T07:51:33Z</time>
      </trkpt>
      <trkpt lat="47.23538" lon="-1.60717">
        <ele>41.1</ele>
        <time>2014-08-03T07:51:35Z</time>
      </trkpt>
      <trkpt lat="47.23543" lon="-1.60729">
        <ele>40</ele>
        <time>2014-08-03T07:51:37Z</time>
      </trkpt>
      <trkpt lat="47.23549" lon="-1.60742">
        <ele>38.7</ele>
        <time>2014-08-03T07:51:39Z</time>
      </trkpt>
      <trkpt lat="47.23556" lon="-1.60757">
        <ele>38</ele>
        <time>2014-08-03T07:51:41Z</time>
      </trkpt>
      <trkpt lat="47.23568" lon="-1.60778">
        <ele>38</ele>
        <time>2014-08-03T07:51:43Z</time>
      </trkpt>
      <trkpt lat="47.23575" lon="-1.6079">
        <ele>38</ele>
        <time>2014-08-03T07:51:45Z</time>
      </trkpt>
      <trkpt lat="47.23582" lon="-1.60801">
        <ele>38</ele>
        <time>2014-08-03T07:51:47Z</time>
      </trkpt>
      <trkpt lat="47.23594" lon="-1.60809">
        <ele>38</ele>
        <time>2014-08-03T07:51:50Z</time>
      </trkpt>
      <trkpt lat="47.23602" lon="-1.60814">
        <ele>38</ele>
        <time>2014-08-03T07:51:52Z</time>
      </trkpt>
      <trkpt lat="47.23611" lon="-1.60819">
        <ele>38</ele>
        <time>2014-08-03T07:51:54Z</time>
      </trkpt>
      <trkpt lat="47.2362" lon="-1.60832">
        <ele>38</ele>
        <time>2014-08-03T07:51:57Z</time>
      </trkpt>
      <trkpt lat="47.23627" lon="-1.60845">
        <ele>38</ele>
        <time>2014-08-03T07:51:59Z</time>
      </trkpt>
      <trkpt lat="47.23631" lon="-1.60862">
        <ele>38</ele>
        <time>2014-08-03T07:52:02Z</time>
      </trkpt>
      <trkpt lat="47.23634" lon="-1.60881">
        <ele>38</ele>
        <time>2014-08-03T07:52:05Z</time>
      </trkpt>
      <trkpt lat="47.23634" lon="-1.60901">
        <ele>38</ele>
        <time>2014-08-03T07:52:07Z</time>
      </trkpt>
      <trkpt lat="47.23633" lon="-1.60916">
        <ele>38</ele>
        <time>2014-08-03T07:52:09Z</time>
      </trkpt>
      <trkpt lat="47.2363" lon="-1.60929">
        <ele>38</ele>
        <time>2014-08-03T07:52:11Z</time>
      </trkpt>
      <trkpt lat="47.23622" lon="-1.6092">
        <ele>38</ele>
        <time>2014-08-03T07:52:38Z</time>
      </trkpt>
      <trkpt lat="47.23634" lon="-1.6091">
        <ele>38</ele>
        <time>2014-08-03T07:52:45Z</time>
      </trkpt>
      <trkpt lat="47.23645" lon="-1.60913">
        <ele>38</ele>
        <time>2014-08-03T07:53:56Z</time>
      </trkpt>
      <trkpt lat="47.23652" lon="-1.60924">
        <ele>38</ele>
        <time>2014-08-03T07:54:04Z</time>
      </trkpt>
      <trkpt lat="47.23659" lon="-1.60933">
        <ele>38</ele>
        <time>2014-08-03T07:54:09Z</time>
      </trkpt>
      <trkpt lat="47.23658" lon="-1.60949">
        <ele>38</ele>
        <time>2014-08-03T07:54:14Z</time>
      </trkpt>
      <trkpt lat="47.23657" lon="-1.60965">
        <ele>38</ele>
        <time>2014-08-03T07:54:18Z</time>
      </trkpt>
      <trkpt lat="47.23657" lon="-1.60981">
        <ele>38</ele>
        <time>2014-08-03T07:54:23Z</time>
      </trkpt>
      <trkpt lat="47.2366" lon="-1.60994">
        <ele>38</ele>
        <time>2014-08-03T07:54:28Z</time>
      </trkpt>
      <trkpt lat="47.23662" lon="-1.61007">
        <ele>38</ele>
        <time>2014-08-03T07:54:33Z</time>
      </trkpt>
      <trkpt lat="47.2366" lon="-1.61023">
        <ele>38</ele>
        <time>2014-08-03T07:54:38Z</time>
      </trkpt>
      <trkpt lat="47.23658" lon="-1.61038">
        <ele>38</ele>
        <time>2014-08-03T07:54:42Z</time>
      </trkpt>
      <trkpt lat="47.23656" lon="-1.61052">
        <ele>38</ele>
        <time>2014-08-03T07:54:46Z</time>
      </trkpt>
      <trkpt lat="47.23653" lon="-1.61069">
        <ele>38</ele>
        <time>2014-08-03T07:54:50Z</time>
      </trkpt>
      <trkpt lat="47.23649" lon="-1.61082">
        <ele>38</ele>
        <time>2014-08-03T07:54:53Z</time>
      </trkpt>
      <trkpt lat="47.23642" lon="-1.61098">
        <ele>38</ele>
        <time>2014-08-03T07:54:56Z</time>
      </trkpt>
      <trkpt lat="47.2364" lon="-1.61112">
        <ele>38</ele>
        <time>2014-08-03T07:54:58Z</time>
      </trkpt>
      <trkpt lat="47.23642" lon="-1.6113">
        <ele>38</ele>
        <time>2014-08-03T07:55:01Z</time>
      </trkpt>
      <trkpt lat="47.2365" lon="-1.61143">
        <ele>38</ele>
        <time>2014-08-03T07:55:04Z</time>
      </trkpt>
      <trkpt lat="47.23658" lon="-1.61159">
        <ele>38</ele>
        <time>2014-08-03T07:55:07Z</time>
      </trkpt>
      <trkpt lat="47.23664" lon="-1.61172">
        <ele>38</ele>
        <time>2014-08-03T07:55:10Z</time>
      </trkpt>
      <trkpt lat="47.23671" lon="-1.61186">
        <ele>38</ele>
        <time>2014-08-03T07:55:13Z</time>
      </trkpt>
      <trkpt lat="47.23678" lon="-1.61202">
        <ele>38</ele>
        <time>2014-08-03T07:55:16Z</time>
      </trkpt>
      <trkpt lat="47.23683" lon="-1.61221">
        <ele>38</ele>
        <time>2014-08-03T07:55:19Z</time>
      </trkpt>
      <trkpt lat="47.23686" lon="-1.61237">
        <ele>38</ele>
        <time>2014-08-03T07:55:21Z</time>
      </trkpt>
      <trkpt lat="47.23689" lon="-1.61254">
        <ele>38</ele>
        <time>2014-08-03T07:55:23Z</time>
      </trkpt>
      <trkpt lat="47.23692" lon="-1.61269">
        <ele>38</ele>
        <time>2014-08-03T07:55:25Z</time>
      </trkpt>
      <trkpt lat="47.23697" lon="-1.61281">
        <ele>38</ele>
        <time>2014-08-03T07:55:27Z</time>
      </trkpt>
      <trkpt lat="47.23704" lon="-1.61295">
        <ele>38</ele>
        <time>2014-08-03T07:55:30Z</time>
      </trkpt>
      <trkpt lat="47.23715" lon="-1.61305">
        <ele>38</ele>
        <time>2014-08-03T07:55:33Z</time>
      </trkpt>
      <trkpt lat="47.23727" lon="-1.61305">
        <ele>38</ele>
        <time>2014-08-03T07:55:36Z</time>
      </trkpt>
      <trkpt lat="47.23739" lon="-1.61305">
        <ele>38</ele>
        <time>2014-08-03T07:55:39Z</time>
      </trkpt>
      <trkpt lat="47.23749" lon="-1.61316">
        <ele>38</ele>
        <time>2014-08-03T07:55:42Z</time>
      </trkpt>
      <trkpt lat="47.23759" lon="-1.61327">
        <ele>38</ele>
        <time>2014-08-03T07:55:45Z</time>
      </trkpt>
      <trkpt lat="47.23766" lon="-1.61335">
        <ele>38</ele>
        <time>2014-08-03T07:55:48Z</time>
      </trkpt>
      <trkpt lat="47.23774" lon="-1.61345">
        <ele>38.1</ele>
        <time>2014-08-03T07:55:52Z</time>
      </trkpt>
      <trkpt lat="47.23784" lon="-1.61357">
        <ele>38.3</ele>
        <time>2014-08-03T07:55:55Z</time>
      </trkpt>
      <trkpt lat="47.23785" lon="-1.61372">
        <ele>38.5</ele>
        <time>2014-08-03T07:56:01Z</time>
      </trkpt>
      <trkpt lat="47.23785" lon="-1.61387">
        <ele>38.6</ele>
        <time>2014-08-03T07:56:04Z</time>
      </trkpt>
      <trkpt lat="47.23784" lon="-1.61401">
        <ele>38.8</ele>
        <time>2014-08-03T07:56:07Z</time>
      </trkpt>
      <trkpt lat="47.23784" lon="-1.61415">
        <ele>39</ele>
        <time>2014-08-03T07:56:10Z</time>
      </trkpt>
      <trkpt lat="47.23782" lon="-1.6143">
        <ele>39</ele>
        <time>2014-08-03T07:56:13Z</time>
      </trkpt>
      <trkpt lat="47.23778" lon="-1.61448">
        <ele>39</ele>
        <time>2014-08-03T07:56:16Z</time>
      </trkpt>
      <trkpt lat="47.23775" lon="-1.61466">
        <ele>39</ele>
        <time>2014-08-03T07:56:19Z</time>
      </trkpt>
      <trkpt lat="47.23771" lon="-1.61481">
        <ele>39</ele>
        <time>2014-08-03T07:56:23Z</time>
      </trkpt>
      <trkpt lat="47.23766" lon="-1.61493">
        <ele>39</ele>
        <time>2014-08-03T07:56:27Z</time>
      </trkpt>
      <trkpt lat="47.23764" lon="-1.61506">
        <ele>39</ele>
        <time>2014-08-03T07:56:31Z</time>
      </trkpt>
      <trkpt lat="47.23759" lon="-1.61519">
        <ele>39</ele>
        <time>2014-08-03T07:56:35Z</time>
      </trkpt>
      <trkpt lat="47.23759" lon="-1.61533">
        <ele>39</ele>
        <time>2014-08-03T07:56:40Z</time>
      </trkpt>
      <trkpt lat="47.23765" lon="-1.61545">
        <ele>39</ele>
        <time>2014-08-03T07:56:46Z</time>
      </trkpt>
      <trkpt lat="47.23774" lon="-1.61549">
        <ele>39</ele>
        <time>2014-08-03T07:56:50Z</time>
      </trkpt>
      <trkpt lat="47.23778" lon="-1.61563">
        <ele>39</ele>
        <time>2014-08-03T07:56:58Z</time>
      </trkpt>
      <trkpt lat="47.23778" lon="-1.61578">
        <ele>39</ele>
        <time>2014-08-03T07:57:08Z</time>
      </trkpt>
      <trkpt lat="47.23779" lon="-1.61593">
        <ele>39</ele>
        <time>2014-08-03T07:57:17Z</time>
      </trkpt>
      <trkpt lat="47.23773" lon="-1.61605">
        <ele>39</ele>
        <time>2014-08-03T07:57:23Z</time>
      </trkpt>
      <trkpt lat="47.23771" lon="-1.61618">
        <ele>39</ele>
        <time>2014-08-03T07:57:29Z</time>
      </trkpt>
      <trkpt lat="47.23768" lon="-1.61634">
        <ele>39</ele>
        <time>2014-08-03T07:57:34Z</time>
      </trkpt>
      <trkpt lat="47.23766" lon="-1.61648">
        <ele>39</ele>
        <time>2014-08-03T07:57:40Z</time>
      </trkpt>
      <trkpt lat="47.23766" lon="-1.61662">
        <ele>39</ele>
        <time>2014-08-03T07:57:47Z</time>
      </trkpt>
      <trkpt lat="47.23767" lon="-1.61676">
        <ele>39</ele>
        <time>2014-08-03T07:57:51Z</time>
      </trkpt>
      <trkpt lat="47.23772" lon="-1.61688">
        <ele>39</ele>
        <time>2014-08-03T07:58:00Z</time>
      </trkpt>
      <trkpt lat="47.23776" lon="-1.61702">
        <ele>39</ele>
        <time>2014-08-03T07:58:07Z</time>
      </trkpt>
      <trkpt lat="47.23778" lon="-1.61717">
        <ele>39</ele>
        <time>2014-08-03T07:58:12Z</time>
      </trkpt>
      <trkpt lat="47.23776" lon="-1.61732">
        <ele>39</ele>
        <time>2014-08-03T07:58:18Z</time>
      </trkpt>
      <trkpt lat="47.2378" lon="-1.61745">
        <ele>39</ele>
        <time>2014-08-03T07:58:24Z</time>
      </trkpt>
      <trkpt lat="47.23785" lon="-1.61757">
        <ele>39</ele>
        <time>2014-08-03T07:58:29Z</time>
      </trkpt>
      <trkpt lat="47.23791" lon="-1.61769">
        <ele>39</ele>
        <time>2014-08-03T07:58:35Z</time>
      </trkpt>
      <trkpt lat="47.23797" lon="-1.61779">
        <ele>39</ele>
        <time>2014-08-03T07:58:39Z</time>
      </trkpt>
      <trkpt lat="47.23803" lon="-1.6179">
        <ele>39</ele>
        <time>2014-08-03T07:58:43Z</time>
      </trkpt>
      <trkpt lat="47.2381" lon="-1.618">
        <ele>39</ele>
        <time>2014-08-03T07:58:47Z</time>
      </trkpt>
      <trkpt lat="47.23818" lon="-1.61807">
        <ele>39</ele>
        <time>2014-08-03T07:58:50Z</time>
      </trkpt>
      <trkpt lat="47.23821" lon="-1.61822">
        <ele>39</ele>
        <time>2014-08-03T07:59:02Z</time>
      </trkpt>
      <trkpt lat="47.23827" lon="-1.61837">
        <ele>39</ele>
        <time>2014-08-03T07:59:05Z</time>
      </trkpt>
      <trkpt lat="47.2383" lon="-1.61852">
        <ele>39</ele>
        <time>2014-08-03T07:59:08Z</time>
      </trkpt>
      <trkpt lat="47.23831" lon="-1.61871">
        <ele>39</ele>
        <time>2014-08-03T07:59:11Z</time>
      </trkpt>
      <trkpt lat="47.23828" lon="-1.61884">
        <ele>39</ele>
        <time>2014-08-03T07:59:14Z</time>
      </trkpt>
      <trkpt lat="47.23827" lon="-1.61898">
        <ele>39</ele>
        <time>2014-08-03T07:59:16Z</time>
      </trkpt>
      <trkpt lat="47.23833" lon="-1.61908">
        <ele>39</ele>
        <time>2014-08-03T07:59:38Z</time>
      </trkpt>
      <trkpt lat="47.23843" lon="-1.61907">
        <ele>39</ele>
        <time>2014-08-03T07:59:59Z</time>
      </trkpt>
      <trkpt lat="47.23849" lon="-1.61918">
        <ele>39</ele>
        <time>2014-08-03T08:00:29Z</time>
      </trkpt>
      <trkpt lat="47.23856" lon="-1.61927">
        <ele>39</ele>
        <time>2014-08-03T08:00:34Z</time>
      </trkpt>
      <trkpt lat="47.23864" lon="-1.61936">
        <ele>39</ele>
        <time>2014-08-03T08:00:40Z</time>
      </trkpt>
      <trkpt lat="47.23875" lon="-1.6194">
        <ele>39</ele>
        <time>2014-08-03T08:00:44Z</time>
      </trkpt>
      <trkpt lat="47.23886" lon="-1.61944">
        <ele>39</ele>
        <time>2014-08-03T08:00:47Z</time>
      </trkpt>
      <trkpt lat="47.23898" lon="-1.61944">
        <ele>39</ele>
        <time>2014-08-03T08:00:51Z</time>
      </trkpt>
      <trkpt lat="47.23908" lon="-1.61944">
        <ele>39</ele>
        <time>2014-08-03T08:00:54Z</time>
      </trkpt>
      <trkpt lat="47.23919" lon="-1.61943">
        <ele>39</ele>
        <time>2014-08-03T08:00:57Z</time>
      </trkpt>
      <trkpt lat="47.23929" lon="-1.61944">
        <ele>39</ele>
        <time>2014-08-03T08:01:00Z</time>
      </trkpt>
      <trkpt lat="47.2394" lon="-1.61949">
        <ele>39</ele>
        <time>2014-08-03T08:01:03Z</time>
      </trkpt>
      <trkpt lat="47.23951" lon="-1.61957">
        <ele>39</ele>
        <time>2014-08-03T08:01:06Z</time>
      </trkpt>
      <trkpt lat="47.23963" lon="-1.61967">
        <ele>39</ele>
        <time>2014-08-03T08:01:09Z</time>
      </trkpt>
      <trkpt lat="47.23972" lon="-1.61975">
        <ele>39</ele>
        <time>2014-08-03T08:01:11Z</time>
      </trkpt>
      <trkpt lat="47.2398" lon="-1.61982">
        <ele>39</ele>
        <time>2014-08-03T08:01:13Z</time>
      </trkpt>
      <trkpt lat="47.23987" lon="-1.61992">
        <ele>39</ele>
        <time>2014-08-03T08:01:15Z</time>
      </trkpt>
      <trkpt lat="47.23998" lon="-1.62009">
        <ele>37.4</ele>
        <time>2014-08-03T08:01:18Z</time>
      </trkpt>
      <trkpt lat="47.24005" lon="-1.62022">
        <ele>36</ele>
        <time>2014-08-03T08:01:20Z</time>
      </trkpt>
      <trkpt lat="47.24012" lon="-1.62036">
        <ele>35.4</ele>
        <time>2014-08-03T08:01:22Z</time>
      </trkpt>
      <trkpt lat="47.24015" lon="-1.62052">
        <ele>34.2</ele>
        <time>2014-08-03T08:01:24Z</time>
      </trkpt>
      <trkpt lat="47.24016" lon="-1.62068">
        <ele>32.3</ele>
        <time>2014-08-03T08:01:26Z</time>
      </trkpt>
      <trkpt lat="47.24017" lon="-1.62085">
        <ele>31</ele>
        <time>2014-08-03T08:01:28Z</time>
      </trkpt>
      <trkpt lat="47.24018" lon="-1.62101">
        <ele>31.3</ele>
        <time>2014-08-03T08:01:30Z</time>
      </trkpt>
      <trkpt lat="47.24017" lon="-1.62118">
        <ele>31</ele>
        <time>2014-08-03T08:01:32Z</time>
      </trkpt>
      <trkpt lat="47.24017" lon="-1.62135">
        <ele>30.9</ele>
        <time>2014-08-03T08:01:35Z</time>
      </trkpt>
      <trkpt lat="47.24018" lon="-1.62149">
        <ele>31.3</ele>
        <time>2014-08-03T08:01:38Z</time>
      </trkpt>
      <trkpt lat="47.24022" lon="-1.62163">
        <ele>33</ele>
        <time>2014-08-03T08:01:42Z</time>
      </trkpt>
      <trkpt lat="47.2402" lon="-1.62178">
        <ele>32.2</ele>
        <time>2014-08-03T08:01:46Z</time>
      </trkpt>
      <trkpt lat="47.24019" lon="-1.62193">
        <ele>31.6</ele>
        <time>2014-08-03T08:01:49Z</time>
      </trkpt>
      <trkpt lat="47.24018" lon="-1.6221">
        <ele>31.2</ele>
        <time>2014-08-03T08:01:52Z</time>
      </trkpt>
      <trkpt lat="47.24016" lon="-1.62223">
        <ele>30.6</ele>
        <time>2014-08-03T08:01:54Z</time>
      </trkpt>
      <trkpt lat="47.24016" lon="-1.62238">
        <ele>30.5</ele>
        <time>2014-08-03T08:01:56Z</time>
      </trkpt>
      <trkpt lat="47.24017" lon="-1.62254">
        <ele>30.9</ele>
        <time>2014-08-03T08:01:59Z</time>
      </trkpt>
      <trkpt lat="47.24018" lon="-1.62271">
        <ele>31.4</ele>
        <time>2014-08-03T08:02:02Z</time>
      </trkpt>
      <trkpt lat="47.2402" lon="-1.62285">
        <ele>32.2</ele>
        <time>2014-08-03T08:02:05Z</time>
      </trkpt>
      <trkpt lat="47.24019" lon="-1.62299">
        <ele>31.8</ele>
        <time>2014-08-03T08:02:07Z</time>
      </trkpt>
      <trkpt lat="47.24017" lon="-1.62316">
        <ele>31</ele>
        <time>2014-08-03T08:02:09Z</time>
      </trkpt>
      <trkpt lat="47.24015" lon="-1.62333">
        <ele>30</ele>
        <time>2014-08-03T08:02:11Z</time>
      </trkpt>
      <trkpt lat="47.24014" lon="-1.62348">
        <ele>29.8</ele>
        <time>2014-08-03T08:02:13Z</time>
      </trkpt>
      <trkpt lat="47.24015" lon="-1.62362">
        <ele>30.1</ele>
        <time>2014-08-03T08:02:15Z</time>
      </trkpt>
      <trkpt lat="47.24015" lon="-1.62378">
        <ele>30.2</ele>
        <time>2014-08-03T08:02:18Z</time>
      </trkpt>
      <trkpt lat="47.24017" lon="-1.62396">
        <ele>30.9</ele>
        <time>2014-08-03T08:02:21Z</time>
      </trkpt>
      <trkpt lat="47.24017" lon="-1.62414">
        <ele>31</ele>
        <time>2014-08-03T08:02:24Z</time>
      </trkpt>
      <trkpt lat="47.24014" lon="-1.62428">
        <ele>29.6</ele>
        <time>2014-08-03T08:02:27Z</time>
      </trkpt>
      <trkpt lat="47.24012" lon="-1.62444">
        <ele>29</ele>
        <time>2014-08-03T08:02:30Z</time>
      </trkpt>
      <trkpt lat="47.24019" lon="-1.62455">
        <ele>31.7</ele>
        <time>2014-08-03T08:02:33Z</time>
      </trkpt>
      <trkpt lat="47.24026" lon="-1.62465">
        <ele>34.8</ele>
        <time>2014-08-03T08:02:36Z</time>
      </trkpt>
      <trkpt lat="47.24034" lon="-1.62476">
        <ele>38.1</ele>
        <time>2014-08-03T08:02:39Z</time>
      </trkpt>
      <trkpt lat="47.24042" lon="-1.62486">
        <ele>41.3</ele>
        <time>2014-08-03T08:02:41Z</time>
      </trkpt>
      <trkpt lat="47.24051" lon="-1.62497">
        <ele>44.7</ele>
        <time>2014-08-03T08:02:43Z</time>
      </trkpt>
      <trkpt lat="47.24056" lon="-1.62509">
        <ele>46.7</ele>
        <time>2014-08-03T08:02:46Z</time>
      </trkpt>
      <trkpt lat="47.24065" lon="-1.6252">
        <ele>50.6</ele>
        <time>2014-08-03T08:02:50Z</time>
      </trkpt>
      <trkpt lat="47.24074" lon="-1.6253">
        <ele>54.4</ele>
        <time>2014-08-03T08:02:53Z</time>
      </trkpt>
      <trkpt lat="47.24086" lon="-1.62534">
        <ele>58</ele>
        <time>2014-08-03T08:02:57Z</time>
      </trkpt>
      <trkpt lat="47.24095" lon="-1.62543">
        <ele>58</ele>
        <time>2014-08-03T08:03:01Z</time>
      </trkpt>
      <trkpt lat="47.24099" lon="-1.62555">
        <ele>58</ele>
        <time>2014-08-03T08:03:05Z</time>
      </trkpt>
      <trkpt lat="47.24103" lon="-1.62573">
        <ele>58</ele>
        <time>2014-08-03T08:03:08Z</time>
      </trkpt>
      <trkpt lat="47.24099" lon="-1.62585">
        <ele>58</ele>
        <time>2014-08-03T08:03:10Z</time>
      </trkpt>
      <trkpt lat="47.24093" lon="-1.62599">
        <ele>58</ele>
        <time>2014-08-03T08:03:13Z</time>
      </trkpt>
      <trkpt lat="47.24088" lon="-1.62612">
        <ele>58</ele>
        <time>2014-08-03T08:03:16Z</time>
      </trkpt>
      <trkpt lat="47.24082" lon="-1.62625">
        <ele>57.3</ele>
        <time>2014-08-03T08:03:20Z</time>
      </trkpt>
      <trkpt lat="47.24075" lon="-1.62636">
        <ele>54.7</ele>
        <time>2014-08-03T08:03:23Z</time>
      </trkpt>
      <trkpt lat="47.2407" lon="-1.62647">
        <ele>52.7</ele>
        <time>2014-08-03T08:03:26Z</time>
      </trkpt>
      <trkpt lat="47.24063" lon="-1.6266">
        <ele>49.8</ele>
        <time>2014-08-03T08:03:30Z</time>
      </trkpt>
      <trkpt lat="47.24061" lon="-1.62674">
        <ele>48.9</ele>
        <time>2014-08-03T08:03:35Z</time>
      </trkpt>
      <trkpt lat="47.24064" lon="-1.62687">
        <ele>50.4</ele>
        <time>2014-08-03T08:03:41Z</time>
      </trkpt>
      <trkpt lat="47.24069" lon="-1.62699">
        <ele>52.7</ele>
        <time>2014-08-03T08:03:46Z</time>
      </trkpt>
      <trkpt lat="47.24078" lon="-1.62705">
        <ele>55.9</ele>
        <time>2014-08-03T08:03:52Z</time>
      </trkpt>
      <trkpt lat="47.24086" lon="-1.62711">
        <ele>58</ele>
        <time>2014-08-03T08:03:59Z</time>
      </trkpt>
      <trkpt lat="47.24094" lon="-1.62719">
        <ele>58</ele>
        <time>2014-08-03T08:04:05Z</time>
      </trkpt>
      <trkpt lat="47.24101" lon="-1.62729">
        <ele>58</ele>
        <time>2014-08-03T08:04:09Z</time>
      </trkpt>
      <trkpt lat="47.24104" lon="-1.62742">
        <ele>58</ele>
        <time>2014-08-03T08:04:12Z</time>
      </trkpt>
      <trkpt lat="47.24107" lon="-1.62754">
        <ele>58</ele>
        <time>2014-08-03T08:04:17Z</time>
      </trkpt>
      <trkpt lat="47.24108" lon="-1.62768">
        <ele>58</ele>
        <time>2014-08-03T08:04:33Z</time>
      </trkpt>
      <trkpt lat="47.24116" lon="-1.62779">
        <ele>58</ele>
        <time>2014-08-03T08:05:40Z</time>
      </trkpt>
      <trkpt lat="47.24121" lon="-1.6279">
        <ele>58</ele>
        <time>2014-08-03T08:05:44Z</time>
      </trkpt>
      <trkpt lat="47.24126" lon="-1.62802">
        <ele>58</ele>
        <time>2014-08-03T08:05:47Z</time>
      </trkpt>
      <trkpt lat="47.24133" lon="-1.62816">
        <ele>58</ele>
        <time>2014-08-03T08:05:50Z</time>
      </trkpt>
      <trkpt lat="47.2414" lon="-1.62825">
        <ele>58</ele>
        <time>2014-08-03T08:05:52Z</time>
      </trkpt>
      <trkpt lat="47.24147" lon="-1.62836">
        <ele>58</ele>
        <time>2014-08-03T08:05:55Z</time>
      </trkpt>
      <trkpt lat="47.24153" lon="-1.62848">
        <ele>58</ele>
        <time>2014-08-03T08:05:58Z</time>
      </trkpt>
      <trkpt lat="47.24159" lon="-1.62862">
        <ele>58</ele>
        <time>2014-08-03T08:06:02Z</time>
      </trkpt>
      <trkpt lat="47.24165" lon="-1.62876">
        <ele>58</ele>
        <time>2014-08-03T08:06:05Z</time>
      </trkpt>
      <trkpt lat="47.24171" lon="-1.62891">
        <ele>58</ele>
        <time>2014-08-03T08:06:08Z</time>
      </trkpt>
      <trkpt lat="47.24176" lon="-1.62902">
        <ele>58</ele>
        <time>2014-08-03T08:06:10Z</time>
      </trkpt>
      <trkpt lat="47.24182" lon="-1.62914">
        <ele>58</ele>
        <time>2014-08-03T08:06:13Z</time>
      </trkpt>
      <trkpt lat="47.24186" lon="-1.62926">
        <ele>58</ele>
        <time>2014-08-03T08:06:16Z</time>
      </trkpt>
      <trkpt lat="47.24189" lon="-1.6294">
        <ele>58</ele>
        <time>2014-08-03T08:06:19Z</time>
      </trkpt>
      <trkpt lat="47.24193" lon="-1.62954">
        <ele>58</ele>
        <time>2014-08-03T08:06:22Z</time>
      </trkpt>
      <trkpt lat="47.24197" lon="-1.62967">
        <ele>58</ele>
        <time>2014-08-03T08:06:25Z</time>
      </trkpt>
      <trkpt lat="47.24203" lon="-1.62983">
        <ele>58</ele>
        <time>2014-08-03T08:06:29Z</time>
      </trkpt>
      <trkpt lat="47.24206" lon="-1.62996">
        <ele>58</ele>
        <time>2014-08-03T08:06:32Z</time>
      </trkpt>
      <trkpt lat="47.24208" lon="-1.6301">
        <ele>58</ele>
        <time>2014-08-03T08:06:35Z</time>
      </trkpt>
      <trkpt lat="47.24209" lon="-1.63025">
        <ele>58</ele>
        <time>2014-08-03T08:06:38Z</time>
      </trkpt>
      <trkpt lat="47.24211" lon="-1.63042">
        <ele>58</ele>
        <time>2014-08-03T08:06:41Z</time>
      </trkpt>
      <trkpt lat="47.24213" lon="-1.6306">
        <ele>58</ele>
        <time>2014-08-03T08:06:44Z</time>
      </trkpt>
      <trkpt lat="47.24215" lon="-1.63074">
        <ele>58</ele>
        <time>2014-08-03T08:06:46Z</time>
      </trkpt>
      <trkpt lat="47.24218" lon="-1.63086">
        <ele>58</ele>
        <time>2014-08-03T08:06:48Z</time>
      </trkpt>
      <trkpt lat="47.24223" lon="-1.63101">
        <ele>58</ele>
        <time>2014-08-03T08:06:50Z</time>
      </trkpt>
      <trkpt lat="47.24228" lon="-1.63118">
        <ele>58</ele>
        <time>2014-08-03T08:06:52Z</time>
      </trkpt>
      <trkpt lat="47.24234" lon="-1.63136">
        <ele>58</ele>
        <time>2014-08-03T08:06:55Z</time>
      </trkpt>
      <trkpt lat="47.2424" lon="-1.63151">
        <ele>58</ele>
        <time>2014-08-03T08:06:58Z</time>
      </trkpt>
      <trkpt lat="47.24248" lon="-1.63164">
        <ele>58</ele>
        <time>2014-08-03T08:07:01Z</time>
      </trkpt>
      <trkpt lat="47.24257" lon="-1.63176">
        <ele>58</ele>
        <time>2014-08-03T08:07:04Z</time>
      </trkpt>
      <trkpt lat="47.24264" lon="-1.63186">
        <ele>58</ele>
        <time>2014-08-03T08:07:07Z</time>
      </trkpt>
      <trkpt lat="47.24274" lon="-1.63194">
        <ele>58</ele>
        <time>2014-08-03T08:07:10Z</time>
      </trkpt>
      <trkpt lat="47.24284" lon="-1.63206">
        <ele>58</ele>
        <time>2014-08-03T08:07:13Z</time>
      </trkpt>
      <trkpt lat="47.24293" lon="-1.63216">
        <ele>58</ele>
        <time>2014-08-03T08:07:16Z</time>
      </trkpt>
      <trkpt lat="47.24302" lon="-1.63229">
        <ele>58</ele>
        <time>2014-08-03T08:07:19Z</time>
      </trkpt>
      <trkpt lat="47.24309" lon="-1.63238">
        <ele>58</ele>
        <time>2014-08-03T08:07:21Z</time>
      </trkpt>
      <trkpt lat="47.24316" lon="-1.63247">
        <ele>58</ele>
        <time>2014-08-03T08:07:23Z</time>
      </trkpt>
      <trkpt lat="47.24324" lon="-1.63257">
        <ele>58</ele>
        <time>2014-08-03T08:07:26Z</time>
      </trkpt>
      <trkpt lat="47.24332" lon="-1.63267">
        <ele>58</ele>
        <time>2014-08-03T08:07:29Z</time>
      </trkpt>
      <trkpt lat="47.24343" lon="-1.63276">
        <ele>58</ele>
        <time>2014-08-03T08:07:32Z</time>
      </trkpt>
      <trkpt lat="47.24354" lon="-1.63287">
        <ele>58</ele>
        <time>2014-08-03T08:07:35Z</time>
      </trkpt>
      <trkpt lat="47.24362" lon="-1.63293">
        <ele>58</ele>
        <time>2014-08-03T08:07:37Z</time>
      </trkpt>
      <trkpt lat="47.24373" lon="-1.63306">
        <ele>58</ele>
        <time>2014-08-03T08:07:40Z</time>
      </trkpt>
      <trkpt lat="47.24379" lon="-1.6332">
        <ele>58</ele>
        <time>2014-08-03T08:07:42Z</time>
      </trkpt>
      <trkpt lat="47.24382" lon="-1.63334">
        <ele>57.7</ele>
        <time>2014-08-03T08:07:44Z</time>
      </trkpt>
      <trkpt lat="47.24381" lon="-1.6335">
        <ele>54.1</ele>
        <time>2014-08-03T08:07:46Z</time>
      </trkpt>
      <trkpt lat="47.24379" lon="-1.63365">
        <ele>50.9</ele>
        <time>2014-08-03T08:07:48Z</time>
      </trkpt>
      <trkpt lat="47.24376" lon="-1.63378">
        <ele>47.9</ele>
        <time>2014-08-03T08:07:50Z</time>
      </trkpt>
      <trkpt lat="47.24371" lon="-1.63395">
        <ele>43.7</ele>
        <time>2014-08-03T08:07:53Z</time>
      </trkpt>
      <trkpt lat="47.24376" lon="-1.63408">
        <ele>40.8</ele>
        <time>2014-08-03T08:07:59Z</time>
      </trkpt>
      <trkpt lat="47.24384" lon="-1.63415">
        <ele>39.3</ele>
        <time>2014-08-03T08:08:04Z</time>
      </trkpt>
      <trkpt lat="47.24381" lon="-1.63428">
        <ele>39</ele>
        <time>2014-08-03T08:08:21Z</time>
      </trkpt>
      <trkpt lat="47.24386" lon="-1.63442">
        <ele>39</ele>
        <time>2014-08-03T08:08:26Z</time>
      </trkpt>
      <trkpt lat="47.24391" lon="-1.63455">
        <ele>39</ele>
        <time>2014-08-03T08:08:30Z</time>
      </trkpt>
      <trkpt lat="47.24395" lon="-1.63469">
        <ele>39</ele>
        <time>2014-08-03T08:08:34Z</time>
      </trkpt>
      <trkpt lat="47.24397" lon="-1.63483">
        <ele>39</ele>
        <time>2014-08-03T08:08:38Z</time>
      </trkpt>
      <trkpt lat="47.24397" lon="-1.63499">
        <ele>39</ele>
        <time>2014-08-03T08:08:42Z</time>
      </trkpt>
      <trkpt lat="47.24395" lon="-1.63516">
        <ele>39</ele>
        <time>2014-08-03T08:08:46Z</time>
      </trkpt>
      <trkpt lat="47.2439" lon="-1.63528">
        <ele>39</ele>
        <time>2014-08-03T08:08:49Z</time>
      </trkpt>
      <trkpt lat="47.24387" lon="-1.63543">
        <ele>39</ele>
        <time>2014-08-03T08:08:51Z</time>
      </trkpt>
      <trkpt lat="47.24384" lon="-1.63558">
        <ele>39</ele>
        <time>2014-08-03T08:08:53Z</time>
      </trkpt>
      <trkpt lat="47.24384" lon="-1.63572">
        <ele>39</ele>
        <time>2014-08-03T08:08:55Z</time>
      </trkpt>
      <trkpt lat="47.24387" lon="-1.63587">
        <ele>39</ele>
        <time>2014-08-03T08:08:58Z</time>
      </trkpt>
      <trkpt lat="47.24392" lon="-1.63603">
        <ele>39</ele>
        <time>2014-08-03T08:09:02Z</time>
      </trkpt>
      <trkpt lat="47.24396" lon="-1.63619">
        <ele>39</ele>
        <time>2014-08-03T08:09:05Z</time>
      </trkpt>
      <trkpt lat="47.24399" lon="-1.63636">
        <ele>39</ele>
        <time>2014-08-03T08:09:09Z</time>
      </trkpt>
      <trkpt lat="47.24399" lon="-1.63653">
        <ele>39</ele>
        <time>2014-08-03T08:09:12Z</time>
      </trkpt>
      <trkpt lat="47.24399" lon="-1.63669">
        <ele>39</ele>
        <time>2014-08-03T08:09:15Z</time>
      </trkpt>
      <trkpt lat="47.24398" lon="-1.63682">
        <ele>39</ele>
        <time>2014-08-03T08:09:18Z</time>
      </trkpt>
      <trkpt lat="47.24396" lon="-1.637">
        <ele>39</ele>
        <time>2014-08-03T08:09:21Z</time>
      </trkpt>
      <trkpt lat="47.24393" lon="-1.63717">
        <ele>39</ele>
        <time>2014-08-03T08:09:24Z</time>
      </trkpt>
      <trkpt lat="47.24388" lon="-1.63734">
        <ele>39</ele>
        <time>2014-08-03T08:09:27Z</time>
      </trkpt>
      <trkpt lat="47.24389" lon="-1.63748">
        <ele>39</ele>
        <time>2014-08-03T08:09:30Z</time>
      </trkpt>
      <trkpt lat="47.24397" lon="-1.63759">
        <ele>39</ele>
        <time>2014-08-03T08:09:34Z</time>
      </trkpt>
      <trkpt lat="47.24405" lon="-1.63752">
        <ele>39</ele>
        <time>2014-08-03T08:09:38Z</time>
      </trkpt>
      <trkpt lat="47.2441" lon="-1.63739">
        <ele>39</ele>
        <time>2014-08-03T08:09:42Z</time>
      </trkpt>
      <trkpt lat="47.24419" lon="-1.63737">
        <ele>39</ele>
        <time>2014-08-03T08:09:47Z</time>
      </trkpt>
      <trkpt lat="47.24429" lon="-1.6374">
        <ele>39</ele>
        <time>2014-08-03T08:09:51Z</time>
      </trkpt>
      <trkpt lat="47.2444" lon="-1.63745">
        <ele>39</ele>
        <time>2014-08-03T08:09:55Z</time>
      </trkpt>
      <trkpt lat="47.2445" lon="-1.63749">
        <ele>39</ele>
        <time>2014-08-03T08:09:59Z</time>
      </trkpt>
      <trkpt lat="47.24458" lon="-1.63753">
        <ele>39</ele>
        <time>2014-08-03T08:10:03Z</time>
      </trkpt>
      <trkpt lat="47.24467" lon="-1.63763">
        <ele>39</ele>
        <time>2014-08-03T08:10:07Z</time>
      </trkpt>
      <trkpt lat="47.24475" lon="-1.63772">
        <ele>39</ele>
        <time>2014-08-03T08:10:12Z</time>
      </trkpt>
      <trkpt lat="47.24485" lon="-1.63778">
        <ele>39</ele>
        <time>2014-08-03T08:10:17Z</time>
      </trkpt>
      <trkpt lat="47.24495" lon="-1.63785">
        <ele>39</ele>
        <time>2014-08-03T08:10:21Z</time>
      </trkpt>
      <trkpt lat="47.24505" lon="-1.63791">
        <ele>39</ele>
        <time>2014-08-03T08:10:25Z</time>
      </trkpt>
      <trkpt lat="47.24514" lon="-1.63796">
        <ele>39</ele>
        <time>2014-08-03T08:10:29Z</time>
      </trkpt>
      <trkpt lat="47.24523" lon="-1.638">
        <ele>39</ele>
        <time>2014-08-03T08:10:32Z</time>
      </trkpt>
      <trkpt lat="47.24532" lon="-1.63802">
        <ele>39</ele>
        <time>2014-08-03T08:10:35Z</time>
      </trkpt>
      <trkpt lat="47.24543" lon="-1.63804">
        <ele>39</ele>
        <time>2014-08-03T08:10:39Z</time>
      </trkpt>
      <trkpt lat="47.24553" lon="-1.63803">
        <ele>39</ele>
        <time>2014-08-03T08:10:43Z</time>
      </trkpt>
      <trkpt lat="47.24563" lon="-1.63798">
        <ele>39</ele>
        <time>2014-08-03T08:10:47Z</time>
      </trkpt>
      <trkpt lat="47.24572" lon="-1.63792">
        <ele>39</ele>
        <time>2014-08-03T08:10:51Z</time>
      </trkpt>
      <trkpt lat="47.2458" lon="-1.63786">
        <ele>39</ele>
        <time>2014-08-03T08:10:55Z</time>
      </trkpt>
      <trkpt lat="47.24591" lon="-1.63777">
        <ele>39</ele>
        <time>2014-08-03T08:10:59Z</time>
      </trkpt>
      <trkpt lat="47.24601" lon="-1.63771">
        <ele>39</ele>
        <time>2014-08-03T08:11:03Z</time>
      </trkpt>
      <trkpt lat="47.2461" lon="-1.63764">
        <ele>39</ele>
        <time>2014-08-03T08:11:06Z</time>
      </trkpt>
      <trkpt lat="47.24621" lon="-1.6376">
        <ele>39</ele>
        <time>2014-08-03T08:11:09Z</time>
      </trkpt>
      <trkpt lat="47.24632" lon="-1.63764">
        <ele>39</ele>
        <time>2014-08-03T08:11:13Z</time>
      </trkpt>
      <trkpt lat="47.24642" lon="-1.63772">
        <ele>39</ele>
        <time>2014-08-03T08:11:18Z</time>
      </trkpt>
      <trkpt lat="47.2465" lon="-1.63779">
        <ele>39</ele>
        <time>2014-08-03T08:11:21Z</time>
      </trkpt>
      <trkpt lat="47.24659" lon="-1.63787">
        <ele>39</ele>
        <time>2014-08-03T08:11:25Z</time>
      </trkpt>
      <trkpt lat="47.24667" lon="-1.63794">
        <ele>39.2</ele>
        <time>2014-08-03T08:11:28Z</time>
      </trkpt>
      <trkpt lat="47.24676" lon="-1.638">
        <ele>40.8</ele>
        <time>2014-08-03T08:11:33Z</time>
      </trkpt>
      <trkpt lat="47.24686" lon="-1.63797">
        <ele>42.7</ele>
        <time>2014-08-03T08:11:37Z</time>
      </trkpt>
      <trkpt lat="47.24695" lon="-1.63789">
        <ele>44.5</ele>
        <time>2014-08-03T08:11:42Z</time>
      </trkpt>
      <trkpt lat="47.24703" lon="-1.63779">
        <ele>46</ele>
        <time>2014-08-03T08:11:47Z</time>
      </trkpt>
      <trkpt lat="47.2471" lon="-1.63768">
        <ele>47.4</ele>
        <time>2014-08-03T08:11:52Z</time>
      </trkpt>
      <trkpt lat="47.24716" lon="-1.63757">
        <ele>48.4</ele>
        <time>2014-08-03T08:11:58Z</time>
      </trkpt>
      <trkpt lat="47.24721" lon="-1.63743">
        <ele>49.4</ele>
        <time>2014-08-03T08:12:04Z</time>
      </trkpt>
      <trkpt lat="47.24726" lon="-1.6373">
        <ele>50.4</ele>
        <time>2014-08-03T08:12:09Z</time>
      </trkpt>
      <trkpt lat="47.24732" lon="-1.63718">
        <ele>51.6</ele>
        <time>2014-08-03T08:12:15Z</time>
      </trkpt>
      <trkpt lat="47.24742" lon="-1.63713">
        <ele>53.4</ele>
        <time>2014-08-03T08:12:21Z</time>
      </trkpt>
      <trkpt lat="47.24751" lon="-1.63713">
        <ele>55</ele>
        <time>2014-08-03T08:12:26Z</time>
      </trkpt>
      <trkpt lat="47.24761" lon="-1.63715">
        <ele>55</ele>
        <time>2014-08-03T08:12:33Z</time>
      </trkpt>
      <trkpt lat="47.2477" lon="-1.63719">
        <ele>55</ele>
        <time>2014-08-03T08:12:38Z</time>
      </trkpt>
      <trkpt lat="47.24781" lon="-1.63725">
        <ele>55</ele>
        <time>2014-08-03T08:12:43Z</time>
      </trkpt>
      <trkpt lat="47.24789" lon="-1.63728">
        <ele>55</ele>
        <time>2014-08-03T08:12:48Z</time>
      </trkpt>
      <trkpt lat="47.24798" lon="-1.63731">
        <ele>55</ele>
        <time>2014-08-03T08:12:53Z</time>
      </trkpt>
      <trkpt lat="47.24808" lon="-1.63736">
        <ele>55</ele>
        <time>2014-08-03T08:12:58Z</time>
      </trkpt>
      <trkpt lat="47.24817" lon="-1.6374">
        <ele>55</ele>
        <time>2014-08-03T08:13:02Z</time>
      </trkpt>
      <trkpt lat="47.24827" lon="-1.63744">
        <ele>55</ele>
        <time>2014-08-03T08:13:07Z</time>
      </trkpt>
      <trkpt lat="47.24837" lon="-1.63748">
        <ele>55</ele>
        <time>2014-08-03T08:13:13Z</time>
      </trkpt>
      <trkpt lat="47.24847" lon="-1.63751">
        <ele>55</ele>
        <time>2014-08-03T08:13:18Z</time>
      </trkpt>
      <trkpt lat="47.24856" lon="-1.63752">
        <ele>55</ele>
        <time>2014-08-03T08:13:24Z</time>
      </trkpt>
      <trkpt lat="47.24867" lon="-1.63756">
        <ele>55</ele>
        <time>2014-08-03T08:13:28Z</time>
      </trkpt>
      <trkpt lat="47.24878" lon="-1.6376">
        <ele>55</ele>
        <time>2014-08-03T08:13:31Z</time>
      </trkpt>
      <trkpt lat="47.24888" lon="-1.63764">
        <ele>55</ele>
        <time>2014-08-03T08:13:34Z</time>
      </trkpt>
      <trkpt lat="47.24898" lon="-1.6377">
        <ele>55</ele>
        <time>2014-08-03T08:13:37Z</time>
      </trkpt>
      <trkpt lat="47.24907" lon="-1.63777">
        <ele>55</ele>
        <time>2014-08-03T08:13:41Z</time>
      </trkpt>
      <trkpt lat="47.24917" lon="-1.63785">
        <ele>55</ele>
        <time>2014-08-03T08:13:45Z</time>
      </trkpt>
      <trkpt lat="47.24927" lon="-1.6379">
        <ele>55</ele>
        <time>2014-08-03T08:13:49Z</time>
      </trkpt>
      <trkpt lat="47.24938" lon="-1.63796">
        <ele>55</ele>
        <time>2014-08-03T08:13:52Z</time>
      </trkpt>
      <trkpt lat="47.24946" lon="-1.63806">
        <ele>55</ele>
        <time>2014-08-03T08:13:55Z</time>
      </trkpt>
      <trkpt lat="47.24951" lon="-1.63818">
        <ele>55</ele>
        <time>2014-08-03T08:13:57Z</time>
      </trkpt>
      <trkpt lat="47.24955" lon="-1.6383">
        <ele>55</ele>
        <time>2014-08-03T08:13:59Z</time>
      </trkpt>
      <trkpt lat="47.2496" lon="-1.63842">
        <ele>55</ele>
        <time>2014-08-03T08:14:01Z</time>
      </trkpt>
      <trkpt lat="47.24966" lon="-1.6386">
        <ele>55</ele>
        <time>2014-08-03T08:14:04Z</time>
      </trkpt>
      <trkpt lat="47.24971" lon="-1.63872">
        <ele>55</ele>
        <time>2014-08-03T08:14:06Z</time>
      </trkpt>
      <trkpt lat="47.24975" lon="-1.63886">
        <ele>55</ele>
        <time>2014-08-03T08:14:08Z</time>
      </trkpt>
      <trkpt lat="47.2498" lon="-1.639">
        <ele>55</ele>
        <time>2014-08-03T08:14:10Z</time>
      </trkpt>
      <trkpt lat="47.24984" lon="-1.63914">
        <ele>55</ele>
        <time>2014-08-03T08:14:12Z</time>
      </trkpt>
      <trkpt lat="47.2499" lon="-1.63925">
        <ele>55</ele>
        <time>2014-08-03T08:14:14Z</time>
      </trkpt>
      <trkpt lat="47.24998" lon="-1.63938">
        <ele>55</ele>
        <time>2014-08-03T08:14:17Z</time>
      </trkpt>
      <trkpt lat="47.25007" lon="-1.63947">
        <ele>55</ele>
        <time>2014-08-03T08:14:20Z</time>
      </trkpt>
      <trkpt lat="47.25017" lon="-1.63942">
        <ele>55</ele>
        <time>2014-08-03T08:14:24Z</time>
      </trkpt>
      <trkpt lat="47.25029" lon="-1.63931">
        <ele>55</ele>
        <time>2014-08-03T08:14:27Z</time>
      </trkpt>
      <trkpt lat="47.25042" lon="-1.63925">
        <ele>55</ele>
        <time>2014-08-03T08:14:30Z</time>
      </trkpt>
      <trkpt lat="47.25052" lon="-1.63918">
        <ele>55</ele>
        <time>2014-08-03T08:14:33Z</time>
      </trkpt>
      <trkpt lat="47.2506" lon="-1.63912">
        <ele>55</ele>
        <time>2014-08-03T08:14:36Z</time>
      </trkpt>
      <trkpt lat="47.2507" lon="-1.63904">
        <ele>55</ele>
        <time>2014-08-03T08:14:39Z</time>
      </trkpt>
      <trkpt lat="47.25077" lon="-1.63895">
        <ele>55</ele>
        <time>2014-08-03T08:14:42Z</time>
      </trkpt>
      <trkpt lat="47.25084" lon="-1.63887">
        <ele>55</ele>
        <time>2014-08-03T08:14:44Z</time>
      </trkpt>
      <trkpt lat="47.25092" lon="-1.63879">
        <ele>55</ele>
        <time>2014-08-03T08:14:46Z</time>
      </trkpt>
      <trkpt lat="47.25102" lon="-1.6387">
        <ele>55</ele>
        <time>2014-08-03T08:14:49Z</time>
      </trkpt>
      <trkpt lat="47.25109" lon="-1.6386">
        <ele>55</ele>
        <time>2014-08-03T08:14:51Z</time>
      </trkpt>
      <trkpt lat="47.25115" lon="-1.63846">
        <ele>55</ele>
        <time>2014-08-03T08:14:54Z</time>
      </trkpt>
      <trkpt lat="47.25122" lon="-1.63829">
        <ele>55</ele>
        <time>2014-08-03T08:14:57Z</time>
      </trkpt>
      <trkpt lat="47.25131" lon="-1.63816">
        <ele>55</ele>
        <time>2014-08-03T08:15:00Z</time>
      </trkpt>
      <trkpt lat="47.25139" lon="-1.63808">
        <ele>55</ele>
        <time>2014-08-03T08:15:02Z</time>
      </trkpt>
      <trkpt lat="47.25149" lon="-1.63802">
        <ele>55</ele>
        <time>2014-08-03T08:15:05Z</time>
      </trkpt>
      <trkpt lat="47.25161" lon="-1.63795">
        <ele>55</ele>
        <time>2014-08-03T08:15:09Z</time>
      </trkpt>
      <trkpt lat="47.25173" lon="-1.6379">
        <ele>55</ele>
        <time>2014-08-03T08:15:12Z</time>
      </trkpt>
      <trkpt lat="47.25182" lon="-1.63791">
        <ele>55</ele>
        <time>2014-08-03T08:15:15Z</time>
      </trkpt>
      <trkpt lat="47.25192" lon="-1.63796">
        <ele>55</ele>
        <time>2014-08-03T08:15:18Z</time>
      </trkpt>
      <trkpt lat="47.25204" lon="-1.63805">
        <ele>55</ele>
        <time>2014-08-03T08:15:21Z</time>
      </trkpt>
      <trkpt lat="47.25213" lon="-1.63811">
        <ele>55</ele>
        <time>2014-08-03T08:15:23Z</time>
      </trkpt>
      <trkpt lat="47.25225" lon="-1.63816">
        <ele>55</ele>
        <time>2014-08-03T08:15:26Z</time>
      </trkpt>
      <trkpt lat="47.25238" lon="-1.63814">
        <ele>55</ele>
        <time>2014-08-03T08:15:29Z</time>
      </trkpt>
      <trkpt lat="47.25251" lon="-1.63813">
        <ele>55</ele>
        <time>2014-08-03T08:15:32Z</time>
      </trkpt>
      <trkpt lat="47.25263" lon="-1.63808">
        <ele>55</ele>
        <time>2014-08-03T08:15:35Z</time>
      </trkpt>
      <trkpt lat="47.25275" lon="-1.638">
        <ele>55</ele>
        <time>2014-08-03T08:15:38Z</time>
      </trkpt>
      <trkpt lat="47.25282" lon="-1.6379">
        <ele>55</ele>
        <time>2014-08-03T08:15:40Z</time>
      </trkpt>
      <trkpt lat="47.25289" lon="-1.63778">
        <ele>55</ele>
        <time>2014-08-03T08:15:43Z</time>
      </trkpt>
      <trkpt lat="47.25292" lon="-1.63765">
        <ele>55</ele>
        <time>2014-08-03T08:15:46Z</time>
      </trkpt>
      <trkpt lat="47.25298" lon="-1.6375">
        <ele>55</ele>
        <time>2014-08-03T08:15:49Z</time>
      </trkpt>
      <trkpt lat="47.25302" lon="-1.63734">
        <ele>55</ele>
        <time>2014-08-03T08:15:53Z</time>
      </trkpt>
      <trkpt lat="47.25296" lon="-1.63721">
        <ele>55</ele>
        <time>2014-08-03T08:16:02Z</time>
      </trkpt>
      <trkpt lat="47.25287" lon="-1.63715">
        <ele>55</ele>
        <time>2014-08-03T08:16:05Z</time>
      </trkpt>
      <trkpt lat="47.25277" lon="-1.63714">
        <ele>55</ele>
        <time>2014-08-03T08:16:09Z</time>
      </trkpt>
      <trkpt lat="47.25265" lon="-1.63712">
        <ele>55</ele>
        <time>2014-08-03T08:16:13Z</time>
      </trkpt>
      <trkpt lat="47.25255" lon="-1.63711">
        <ele>55</ele>
        <time>2014-08-03T08:16:18Z</time>
      </trkpt>
      <trkpt lat="47.25245" lon="-1.63708">
        <ele>55</ele>
        <time>2014-08-03T08:16:24Z</time>
      </trkpt>
      <trkpt lat="47.25235" lon="-1.637">
        <ele>55</ele>
        <time>2014-08-03T08:16:27Z</time>
      </trkpt>
      <trkpt lat="47.25227" lon="-1.6369">
        <ele>55</ele>
        <time>2014-08-03T08:16:32Z</time>
      </trkpt>
      <trkpt lat="47.25215" lon="-1.63684">
        <ele>55</ele>
        <time>2014-08-03T08:16:36Z</time>
      </trkpt>
      <trkpt lat="47.25206" lon="-1.63678">
        <ele>55</ele>
        <time>2014-08-03T08:16:39Z</time>
      </trkpt>
      <trkpt lat="47.25197" lon="-1.6367">
        <ele>55</ele>
        <time>2014-08-03T08:16:41Z</time>
      </trkpt>
      <trkpt lat="47.25189" lon="-1.6366">
        <ele>55</ele>
        <time>2014-08-03T08:16:45Z</time>
      </trkpt>
      <trkpt lat="47.25185" lon="-1.63648">
        <ele>55</ele>
        <time>2014-08-03T08:16:50Z</time>
      </trkpt>
      <trkpt lat="47.25177" lon="-1.63641">
        <ele>55</ele>
        <time>2014-08-03T08:16:55Z</time>
      </trkpt>
      <trkpt lat="47.25167" lon="-1.63638">
        <ele>55</ele>
        <time>2014-08-03T08:16:58Z</time>
      </trkpt>
      <trkpt lat="47.25156" lon="-1.63638">
        <ele>55</ele>
        <time>2014-08-03T08:17:01Z</time>
      </trkpt>
      <trkpt lat="47.2515" lon="-1.63627">
        <ele>55</ele>
        <time>2014-08-03T08:17:11Z</time>
      </trkpt>
      <trkpt lat="47.25149" lon="-1.63613">
        <ele>55</ele>
        <time>2014-08-03T08:18:15Z</time>
      </trkpt>
      <trkpt lat="47.25149" lon="-1.63597">
        <ele>55</ele>
        <time>2014-08-03T08:18:21Z</time>
      </trkpt>
      <trkpt lat="47.25149" lon="-1.63581">
        <ele>55</ele>
        <time>2014-08-03T08:18:25Z</time>
      </trkpt>
      <trkpt lat="47.25149" lon="-1.63568">
        <ele>55</ele>
        <time>2014-08-03T08:18:28Z</time>
      </trkpt>
      <trkpt lat="47.25152" lon="-1.63552">
        <ele>55</ele>
        <time>2014-08-03T08:18:33Z</time>
      </trkpt>
      <trkpt lat="47.25157" lon="-1.6354">
        <ele>55</ele>
        <time>2014-08-03T08:18:37Z</time>
      </trkpt>
      <trkpt lat="47.25165" lon="-1.63531">
        <ele>55</ele>
        <time>2014-08-03T08:18:40Z</time>
      </trkpt>
      <trkpt lat="47.25174" lon="-1.63525">
        <ele>55</ele>
        <time>2014-08-03T08:18:44Z</time>
      </trkpt>
      <trkpt lat="47.25186" lon="-1.63516">
        <ele>55</ele>
        <time>2014-08-03T08:18:47Z</time>
      </trkpt>
      <trkpt lat="47.25197" lon="-1.63509">
        <ele>55</ele>
        <time>2014-08-03T08:18:50Z</time>
      </trkpt>
      <trkpt lat="47.25206" lon="-1.63511">
        <ele>55</ele>
        <time>2014-08-03T08:18:54Z</time>
      </trkpt>
      <trkpt lat="47.25215" lon="-1.6352">
        <ele>55</ele>
        <time>2014-08-03T08:18:58Z</time>
      </trkpt>
      <trkpt lat="47.25225" lon="-1.63532">
        <ele>55</ele>
        <time>2014-08-03T08:19:01Z</time>
      </trkpt>
      <trkpt lat="47.25232" lon="-1.63541">
        <ele>55</ele>
        <time>2014-08-03T08:19:03Z</time>
      </trkpt>
      <trkpt lat="47.25239" lon="-1.6355">
        <ele>55</ele>
        <time>2014-08-03T08:19:05Z</time>
      </trkpt>
      <trkpt lat="47.25249" lon="-1.6356">
        <ele>55</ele>
        <time>2014-08-03T08:19:07Z</time>
      </trkpt>
      <trkpt lat="47.25257" lon="-1.63569">
        <ele>55</ele>
        <time>2014-08-03T08:19:09Z</time>
      </trkpt>
      <trkpt lat="47.25267" lon="-1.63579">
        <ele>55</ele>
        <time>2014-08-03T08:19:12Z</time>
      </trkpt>
      <trkpt lat="47.25276" lon="-1.63589">
        <ele>55</ele>
        <time>2014-08-03T08:19:15Z</time>
      </trkpt>
      <trkpt lat="47.25284" lon="-1.63599">
        <ele>55</ele>
        <time>2014-08-03T08:19:18Z</time>
      </trkpt>
      <trkpt lat="47.25293" lon="-1.63609">
        <ele>55</ele>
        <time>2014-08-03T08:19:21Z</time>
      </trkpt>
      <trkpt lat="47.25303" lon="-1.63618">
        <ele>55</ele>
        <time>2014-08-03T08:19:24Z</time>
      </trkpt>
      <trkpt lat="47.25314" lon="-1.63621">
        <ele>55</ele>
        <time>2014-08-03T08:19:28Z</time>
      </trkpt>
      <trkpt lat="47.25321" lon="-1.63614">
        <ele>55</ele>
        <time>2014-08-03T08:19:31Z</time>
      </trkpt>
      <trkpt lat="47.2533" lon="-1.63599">
        <ele>55</ele>
        <time>2014-08-03T08:19:34Z</time>
      </trkpt>
      <trkpt lat="47.25337" lon="-1.63584">
        <ele>55.7</ele>
        <time>2014-08-03T08:19:37Z</time>
      </trkpt>
      <trkpt lat="47.25343" lon="-1.6357">
        <ele>56.6</ele>
        <time>2014-08-03T08:19:40Z</time>
      </trkpt>
      <trkpt lat="47.25348" lon="-1.63554">
        <ele>57.5</ele>
        <time>2014-08-03T08:19:43Z</time>
      </trkpt>
      <trkpt lat="47.25353" lon="-1.63541">
        <ele>58.5</ele>
        <time>2014-08-03T08:19:46Z</time>
      </trkpt>
      <trkpt lat="47.25358" lon="-1.63525">
        <ele>59.4</ele>
        <time>2014-08-03T08:19:49Z</time>
      </trkpt>
      <trkpt lat="47.25363" lon="-1.63513">
        <ele>60.2</ele>
        <time>2014-08-03T08:19:51Z</time>
      </trkpt>
      <trkpt lat="47.25369" lon="-1.63496">
        <ele>61.5</ele>
        <time>2014-08-03T08:19:54Z</time>
      </trkpt>
      <trkpt lat="47.25373" lon="-1.63484">
        <ele>62.2</ele>
        <time>2014-08-03T08:19:56Z</time>
      </trkpt>
      <trkpt lat="47.25376" lon="-1.63467">
        <ele>62.9</ele>
        <time>2014-08-03T08:19:59Z</time>
      </trkpt>
      <trkpt lat="47.25378" lon="-1.63453">
        <ele>63.3</ele>
        <time>2014-08-03T08:20:02Z</time>
      </trkpt>
      <trkpt lat="47.25387" lon="-1.63441">
        <ele>65.1</ele>
        <time>2014-08-03T08:20:06Z</time>
      </trkpt>
      <trkpt lat="47.25397" lon="-1.63435">
        <ele>67.1</ele>
        <time>2014-08-03T08:20:09Z</time>
      </trkpt>
      <trkpt lat="47.25407" lon="-1.63432">
        <ele>69</ele>
        <time>2014-08-03T08:20:12Z</time>
      </trkpt>
      <trkpt lat="47.25419" lon="-1.63428">
        <ele>70.7</ele>
        <time>2014-08-03T08:20:15Z</time>
      </trkpt>
      <trkpt lat="47.25425" lon="-1.63417">
        <ele>70.4</ele>
        <time>2014-08-03T08:20:18Z</time>
      </trkpt>
      <trkpt lat="47.25431" lon="-1.63406">
        <ele>70.1</ele>
        <time>2014-08-03T08:20:21Z</time>
      </trkpt>
      <trkpt lat="47.2544" lon="-1.63398">
        <ele>69.6</ele>
        <time>2014-08-03T08:20:24Z</time>
      </trkpt>
      <trkpt lat="47.25448" lon="-1.63391">
        <ele>69.1</ele>
        <time>2014-08-03T08:20:27Z</time>
      </trkpt>
      <trkpt lat="47.25455" lon="-1.63381">
        <ele>68.9</ele>
        <time>2014-08-03T08:20:30Z</time>
      </trkpt>
      <trkpt lat="47.25458" lon="-1.63368">
        <ele>68.9</ele>
        <time>2014-08-03T08:20:33Z</time>
      </trkpt>
      <trkpt lat="47.25459" lon="-1.63354">
        <ele>69.1</ele>
        <time>2014-08-03T08:20:36Z</time>
      </trkpt>
      <trkpt lat="47.2546" lon="-1.63334">
        <ele>69.4</ele>
        <time>2014-08-03T08:20:39Z</time>
      </trkpt>
      <trkpt lat="47.25462" lon="-1.6332">
        <ele>69.3</ele>
        <time>2014-08-03T08:20:41Z</time>
      </trkpt>
      <trkpt lat="47.25463" lon="-1.63303">
        <ele>69.2</ele>
        <time>2014-08-03T08:20:44Z</time>
      </trkpt>
      <trkpt lat="47.25462" lon="-1.63287">
        <ele>69.2</ele>
        <time>2014-08-03T08:20:47Z</time>
      </trkpt>
      <trkpt lat="47.25462" lon="-1.63273">
        <ele>69.2</ele>
        <time>2014-08-03T08:20:49Z</time>
      </trkpt>
      <trkpt lat="47.25461" lon="-1.63257">
        <ele>69.3</ele>
        <time>2014-08-03T08:20:52Z</time>
      </trkpt>
      <trkpt lat="47.25459" lon="-1.63243">
        <ele>69.3</ele>
        <time>2014-08-03T08:20:55Z</time>
      </trkpt>
      <trkpt lat="47.25456" lon="-1.63227">
        <ele>69.3</ele>
        <time>2014-08-03T08:20:58Z</time>
      </trkpt>
      <trkpt lat="47.2545" lon="-1.63212">
        <ele>69.7</ele>
        <time>2014-08-03T08:21:01Z</time>
      </trkpt>
      <trkpt lat="47.25444" lon="-1.63199">
        <ele>70.1</ele>
        <time>2014-08-03T08:21:04Z</time>
      </trkpt>
      <trkpt lat="47.25441" lon="-1.63186">
        <ele>70.3</ele>
        <time>2014-08-03T08:21:07Z</time>
      </trkpt>
      <trkpt lat="47.25436" lon="-1.63172">
        <ele>70.7</ele>
        <time>2014-08-03T08:21:11Z</time>
      </trkpt>
      <trkpt lat="47.25432" lon="-1.63159">
        <ele>70.8</ele>
        <time>2014-08-03T08:21:14Z</time>
      </trkpt>
      <trkpt lat="47.25428" lon="-1.63145">
        <ele>70.5</ele>
        <time>2014-08-03T08:21:17Z</time>
      </trkpt>
      <trkpt lat="47.25424" lon="-1.63129">
        <ele>70</ele>
        <time>2014-08-03T08:21:20Z</time>
      </trkpt>
      <trkpt lat="47.25423" lon="-1.63113">
        <ele>69.2</ele>
        <time>2014-08-03T08:21:23Z</time>
      </trkpt>
      <trkpt lat="47.25423" lon="-1.631">
        <ele>68.5</ele>
        <time>2014-08-03T08:21:25Z</time>
      </trkpt>
      <trkpt lat="47.25427" lon="-1.63088">
        <ele>67.5</ele>
        <time>2014-08-03T08:21:28Z</time>
      </trkpt>
      <trkpt lat="47.25433" lon="-1.63077">
        <ele>66.5</ele>
        <time>2014-08-03T08:21:31Z</time>
      </trkpt>
      <trkpt lat="47.25437" lon="-1.63062">
        <ele>65.7</ele>
        <time>2014-08-03T08:21:35Z</time>
      </trkpt>
      <trkpt lat="47.25435" lon="-1.63044">
        <ele>64.9</ele>
        <time>2014-08-03T08:21:39Z</time>
      </trkpt>
      <trkpt lat="47.25437" lon="-1.63031">
        <ele>64.3</ele>
        <time>2014-08-03T08:21:43Z</time>
      </trkpt>
      <trkpt lat="47.25435" lon="-1.63015">
        <ele>63.7</ele>
        <time>2014-08-03T08:21:47Z</time>
      </trkpt>
      <trkpt lat="47.25435" lon="-1.63001">
        <ele>63.1</ele>
        <time>2014-08-03T08:21:52Z</time>
      </trkpt>
      <trkpt lat="47.25442" lon="-1.62991">
        <ele>62.8</ele>
        <time>2014-08-03T08:21:55Z</time>
      </trkpt>
      <trkpt lat="47.25447" lon="-1.62977">
        <ele>62.7</ele>
        <time>2014-08-03T08:22:00Z</time>
      </trkpt>
      <trkpt lat="47.25443" lon="-1.62963">
        <ele>62.4</ele>
        <time>2014-08-03T08:22:35Z</time>
      </trkpt>
      <trkpt lat="47.25436" lon="-1.62952">
        <ele>62.1</ele>
        <time>2014-08-03T08:22:38Z</time>
      </trkpt>
      <trkpt lat="47.2543" lon="-1.62936">
        <ele>61.7</ele>
        <time>2014-08-03T08:22:41Z</time>
      </trkpt>
      <trkpt lat="47.25431" lon="-1.62919">
        <ele>61.4</ele>
        <time>2014-08-03T08:22:43Z</time>
      </trkpt>
      <trkpt lat="47.25437" lon="-1.62904">
        <ele>61.6</ele>
        <time>2014-08-03T08:22:45Z</time>
      </trkpt>
      <trkpt lat="47.25447" lon="-1.62895">
        <ele>61.8</ele>
        <time>2014-08-03T08:22:47Z</time>
      </trkpt>
      <trkpt lat="47.25457" lon="-1.62892">
        <ele>62</ele>
        <time>2014-08-03T08:22:49Z</time>
      </trkpt>
      <trkpt lat="47.25469" lon="-1.62891">
        <ele>62.2</ele>
        <time>2014-08-03T08:22:52Z</time>
      </trkpt>
      <trkpt lat="47.25478" lon="-1.62888">
        <ele>62.3</ele>
        <time>2014-08-03T08:22:54Z</time>
      </trkpt>
      <trkpt lat="47.25487" lon="-1.62883">
        <ele>62.4</ele>
        <time>2014-08-03T08:22:56Z</time>
      </trkpt>
      <trkpt lat="47.25497" lon="-1.62878">
        <ele>62.5</ele>
        <time>2014-08-03T08:22:58Z</time>
      </trkpt>
      <trkpt lat="47.25506" lon="-1.62874">
        <ele>62.5</ele>
        <time>2014-08-03T08:23:00Z</time>
      </trkpt>
      <trkpt lat="47.25519" lon="-1.62868">
        <ele>62.6</ele>
        <time>2014-08-03T08:23:03Z</time>
      </trkpt>
      <trkpt lat="47.25528" lon="-1.62864">
        <ele>62.6</ele>
        <time>2014-08-03T08:23:05Z</time>
      </trkpt>
      <trkpt lat="47.25537" lon="-1.62858">
        <ele>62.6</ele>
        <time>2014-08-03T08:23:07Z</time>
      </trkpt>
      <trkpt lat="47.25546" lon="-1.62852">
        <ele>62.6</ele>
        <time>2014-08-03T08:23:09Z</time>
      </trkpt>
      <trkpt lat="47.25554" lon="-1.62845">
        <ele>62.7</ele>
        <time>2014-08-03T08:23:11Z</time>
      </trkpt>
      <trkpt lat="47.25563" lon="-1.62837">
        <ele>62.8</ele>
        <time>2014-08-03T08:23:13Z</time>
      </trkpt>
      <trkpt lat="47.25572" lon="-1.6283">
        <ele>62.8</ele>
        <time>2014-08-03T08:23:15Z</time>
      </trkpt>
      <trkpt lat="47.25581" lon="-1.62823">
        <ele>62.8</ele>
        <time>2014-08-03T08:23:17Z</time>
      </trkpt>
      <trkpt lat="47.25589" lon="-1.62815">
        <ele>62.8</ele>
        <time>2014-08-03T08:23:19Z</time>
      </trkpt>
      <trkpt lat="47.25598" lon="-1.62807">
        <ele>62.7</ele>
        <time>2014-08-03T08:23:21Z</time>
      </trkpt>
      <trkpt lat="47.25608" lon="-1.62797">
        <ele>62.7</ele>
        <time>2014-08-03T08:23:24Z</time>
      </trkpt>
      <trkpt lat="47.25617" lon="-1.62789">
        <ele>62.7</ele>
        <time>2014-08-03T08:23:26Z</time>
      </trkpt>
      <trkpt lat="47.25626" lon="-1.6278">
        <ele>62.7</ele>
        <time>2014-08-03T08:23:28Z</time>
      </trkpt>
      <trkpt lat="47.25634" lon="-1.62771">
        <ele>62.7</ele>
        <time>2014-08-03T08:23:30Z</time>
      </trkpt>
      <trkpt lat="47.25642" lon="-1.6276">
        <ele>62.7</ele>
        <time>2014-08-03T08:23:32Z</time>
      </trkpt>
      <trkpt lat="47.25648" lon="-1.6275">
        <ele>62.8</ele>
        <time>2014-08-03T08:23:34Z</time>
      </trkpt>
      <trkpt lat="47.25656" lon="-1.62737">
        <ele>62.7</ele>
        <time>2014-08-03T08:23:36Z</time>
      </trkpt>
      <trkpt lat="47.25663" lon="-1.62724">
        <ele>62.6</ele>
        <time>2014-08-03T08:23:38Z</time>
      </trkpt>
      <trkpt lat="47.25671" lon="-1.6271">
        <ele>62.4</ele>
        <time>2014-08-03T08:23:40Z</time>
      </trkpt>
      <trkpt lat="47.25678" lon="-1.62697">
        <ele>62.1</ele>
        <time>2014-08-03T08:23:42Z</time>
      </trkpt>
      <trkpt lat="47.25684" lon="-1.62684">
        <ele>61.8</ele>
        <time>2014-08-03T08:23:44Z</time>
      </trkpt>
      <trkpt lat="47.25692" lon="-1.6267">
        <ele>61.4</ele>
        <time>2014-08-03T08:23:46Z</time>
      </trkpt>
      <trkpt lat="47.25699" lon="-1.62657">
        <ele>61.1</ele>
        <time>2014-08-03T08:23:48Z</time>
      </trkpt>
      <trkpt lat="47.25706" lon="-1.62642">
        <ele>60.9</ele>
        <time>2014-08-03T08:23:50Z</time>
      </trkpt>
      <trkpt lat="47.25714" lon="-1.62628">
        <ele>60.7</ele>
        <time>2014-08-03T08:23:52Z</time>
      </trkpt>
      <trkpt lat="47.25723" lon="-1.62614">
        <ele>60.7</ele>
        <time>2014-08-03T08:23:54Z</time>
      </trkpt>
      <trkpt lat="47.2573" lon="-1.626">
        <ele>60.7</ele>
        <time>2014-08-03T08:23:56Z</time>
      </trkpt>
      <trkpt lat="47.25738" lon="-1.62586">
        <ele>60.8</ele>
        <time>2014-08-03T08:23:58Z</time>
      </trkpt>
      <trkpt lat="47.25745" lon="-1.62573">
        <ele>61.2</ele>
        <time>2014-08-03T08:24:00Z</time>
      </trkpt>
      <trkpt lat="47.25752" lon="-1.62561">
        <ele>61.6</ele>
        <time>2014-08-03T08:24:02Z</time>
      </trkpt>
      <trkpt lat="47.25759" lon="-1.62548">
        <ele>62.1</ele>
        <time>2014-08-03T08:24:04Z</time>
      </trkpt>
      <trkpt lat="47.25767" lon="-1.62534">
        <ele>62.5</ele>
        <time>2014-08-03T08:24:06Z</time>
      </trkpt>
      <trkpt lat="47.25773" lon="-1.62523">
        <ele>62.9</ele>
        <time>2014-08-03T08:24:08Z</time>
      </trkpt>
      <trkpt lat="47.25781" lon="-1.62507">
        <ele>63.3</ele>
        <time>2014-08-03T08:24:11Z</time>
      </trkpt>
      <trkpt lat="47.25788" lon="-1.62495">
        <ele>63.5</ele>
        <time>2014-08-03T08:24:13Z</time>
      </trkpt>
      <trkpt lat="47.25795" lon="-1.62482">
        <ele>63.5</ele>
        <time>2014-08-03T08:24:15Z</time>
      </trkpt>
      <trkpt lat="47.25801" lon="-1.6247">
        <ele>63.6</ele>
        <time>2014-08-03T08:24:17Z</time>
      </trkpt>
      <trkpt lat="47.25804" lon="-1.62457">
        <ele>63.6</ele>
        <time>2014-08-03T08:24:19Z</time>
      </trkpt>
      <trkpt lat="47.25804" lon="-1.62442">
        <ele>63.6</ele>
        <time>2014-08-03T08:24:22Z</time>
      </trkpt>
      <trkpt lat="47.25812" lon="-1.62451">
        <ele>63.7</ele>
        <time>2014-08-03T08:24:44Z</time>
      </trkpt>
      <trkpt lat="47.25821" lon="-1.62464">
        <ele>63.9</ele>
        <time>2014-08-03T08:24:47Z</time>
      </trkpt>
      <trkpt lat="47.25825" lon="-1.62476">
        <ele>63.9</ele>
        <time>2014-08-03T08:24:50Z</time>
      </trkpt>
      <trkpt lat="47.25827" lon="-1.6249">
        <ele>63.9</ele>
        <time>2014-08-03T08:24:54Z</time>
      </trkpt>
      <trkpt lat="47.25831" lon="-1.62504">
        <ele>64</ele>
        <time>2014-08-03T08:24:59Z</time>
      </trkpt>
      <trkpt lat="47.25838" lon="-1.62515">
        <ele>64.1</ele>
        <time>2014-08-03T08:25:03Z</time>
      </trkpt>
      <trkpt lat="47.25844" lon="-1.62531">
        <ele>64.1</ele>
        <time>2014-08-03T08:25:07Z</time>
      </trkpt>
      <trkpt lat="47.25849" lon="-1.62545">
        <ele>64.1</ele>
        <time>2014-08-03T08:25:10Z</time>
      </trkpt>
      <trkpt lat="47.25854" lon="-1.62559">
        <ele>64</ele>
        <time>2014-08-03T08:25:13Z</time>
      </trkpt>
      <trkpt lat="47.25859" lon="-1.62571">
        <ele>63.8</ele>
        <time>2014-08-03T08:25:16Z</time>
      </trkpt>
      <trkpt lat="47.25868" lon="-1.62576">
        <ele>63.7</ele>
        <time>2014-08-03T08:25:19Z</time>
      </trkpt>
      <trkpt lat="47.2588" lon="-1.62581">
        <ele>63.5</ele>
        <time>2014-08-03T08:25:22Z</time>
      </trkpt>
      <trkpt lat="47.2589" lon="-1.62585">
        <ele>63.3</ele>
        <time>2014-08-03T08:25:25Z</time>
      </trkpt>
      <trkpt lat="47.25901" lon="-1.62589">
        <ele>63</ele>
        <time>2014-08-03T08:25:28Z</time>
      </trkpt>
      <trkpt lat="47.25913" lon="-1.6259">
        <ele>62.9</ele>
        <time>2014-08-03T08:25:31Z</time>
      </trkpt>
      <trkpt lat="47.25923" lon="-1.62585">
        <ele>63.1</ele>
        <time>2014-08-03T08:25:33Z</time>
      </trkpt>
      <trkpt lat="47.25933" lon="-1.62577">
        <ele>63.6</ele>
        <time>2014-08-03T08:25:35Z</time>
      </trkpt>
      <trkpt lat="47.25942" lon="-1.6257">
        <ele>63.9</ele>
        <time>2014-08-03T08:25:37Z</time>
      </trkpt>
      <trkpt lat="47.25951" lon="-1.62562">
        <ele>64.3</ele>
        <time>2014-08-03T08:25:39Z</time>
      </trkpt>
      <trkpt lat="47.25959" lon="-1.62554">
        <ele>64.5</ele>
        <time>2014-08-03T08:25:41Z</time>
      </trkpt>
      <trkpt lat="47.2597" lon="-1.62544">
        <ele>64.8</ele>
        <time>2014-08-03T08:25:44Z</time>
      </trkpt>
      <trkpt lat="47.25978" lon="-1.62537">
        <ele>64.9</ele>
        <time>2014-08-03T08:25:46Z</time>
      </trkpt>
      <trkpt lat="47.25989" lon="-1.62528">
        <ele>65</ele>
        <time>2014-08-03T08:25:49Z</time>
      </trkpt>
      <trkpt lat="47.25997" lon="-1.62521">
        <ele>65</ele>
        <time>2014-08-03T08:25:51Z</time>
      </trkpt>
      <trkpt lat="47.26005" lon="-1.62514">
        <ele>65</ele>
        <time>2014-08-03T08:25:53Z</time>
      </trkpt>
      <trkpt lat="47.26014" lon="-1.62506">
        <ele>65.1</ele>
        <time>2014-08-03T08:25:55Z</time>
      </trkpt>
      <trkpt lat="47.26023" lon="-1.62497">
        <ele>65.2</ele>
        <time>2014-08-03T08:25:57Z</time>
      </trkpt>
      <trkpt lat="47.26032" lon="-1.62489">
        <ele>65.3</ele>
        <time>2014-08-03T08:25:59Z</time>
      </trkpt>
      <trkpt lat="47.2604" lon="-1.62481">
        <ele>65.3</ele>
        <time>2014-08-03T08:26:01Z</time>
      </trkpt>
      <trkpt lat="47.2605" lon="-1.62469">
        <ele>65.2</ele>
        <time>2014-08-03T08:26:04Z</time>
      </trkpt>
      <trkpt lat="47.26058" lon="-1.6246">
        <ele>65.2</ele>
        <time>2014-08-03T08:26:06Z</time>
      </trkpt>
      <trkpt lat="47.26066" lon="-1.62451">
        <ele>65.2</ele>
        <time>2014-08-03T08:26:08Z</time>
      </trkpt>
      <trkpt lat="47.26074" lon="-1.62442">
        <ele>65.2</ele>
        <time>2014-08-03T08:26:10Z</time>
      </trkpt>
      <trkpt lat="47.26083" lon="-1.62433">
        <ele>65.2</ele>
        <time>2014-08-03T08:26:12Z</time>
      </trkpt>
      <trkpt lat="47.26093" lon="-1.62425">
        <ele>65.8</ele>
        <time>2014-08-03T08:26:14Z</time>
      </trkpt>
      <trkpt lat="47.26101" lon="-1.62418">
        <ele>66.2</ele>
        <time>2014-08-03T08:26:16Z</time>
      </trkpt>
      <trkpt lat="47.26111" lon="-1.62407">
        <ele>66.9</ele>
        <time>2014-08-03T08:26:19Z</time>
      </trkpt>
      <trkpt lat="47.2612" lon="-1.6241">
        <ele>67.6</ele>
        <time>2014-08-03T08:26:21Z</time>
      </trkpt>
      <trkpt lat="47.26118" lon="-1.62425">
        <ele>67.4</ele>
        <time>2014-08-03T08:26:24Z</time>
      </trkpt>
      <trkpt lat="47.26115" lon="-1.62439">
        <ele>67.3</ele>
        <time>2014-08-03T08:26:27Z</time>
      </trkpt>
      <trkpt lat="47.26118" lon="-1.62454">
        <ele>67.4</ele>
        <time>2014-08-03T08:26:32Z</time>
      </trkpt>
      <trkpt lat="47.26126" lon="-1.62462">
        <ele>67.8</ele>
        <time>2014-08-03T08:26:35Z</time>
      </trkpt>
      <trkpt lat="47.26136" lon="-1.62472">
        <ele>68.2</ele>
        <time>2014-08-03T08:26:38Z</time>
      </trkpt>
      <trkpt lat="47.26148" lon="-1.62476">
        <ele>68.7</ele>
        <time>2014-08-03T08:26:41Z</time>
      </trkpt>
      <trkpt lat="47.2616" lon="-1.62481">
        <ele>69.1</ele>
        <time>2014-08-03T08:26:44Z</time>
      </trkpt>
      <trkpt lat="47.2617" lon="-1.62486">
        <ele>69.3</ele>
        <time>2014-08-03T08:26:47Z</time>
      </trkpt>
      <trkpt lat="47.2618" lon="-1.6249">
        <ele>69</ele>
        <time>2014-08-03T08:26:50Z</time>
      </trkpt>
      <trkpt lat="47.26188" lon="-1.62494">
        <ele>68.8</ele>
        <time>2014-08-03T08:26:53Z</time>
      </trkpt>
      <trkpt lat="47.26198" lon="-1.625">
        <ele>68.6</ele>
        <time>2014-08-03T08:26:56Z</time>
      </trkpt>
      <trkpt lat="47.26206" lon="-1.62506">
        <ele>68.6</ele>
        <time>2014-08-03T08:26:59Z</time>
      </trkpt>
      <trkpt lat="47.26217" lon="-1.62507">
        <ele>68.5</ele>
        <time>2014-08-03T08:27:03Z</time>
      </trkpt>
      <trkpt lat="47.26227" lon="-1.62509">
        <ele>68.4</ele>
        <time>2014-08-03T08:27:06Z</time>
      </trkpt>
      <trkpt lat="47.26236" lon="-1.62512">
        <ele>68.4</ele>
        <time>2014-08-03T08:27:09Z</time>
      </trkpt>
      <trkpt lat="47.26246" lon="-1.62515">
        <ele>68.4</ele>
        <time>2014-08-03T08:27:12Z</time>
      </trkpt>
      <trkpt lat="47.26257" lon="-1.62519">
        <ele>68</ele>
        <time>2014-08-03T08:27:15Z</time>
      </trkpt>
      <trkpt lat="47.2627" lon="-1.62523">
        <ele>67.2</ele>
        <time>2014-08-03T08:27:18Z</time>
      </trkpt>
      <trkpt lat="47.26282" lon="-1.62528">
        <ele>66.4</ele>
        <time>2014-08-03T08:27:21Z</time>
      </trkpt>
      <trkpt lat="47.26293" lon="-1.62532">
        <ele>65.6</ele>
        <time>2014-08-03T08:27:24Z</time>
      </trkpt>
      <trkpt lat="47.26304" lon="-1.62534">
        <ele>64.8</ele>
        <time>2014-08-03T08:27:26Z</time>
      </trkpt>
      <trkpt lat="47.26316" lon="-1.62537">
        <ele>63.9</ele>
        <time>2014-08-03T08:27:28Z</time>
      </trkpt>
      <trkpt lat="47.26327" lon="-1.6254">
        <ele>63</ele>
        <time>2014-08-03T08:27:30Z</time>
      </trkpt>
      <trkpt lat="47.26337" lon="-1.62543">
        <ele>62.2</ele>
        <time>2014-08-03T08:27:32Z</time>
      </trkpt>
      <trkpt lat="47.26346" lon="-1.62547">
        <ele>61.2</ele>
        <time>2014-08-03T08:27:34Z</time>
      </trkpt>
      <trkpt lat="47.26357" lon="-1.62553">
        <ele>60</ele>
        <time>2014-08-03T08:27:36Z</time>
      </trkpt>
      <trkpt lat="47.26369" lon="-1.62558">
        <ele>58.5</ele>
        <time>2014-08-03T08:27:38Z</time>
      </trkpt>
      <trkpt lat="47.26382" lon="-1.6256">
        <ele>57.1</ele>
        <time>2014-08-03T08:27:40Z</time>
      </trkpt>
      <trkpt lat="47.26396" lon="-1.62557">
        <ele>55.7</ele>
        <time>2014-08-03T08:27:42Z</time>
      </trkpt>
      <trkpt lat="47.26407" lon="-1.62551">
        <ele>54.8</ele>
        <time>2014-08-03T08:27:44Z</time>
      </trkpt>
      <trkpt lat="47.26416" lon="-1.62544">
        <ele>54.4</ele>
        <time>2014-08-03T08:27:46Z</time>
      </trkpt>
      <trkpt lat="47.26424" lon="-1.62533">
        <ele>54.4</ele>
        <time>2014-08-03T08:27:48Z</time>
      </trkpt>
      <trkpt lat="47.26432" lon="-1.62524">
        <ele>54.3</ele>
        <time>2014-08-03T08:27:50Z</time>
      </trkpt>
      <trkpt lat="47.26443" lon="-1.62515">
        <ele>54.2</ele>
        <time>2014-08-03T08:27:53Z</time>
      </trkpt>
      <trkpt lat="47.26451" lon="-1.62507">
        <ele>54</ele>
        <time>2014-08-03T08:27:55Z</time>
      </trkpt>
      <trkpt lat="47.26463" lon="-1.62497">
        <ele>53.7</ele>
        <time>2014-08-03T08:27:58Z</time>
      </trkpt>
      <trkpt lat="47.26473" lon="-1.62492">
        <ele>53.1</ele>
        <time>2014-08-03T08:28:00Z</time>
      </trkpt>
      <trkpt lat="47.26492" lon="-1.62483">
        <ele>52</ele>
        <time>2014-08-03T08:28:08Z</time>
      </trkpt>
      <trkpt lat="47.26503" lon="-1.62472">
        <ele>51.4</ele>
        <time>2014-08-03T08:28:46Z</time>
      </trkpt>
      <trkpt lat="47.26514" lon="-1.62469">
        <ele>50.4</ele>
        <time>2014-08-03T08:28:53Z</time>
      </trkpt>
      <trkpt lat="47.2652" lon="-1.62488">
        <ele>49.5</ele>
        <time>2014-08-03T08:28:58Z</time>
      </trkpt>
      <trkpt lat="47.26522" lon="-1.62503">
        <ele>49</ele>
        <time>2014-08-03T08:29:01Z</time>
      </trkpt>
      <trkpt lat="47.26526" lon="-1.62515">
        <ele>48.1</ele>
        <time>2014-08-03T08:29:04Z</time>
      </trkpt>
      <trkpt lat="47.2652" lon="-1.62501">
        <ele>49.2</ele>
        <time>2014-08-03T08:29:18Z</time>
      </trkpt>
      <trkpt lat="47.26516" lon="-1.62487">
        <ele>49.9</ele>
        <time>2014-08-03T08:29:24Z</time>
      </trkpt>
      <trkpt lat="47.26517" lon="-1.62471">
        <ele>50</ele>
        <time>2014-08-03T08:29:28Z</time>
      </trkpt>
      <trkpt lat="47.26526" lon="-1.62464">
        <ele>49.3</ele>
        <time>2014-08-03T08:29:31Z</time>
      </trkpt>
      <trkpt lat="47.26535" lon="-1.62453">
        <ele>48.5</ele>
        <time>2014-08-03T08:29:37Z</time>
      </trkpt>
      <trkpt lat="47.26545" lon="-1.62447">
        <ele>47.5</ele>
        <time>2014-08-03T08:29:40Z</time>
      </trkpt>
      <trkpt lat="47.26559" lon="-1.62447">
        <ele>46</ele>
        <time>2014-08-03T08:29:43Z</time>
      </trkpt>
      <trkpt lat="47.2657" lon="-1.62453">
        <ele>44.8</ele>
        <time>2014-08-03T08:29:46Z</time>
      </trkpt>
      <trkpt lat="47.26579" lon="-1.6246">
        <ele>44</ele>
        <time>2014-08-03T08:29:50Z</time>
      </trkpt>
      <trkpt lat="47.26584" lon="-1.62473">
        <ele>43.6</ele>
        <time>2014-08-03T08:29:55Z</time>
      </trkpt>
      <trkpt lat="47.26588" lon="-1.62487">
        <ele>43.1</ele>
        <time>2014-08-03T08:30:00Z</time>
      </trkpt>
      <trkpt lat="47.26594" lon="-1.62496">
        <ele>42.2</ele>
        <time>2014-08-03T08:30:05Z</time>
      </trkpt>
      <trkpt lat="47.26604" lon="-1.62505">
        <ele>40.9</ele>
        <time>2014-08-03T08:30:09Z</time>
      </trkpt>
      <trkpt lat="47.26613" lon="-1.62509">
        <ele>39.5</ele>
        <time>2014-08-03T08:30:14Z</time>
      </trkpt>
      <trkpt lat="47.26623" lon="-1.62509">
        <ele>37.9</ele>
        <time>2014-08-03T08:30:18Z</time>
      </trkpt>
      <trkpt lat="47.26632" lon="-1.62503">
        <ele>36.4</ele>
        <time>2014-08-03T08:30:24Z</time>
      </trkpt>
      <trkpt lat="47.26642" lon="-1.62501">
        <ele>34.8</ele>
        <time>2014-08-03T08:30:28Z</time>
      </trkpt>
      <trkpt lat="47.26652" lon="-1.62505">
        <ele>33.4</ele>
        <time>2014-08-03T08:30:32Z</time>
      </trkpt>
      <trkpt lat="47.26655" lon="-1.62519">
        <ele>33.1</ele>
        <time>2014-08-03T08:30:41Z</time>
      </trkpt>
      <trkpt lat="47.26662" lon="-1.6251">
        <ele>31.9</ele>
        <time>2014-08-03T08:31:13Z</time>
      </trkpt>
      <trkpt lat="47.26661" lon="-1.62495">
        <ele>31.8</ele>
        <time>2014-08-03T08:31:23Z</time>
      </trkpt>
      <trkpt lat="47.26656" lon="-1.62482">
        <ele>31.8</ele>
        <time>2014-08-03T08:31:29Z</time>
      </trkpt>
      <trkpt lat="47.26665" lon="-1.62476">
        <ele>30.2</ele>
        <time>2014-08-03T08:31:41Z</time>
      </trkpt>
      <trkpt lat="47.26673" lon="-1.62483">
        <ele>30.3</ele>
        <time>2014-08-03T08:31:45Z</time>
      </trkpt>
      <trkpt lat="47.26683" lon="-1.62482">
        <ele>30.6</ele>
        <time>2014-08-03T08:31:51Z</time>
      </trkpt>
      <trkpt lat="47.26691" lon="-1.62476">
        <ele>30.5</ele>
        <time>2014-08-03T08:31:57Z</time>
      </trkpt>
      <trkpt lat="47.267" lon="-1.62469">
        <ele>30.4</ele>
        <time>2014-08-03T08:32:08Z</time>
      </trkpt>
      <trkpt lat="47.26706" lon="-1.62458">
        <ele>30</ele>
        <time>2014-08-03T08:32:18Z</time>
      </trkpt>
      <trkpt lat="47.26707" lon="-1.62445">
        <ele>29.3</ele>
        <time>2014-08-03T08:32:34Z</time>
      </trkpt>
      <trkpt lat="47.26709" lon="-1.62428">
        <ele>28.6</ele>
        <time>2014-08-03T08:32:41Z</time>
      </trkpt>
      <trkpt lat="47.26704" lon="-1.62417">
        <ele>27.9</ele>
        <time>2014-08-03T08:35:13Z</time>
      </trkpt>
      <trkpt lat="47.26695" lon="-1.62416">
        <ele>27.7</ele>
        <time>2014-08-03T08:35:29Z</time>
      </trkpt>
      <trkpt lat="47.26685" lon="-1.62412">
        <ele>27.4</ele>
        <time>2014-08-03T08:35:34Z</time>
      </trkpt>
      <trkpt lat="47.26676" lon="-1.62408">
        <ele>27.2</ele>
        <time>2014-08-03T08:35:42Z</time>
      </trkpt>
      <trkpt lat="47.26667" lon="-1.62405">
        <ele>27</ele>
        <time>2014-08-03T08:35:49Z</time>
      </trkpt>
      <trkpt lat="47.26659" lon="-1.62398">
        <ele>28.4</ele>
        <time>2014-08-03T08:35:57Z</time>
      </trkpt>
      <trkpt lat="47.26652" lon="-1.62391">
        <ele>29.9</ele>
        <time>2014-08-03T08:36:02Z</time>
      </trkpt>
      <trkpt lat="47.26642" lon="-1.62386">
        <ele>31.9</ele>
        <time>2014-08-03T08:36:07Z</time>
      </trkpt>
      <trkpt lat="47.26633" lon="-1.6238">
        <ele>33.7</ele>
        <time>2014-08-03T08:36:13Z</time>
      </trkpt>
      <trkpt lat="47.26623" lon="-1.62376">
        <ele>35.6</ele>
        <time>2014-08-03T08:36:20Z</time>
      </trkpt>
      <trkpt lat="47.26614" lon="-1.62378">
        <ele>37.5</ele>
        <time>2014-08-03T08:36:28Z</time>
      </trkpt>
      <trkpt lat="47.26605" lon="-1.62383">
        <ele>39.2</ele>
        <time>2014-08-03T08:36:34Z</time>
      </trkpt>
      <trkpt lat="47.26594" lon="-1.62387">
        <ele>41.3</ele>
        <time>2014-08-03T08:36:39Z</time>
      </trkpt>
      <trkpt lat="47.26585" lon="-1.62391">
        <ele>43</ele>
        <time>2014-08-03T08:36:43Z</time>
      </trkpt>
      <trkpt lat="47.26574" lon="-1.62394">
        <ele>44.3</ele>
        <time>2014-08-03T08:36:49Z</time>
      </trkpt>
      <trkpt lat="47.26565" lon="-1.62396">
        <ele>45.4</ele>
        <time>2014-08-03T08:36:54Z</time>
      </trkpt>
      <trkpt lat="47.26555" lon="-1.62401">
        <ele>46.5</ele>
        <time>2014-08-03T08:37:02Z</time>
      </trkpt>
      <trkpt lat="47.26545" lon="-1.62406">
        <ele>47.7</ele>
        <time>2014-08-03T08:37:08Z</time>
      </trkpt>
      <trkpt lat="47.26536" lon="-1.62411">
        <ele>48.7</ele>
        <time>2014-08-03T08:37:15Z</time>
      </trkpt>
      <trkpt lat="47.26527" lon="-1.62419">
        <ele>49.7</ele>
        <time>2014-08-03T08:37:20Z</time>
      </trkpt>
      <trkpt lat="47.26519" lon="-1.62427">
        <ele>50.5</ele>
        <time>2014-08-03T08:37:25Z</time>
      </trkpt>
      <trkpt lat="47.26512" lon="-1.62436">
        <ele>51.2</ele>
        <time>2014-08-03T08:37:29Z</time>
      </trkpt>
      <trkpt lat="47.26507" lon="-1.62448">
        <ele>51.5</ele>
        <time>2014-08-03T08:37:34Z</time>
      </trkpt>
      <trkpt lat="47.26506" lon="-1.62464">
        <ele>51.3</ele>
        <time>2014-08-03T08:37:39Z</time>
      </trkpt>
      <trkpt lat="47.26503" lon="-1.62478">
        <ele>51.2</ele>
        <time>2014-08-03T08:37:57Z</time>
      </trkpt>
      <trkpt lat="47.26496" lon="-1.62486">
        <ele>51.6</ele>
        <time>2014-08-03T08:39:18Z</time>
      </trkpt>
      <trkpt lat="47.26497" lon="-1.62502">
        <ele>51</ele>
        <time>2014-08-03T08:39:37Z</time>
      </trkpt>
      <trkpt lat="47.26501" lon="-1.62516">
        <ele>49.7</ele>
        <time>2014-08-03T08:39:40Z</time>
      </trkpt>
      <trkpt lat="47.26505" lon="-1.62533">
        <ele>48.3</ele>
        <time>2014-08-03T08:39:43Z</time>
      </trkpt>
      <trkpt lat="47.26511" lon="-1.6255">
        <ele>47</ele>
        <time>2014-08-03T08:39:46Z</time>
      </trkpt>
      <trkpt lat="47.26516" lon="-1.62561">
        <ele>46.2</ele>
        <time>2014-08-03T08:39:49Z</time>
      </trkpt>
      <trkpt lat="47.2652" lon="-1.62573">
        <ele>45.5</ele>
        <time>2014-08-03T08:39:53Z</time>
      </trkpt>
      <trkpt lat="47.26524" lon="-1.62586">
        <ele>44.9</ele>
        <time>2014-08-03T08:39:56Z</time>
      </trkpt>
      <trkpt lat="47.26526" lon="-1.62603">
        <ele>44.5</ele>
        <time>2014-08-03T08:39:59Z</time>
      </trkpt>
      <trkpt lat="47.26527" lon="-1.62617">
        <ele>44.2</ele>
        <time>2014-08-03T08:40:01Z</time>
      </trkpt>
      <trkpt lat="47.26527" lon="-1.62631">
        <ele>43.8</ele>
        <time>2014-08-03T08:40:03Z</time>
      </trkpt>
      <trkpt lat="47.26528" lon="-1.62646">
        <ele>43.5</ele>
        <time>2014-08-03T08:40:05Z</time>
      </trkpt>
      <trkpt lat="47.26527" lon="-1.62663">
        <ele>43.1</ele>
        <time>2014-08-03T08:40:08Z</time>
      </trkpt>
      <trkpt lat="47.26526" lon="-1.62677">
        <ele>43.3</ele>
        <time>2014-08-03T08:40:10Z</time>
      </trkpt>
      <trkpt lat="47.26524" lon="-1.6269">
        <ele>43.8</ele>
        <time>2014-08-03T08:40:12Z</time>
      </trkpt>
      <trkpt lat="47.26522" lon="-1.62704">
        <ele>44.2</ele>
        <time>2014-08-03T08:40:14Z</time>
      </trkpt>
      <trkpt lat="47.26519" lon="-1.62721">
        <ele>44.8</ele>
        <time>2014-08-03T08:40:17Z</time>
      </trkpt>
      <trkpt lat="47.26518" lon="-1.62739">
        <ele>45.4</ele>
        <time>2014-08-03T08:40:20Z</time>
      </trkpt>
      <trkpt lat="47.26517" lon="-1.62753">
        <ele>45.9</ele>
        <time>2014-08-03T08:40:22Z</time>
      </trkpt>
      <trkpt lat="47.26517" lon="-1.62771">
        <ele>46.4</ele>
        <time>2014-08-03T08:40:25Z</time>
      </trkpt>
      <trkpt lat="47.26521" lon="-1.62786">
        <ele>46.7</ele>
        <time>2014-08-03T08:40:29Z</time>
      </trkpt>
      <trkpt lat="47.26528" lon="-1.62799">
        <ele>46.8</ele>
        <time>2014-08-03T08:40:31Z</time>
      </trkpt>
      <trkpt lat="47.26535" lon="-1.62811">
        <ele>46.9</ele>
        <time>2014-08-03T08:40:33Z</time>
      </trkpt>
      <trkpt lat="47.26544" lon="-1.62826">
        <ele>46.7</ele>
        <time>2014-08-03T08:40:35Z</time>
      </trkpt>
      <trkpt lat="47.26554" lon="-1.6284">
        <ele>46.2</ele>
        <time>2014-08-03T08:40:37Z</time>
      </trkpt>
      <trkpt lat="47.26562" lon="-1.62851">
        <ele>45.4</ele>
        <time>2014-08-03T08:40:39Z</time>
      </trkpt>
      <trkpt lat="47.26571" lon="-1.62861">
        <ele>44.7</ele>
        <time>2014-08-03T08:40:41Z</time>
      </trkpt>
      <trkpt lat="47.2658" lon="-1.62871">
        <ele>43.8</ele>
        <time>2014-08-03T08:40:43Z</time>
      </trkpt>
      <trkpt lat="47.26588" lon="-1.62879">
        <ele>42.7</ele>
        <time>2014-08-03T08:40:45Z</time>
      </trkpt>
      <trkpt lat="47.26598" lon="-1.62888">
        <ele>40.7</ele>
        <time>2014-08-03T08:40:47Z</time>
      </trkpt>
      <trkpt lat="47.26609" lon="-1.62898">
        <ele>38.8</ele>
        <time>2014-08-03T08:40:49Z</time>
      </trkpt>
      <trkpt lat="47.2662" lon="-1.62907">
        <ele>36.6</ele>
        <time>2014-08-03T08:40:51Z</time>
      </trkpt>
      <trkpt lat="47.2663" lon="-1.62915">
        <ele>34.7</ele>
        <time>2014-08-03T08:40:53Z</time>
      </trkpt>
      <trkpt lat="47.26637" lon="-1.6293">
        <ele>33.9</ele>
        <time>2014-08-03T08:40:56Z</time>
      </trkpt>
      <trkpt lat="47.26641" lon="-1.62946">
        <ele>33.4</ele>
        <time>2014-08-03T08:40:59Z</time>
      </trkpt>
      <trkpt lat="47.26648" lon="-1.62958">
        <ele>32.6</ele>
        <time>2014-08-03T08:41:02Z</time>
      </trkpt>
      <trkpt lat="47.26655" lon="-1.62968">
        <ele>31.5</ele>
        <time>2014-08-03T08:41:06Z</time>
      </trkpt>
      <trkpt lat="47.26663" lon="-1.62977">
        <ele>30.4</ele>
        <time>2014-08-03T08:41:10Z</time>
      </trkpt>
      <trkpt lat="47.2667" lon="-1.62989">
        <ele>29.9</ele>
        <time>2014-08-03T08:41:15Z</time>
      </trkpt>
      <trkpt lat="47.26675" lon="-1.63002">
        <ele>30.1</ele>
        <time>2014-08-03T08:41:20Z</time>
      </trkpt>
      <trkpt lat="47.2668" lon="-1.63018">
        <ele>31.2</ele>
        <time>2014-08-03T08:41:25Z</time>
      </trkpt>
      <trkpt lat="47.26677" lon="-1.63031">
        <ele>32.2</ele>
        <time>2014-08-03T08:41:30Z</time>
      </trkpt>
      <trkpt lat="47.26676" lon="-1.63044">
        <ele>33.2</ele>
        <time>2014-08-03T08:41:42Z</time>
      </trkpt>
      <trkpt lat="47.26684" lon="-1.63051">
        <ele>33.4</ele>
        <time>2014-08-03T08:41:58Z</time>
      </trkpt>
      <trkpt lat="47.26688" lon="-1.63067">
        <ele>34.1</ele>
        <time>2014-08-03T08:42:30Z</time>
      </trkpt>
      <trkpt lat="47.2669" lon="-1.63082">
        <ele>35</ele>
        <time>2014-08-03T08:42:34Z</time>
      </trkpt>
      <trkpt lat="47.26698" lon="-1.6309">
        <ele>34.2</ele>
        <time>2014-08-03T08:42:38Z</time>
      </trkpt>
      <trkpt lat="47.26709" lon="-1.63092">
        <ele>33.3</ele>
        <time>2014-08-03T08:42:41Z</time>
      </trkpt>
      <trkpt lat="47.2672" lon="-1.63092">
        <ele>32.4</ele>
        <time>2014-08-03T08:42:44Z</time>
      </trkpt>
      <trkpt lat="47.26729" lon="-1.63094">
        <ele>31.5</ele>
        <time>2014-08-03T08:42:53Z</time>
      </trkpt>
      <trkpt lat="47.2674" lon="-1.63093">
        <ele>30.7</ele>
        <time>2014-08-03T08:43:20Z</time>
      </trkpt>
      <trkpt lat="47.2675" lon="-1.631">
        <ele>29.8</ele>
        <time>2014-08-03T08:43:23Z</time>
      </trkpt>
      <trkpt lat="47.26759" lon="-1.63107">
        <ele>30.1</ele>
        <time>2014-08-03T08:43:26Z</time>
      </trkpt>
      <trkpt lat="47.26768" lon="-1.63112">
        <ele>30.3</ele>
        <time>2014-08-03T08:43:30Z</time>
      </trkpt>
      <trkpt lat="47.26778" lon="-1.63118">
        <ele>30.5</ele>
        <time>2014-08-03T08:43:37Z</time>
      </trkpt>
      <trkpt lat="47.26788" lon="-1.63124">
        <ele>30.7</ele>
        <time>2014-08-03T08:43:41Z</time>
      </trkpt>
      <trkpt lat="47.26798" lon="-1.63127">
        <ele>30.8</ele>
        <time>2014-08-03T08:43:46Z</time>
      </trkpt>
      <trkpt lat="47.26807" lon="-1.63133">
        <ele>30.9</ele>
        <time>2014-08-03T08:43:52Z</time>
      </trkpt>
      <trkpt lat="47.26817" lon="-1.63132">
        <ele>31.2</ele>
        <time>2014-08-03T08:43:57Z</time>
      </trkpt>
      <trkpt lat="47.26826" lon="-1.63126">
        <ele>31.7</ele>
        <time>2014-08-03T08:44:02Z</time>
      </trkpt>
      <trkpt lat="47.26837" lon="-1.63124">
        <ele>32.5</ele>
        <time>2014-08-03T08:44:06Z</time>
      </trkpt>
      <trkpt lat="47.26833" lon="-1.63111">
        <ele>32.7</ele>
        <time>2014-08-03T08:44:49Z</time>
      </trkpt>
      <trkpt lat="47.26833" lon="-1.63096">
        <ele>33.4</ele>
        <time>2014-08-03T08:44:54Z</time>
      </trkpt>
      <trkpt lat="47.26835" lon="-1.6308">
        <ele>34.4</ele>
        <time>2014-08-03T08:44:58Z</time>
      </trkpt>
      <trkpt lat="47.26831" lon="-1.63068">
        <ele>34.7</ele>
        <time>2014-08-03T08:45:13Z</time>
      </trkpt>
      <trkpt lat="47.26824" lon="-1.6306">
        <ele>34.7</ele>
        <time>2014-08-03T08:45:22Z</time>
      </trkpt>
      <trkpt lat="47.26814" lon="-1.63058">
        <ele>34.2</ele>
        <time>2014-08-03T08:45:29Z</time>
      </trkpt>
      <trkpt lat="47.26804" lon="-1.63059">
        <ele>33.4</ele>
        <time>2014-08-03T08:45:36Z</time>
      </trkpt>
      <trkpt lat="47.26796" lon="-1.63067">
        <ele>32.7</ele>
        <time>2014-08-03T08:45:42Z</time>
      </trkpt>
      <trkpt lat="47.26786" lon="-1.63064">
        <ele>32.1</ele>
        <time>2014-08-03T08:45:46Z</time>
      </trkpt>
      <trkpt lat="47.26777" lon="-1.6306">
        <ele>31.5</ele>
        <time>2014-08-03T08:45:49Z</time>
      </trkpt>
      <trkpt lat="47.26767" lon="-1.63052">
        <ele>30.9</ele>
        <time>2014-08-03T08:45:52Z</time>
      </trkpt>
      <trkpt lat="47.26759" lon="-1.63046">
        <ele>30.3</ele>
        <time>2014-08-03T08:45:55Z</time>
      </trkpt>
      <trkpt lat="47.26751" lon="-1.63035">
        <ele>29.5</ele>
        <time>2014-08-03T08:46:02Z</time>
      </trkpt>
      <trkpt lat="47.26746" lon="-1.63021">
        <ele>29.4</ele>
        <time>2014-08-03T08:46:07Z</time>
      </trkpt>
      <trkpt lat="47.26746" lon="-1.63007">
        <ele>29.2</ele>
        <time>2014-08-03T08:46:10Z</time>
      </trkpt>
      <trkpt lat="47.26749" lon="-1.6299">
        <ele>29.4</ele>
        <time>2014-08-03T08:46:13Z</time>
      </trkpt>
      <trkpt lat="47.26748" lon="-1.62974">
        <ele>30.2</ele>
        <time>2014-08-03T08:46:17Z</time>
      </trkpt>
      <trkpt lat="47.26745" lon="-1.62961">
        <ele>30.8</ele>
        <time>2014-08-03T08:46:20Z</time>
      </trkpt>
      <trkpt lat="47.26743" lon="-1.62947">
        <ele>31.3</ele>
        <time>2014-08-03T08:46:24Z</time>
      </trkpt>
      <trkpt lat="47.26745" lon="-1.62934">
        <ele>32</ele>
        <time>2014-08-03T08:46:29Z</time>
      </trkpt>
      <trkpt lat="47.26751" lon="-1.62919">
        <ele>33</ele>
        <time>2014-08-03T08:46:34Z</time>
      </trkpt>
      <trkpt lat="47.26755" lon="-1.62903">
        <ele>34.1</ele>
        <time>2014-08-03T08:46:38Z</time>
      </trkpt>
      <trkpt lat="47.26752" lon="-1.6289">
        <ele>34.2</ele>
        <time>2014-08-03T08:46:42Z</time>
      </trkpt>
      <trkpt lat="47.2675" lon="-1.62876">
        <ele>34.5</ele>
        <time>2014-08-03T08:46:47Z</time>
      </trkpt>
      <trkpt lat="47.26748" lon="-1.6286">
        <ele>34.9</ele>
        <time>2014-08-03T08:46:51Z</time>
      </trkpt>
      <trkpt lat="47.26747" lon="-1.62846">
        <ele>35.4</ele>
        <time>2014-08-03T08:46:54Z</time>
      </trkpt>
      <trkpt lat="47.26746" lon="-1.62832">
        <ele>35.9</ele>
        <time>2014-08-03T08:46:57Z</time>
      </trkpt>
      <trkpt lat="47.26745" lon="-1.62816">
        <ele>36.8</ele>
        <time>2014-08-03T08:47:00Z</time>
      </trkpt>
      <trkpt lat="47.26746" lon="-1.62803">
        <ele>37.6</ele>
        <time>2014-08-03T08:47:03Z</time>
      </trkpt>
      <trkpt lat="47.26747" lon="-1.62785">
        <ele>38.7</ele>
        <time>2014-08-03T08:47:07Z</time>
      </trkpt>
      <trkpt lat="47.26748" lon="-1.62769">
        <ele>39.7</ele>
        <time>2014-08-03T08:47:10Z</time>
      </trkpt>
      <trkpt lat="47.26751" lon="-1.62753">
        <ele>40.9</ele>
        <time>2014-08-03T08:47:13Z</time>
      </trkpt>
      <trkpt lat="47.2675" lon="-1.62732">
        <ele>41</ele>
        <time>2014-08-03T08:47:16Z</time>
      </trkpt>
      <trkpt lat="47.26747" lon="-1.62718">
        <ele>40.7</ele>
        <time>2014-08-03T08:47:19Z</time>
      </trkpt>
      <trkpt lat="47.26746" lon="-1.62703">
        <ele>40.7</ele>
        <time>2014-08-03T08:47:23Z</time>
      </trkpt>
      <trkpt lat="47.26745" lon="-1.62688">
        <ele>40.6</ele>
        <time>2014-08-03T08:47:27Z</time>
      </trkpt>
      <trkpt lat="47.26744" lon="-1.62673">
        <ele>40.5</ele>
        <time>2014-08-03T08:47:31Z</time>
      </trkpt>
      <trkpt lat="47.26744" lon="-1.62659">
        <ele>40</ele>
        <time>2014-08-03T08:47:44Z</time>
      </trkpt>
      <trkpt lat="47.26742" lon="-1.62646">
        <ele>39</ele>
        <time>2014-08-03T08:48:03Z</time>
      </trkpt>
      <trkpt lat="47.26737" lon="-1.62634">
        <ele>37.8</ele>
        <time>2014-08-03T08:48:14Z</time>
      </trkpt>
      <trkpt lat="47.26738" lon="-1.62619">
        <ele>36.8</ele>
        <time>2014-08-03T08:48:19Z</time>
      </trkpt>
      <trkpt lat="47.26737" lon="-1.62603">
        <ele>35.9</ele>
        <time>2014-08-03T08:48:23Z</time>
      </trkpt>
      <trkpt lat="47.26739" lon="-1.62589">
        <ele>35</ele>
        <time>2014-08-03T08:48:27Z</time>
      </trkpt>
      <trkpt lat="47.26738" lon="-1.62573">
        <ele>34.3</ele>
        <time>2014-08-03T08:48:32Z</time>
      </trkpt>
      <trkpt lat="47.26736" lon="-1.62556">
        <ele>33.9</ele>
        <time>2014-08-03T08:48:36Z</time>
      </trkpt>
      <trkpt lat="47.26735" lon="-1.62541">
        <ele>33.5</ele>
        <time>2014-08-03T08:48:40Z</time>
      </trkpt>
      <trkpt lat="47.26734" lon="-1.62524">
        <ele>33.1</ele>
        <time>2014-08-03T08:48:44Z</time>
      </trkpt>
      <trkpt lat="47.26733" lon="-1.62511">
        <ele>32.8</ele>
        <time>2014-08-03T08:48:48Z</time>
      </trkpt>
      <trkpt lat="47.26734" lon="-1.62494">
        <ele>32.4</ele>
        <time>2014-08-03T08:48:53Z</time>
      </trkpt>
      <trkpt lat="47.26735" lon="-1.6248">
        <ele>31.7</ele>
        <time>2014-08-03T08:48:58Z</time>
      </trkpt>
      <trkpt lat="47.26735" lon="-1.62467">
        <ele>31.1</ele>
        <time>2014-08-03T08:49:02Z</time>
      </trkpt>
      <trkpt lat="47.26736" lon="-1.62452">
        <ele>30.3</ele>
        <time>2014-08-03T08:49:06Z</time>
      </trkpt>
      <trkpt lat="47.26736" lon="-1.62438">
        <ele>29.7</ele>
        <time>2014-08-03T08:49:11Z</time>
      </trkpt>
      <trkpt lat="47.26739" lon="-1.62424">
        <ele>29.1</ele>
        <time>2014-08-03T08:49:18Z</time>
      </trkpt>
      <trkpt lat="47.26738" lon="-1.6241">
        <ele>28.5</ele>
        <time>2014-08-03T08:49:26Z</time>
      </trkpt>
      <trkpt lat="47.26737" lon="-1.62396">
        <ele>28.1</ele>
        <time>2014-08-03T08:49:32Z</time>
      </trkpt>
      <trkpt lat="47.26742" lon="-1.62385">
        <ele>27.8</ele>
        <time>2014-08-03T08:49:36Z</time>
      </trkpt>
      <trkpt lat="47.26743" lon="-1.6237">
        <ele>27.3</ele>
        <time>2014-08-03T08:49:46Z</time>
      </trkpt>
      <trkpt lat="47.26741" lon="-1.62356">
        <ele>26.9</ele>
        <time>2014-08-03T08:49:54Z</time>
      </trkpt>
      <trkpt lat="47.26735" lon="-1.62345">
        <ele>26.5</ele>
        <time>2014-08-03T08:49:59Z</time>
      </trkpt>
      <trkpt lat="47.26728" lon="-1.62333">
        <ele>26.3</ele>
        <time>2014-08-03T08:50:05Z</time>
      </trkpt>
      <trkpt lat="47.26725" lon="-1.6232">
        <ele>25.6</ele>
        <time>2014-08-03T08:50:11Z</time>
      </trkpt>
      <trkpt lat="47.2672" lon="-1.62307">
        <ele>25.1</ele>
        <time>2014-08-03T08:50:19Z</time>
      </trkpt>
      <trkpt lat="47.26713" lon="-1.62297">
        <ele>24.9</ele>
        <time>2014-08-03T08:50:26Z</time>
      </trkpt>
      <trkpt lat="47.26708" lon="-1.62284">
        <ele>24.5</ele>
        <time>2014-08-03T08:50:32Z</time>
      </trkpt>
      <trkpt lat="47.26704" lon="-1.62272">
        <ele>24.1</ele>
        <time>2014-08-03T08:50:37Z</time>
      </trkpt>
      <trkpt lat="47.26701" lon="-1.62259">
        <ele>23.7</ele>
        <time>2014-08-03T08:50:43Z</time>
      </trkpt>
      <trkpt lat="47.26699" lon="-1.62246">
        <ele>23.4</ele>
        <time>2014-08-03T08:50:50Z</time>
      </trkpt>
      <trkpt lat="47.26695" lon="-1.62233">
        <ele>23.5</ele>
        <time>2014-08-03T08:50:58Z</time>
      </trkpt>
      <trkpt lat="47.26696" lon="-1.62219">
        <ele>23.3</ele>
        <time>2014-08-03T08:51:09Z</time>
      </trkpt>
      <trkpt lat="47.26704" lon="-1.62214">
        <ele>22.6</ele>
        <time>2014-08-03T08:51:24Z</time>
      </trkpt>
      <trkpt lat="47.26696" lon="-1.62209">
        <ele>23.2</ele>
        <time>2014-08-03T08:51:44Z</time>
      </trkpt>
      <trkpt lat="47.26705" lon="-1.62207">
        <ele>22.5</ele>
        <time>2014-08-03T08:52:46Z</time>
      </trkpt>
      <trkpt lat="47.26712" lon="-1.62218">
        <ele>22.2</ele>
        <time>2014-08-03T08:53:13Z</time>
      </trkpt>
      <trkpt lat="47.26713" lon="-1.62233">
        <ele>22.4</ele>
        <time>2014-08-03T08:53:18Z</time>
      </trkpt>
      <trkpt lat="47.26718" lon="-1.62221">
        <ele>21.8</ele>
        <time>2014-08-03T08:53:32Z</time>
      </trkpt>
      <trkpt lat="47.26721" lon="-1.62208">
        <ele>21.2</ele>
        <time>2014-08-03T08:53:39Z</time>
      </trkpt>
      <trkpt lat="47.2673" lon="-1.622">
        <ele>20.3</ele>
        <time>2014-08-03T08:53:42Z</time>
      </trkpt>
      <trkpt lat="47.26728" lon="-1.62187">
        <ele>20.1</ele>
        <time>2014-08-03T08:53:54Z</time>
      </trkpt>
      <trkpt lat="47.26719" lon="-1.6219">
        <ele>20.9</ele>
        <time>2014-08-03T08:54:07Z</time>
      </trkpt>
      <trkpt lat="47.26723" lon="-1.62178">
        <ele>20.2</ele>
        <time>2014-08-03T08:54:27Z</time>
      </trkpt>
      <trkpt lat="47.26726" lon="-1.62163">
        <ele>19.7</ele>
        <time>2014-08-03T08:54:31Z</time>
      </trkpt>
      <trkpt lat="47.26728" lon="-1.62149">
        <ele>20.6</ele>
        <time>2014-08-03T08:54:35Z</time>
      </trkpt>
      <trkpt lat="47.2673" lon="-1.62133">
        <ele>21.6</ele>
        <time>2014-08-03T08:54:42Z</time>
      </trkpt>
      <trkpt lat="47.26731" lon="-1.62117">
        <ele>22.7</ele>
        <time>2014-08-03T08:54:46Z</time>
      </trkpt>
      <trkpt lat="47.2673" lon="-1.62103">
        <ele>23.7</ele>
        <time>2014-08-03T08:55:03Z</time>
      </trkpt>
      <trkpt lat="47.26725" lon="-1.62084">
        <ele>25.2</ele>
        <time>2014-08-03T08:55:07Z</time>
      </trkpt>
      <trkpt lat="47.26717" lon="-1.62065">
        <ele>26.2</ele>
        <time>2014-08-03T08:55:09Z</time>
      </trkpt>
      <trkpt lat="47.26711" lon="-1.62052">
        <ele>26.6</ele>
        <time>2014-08-03T08:55:11Z</time>
      </trkpt>
      <trkpt lat="47.26706" lon="-1.6204">
        <ele>27</ele>
        <time>2014-08-03T08:55:15Z</time>
      </trkpt>
      <trkpt lat="47.26704" lon="-1.62027">
        <ele>27.3</ele>
        <time>2014-08-03T08:55:23Z</time>
      </trkpt>
      <trkpt lat="47.26699" lon="-1.62014">
        <ele>27.3</ele>
        <time>2014-08-03T08:55:30Z</time>
      </trkpt>
      <trkpt lat="47.26702" lon="-1.62">
        <ele>28</ele>
        <time>2014-08-03T08:55:38Z</time>
      </trkpt>
      <trkpt lat="47.26705" lon="-1.61987">
        <ele>28.6</ele>
        <time>2014-08-03T08:55:43Z</time>
      </trkpt>
      <trkpt lat="47.26709" lon="-1.61974">
        <ele>29.3</ele>
        <time>2014-08-03T08:55:49Z</time>
      </trkpt>
      <trkpt lat="47.26712" lon="-1.6196">
        <ele>30</ele>
        <time>2014-08-03T08:56:00Z</time>
      </trkpt>
      <trkpt lat="47.26709" lon="-1.61947">
        <ele>30.2</ele>
        <time>2014-08-03T08:56:54Z</time>
      </trkpt>
      <trkpt lat="47.26708" lon="-1.61931">
        <ele>30.6</ele>
        <time>2014-08-03T08:56:58Z</time>
      </trkpt>
      <trkpt lat="47.26705" lon="-1.61917">
        <ele>30.7</ele>
        <time>2014-08-03T08:57:02Z</time>
      </trkpt>
      <trkpt lat="47.26699" lon="-1.61906">
        <ele>30.3</ele>
        <time>2014-08-03T08:57:05Z</time>
      </trkpt>
      <trkpt lat="47.26697" lon="-1.61893">
        <ele>30.4</ele>
        <time>2014-08-03T08:57:11Z</time>
      </trkpt>
      <trkpt lat="47.26696" lon="-1.61879">
        <ele>30.4</ele>
        <time>2014-08-03T08:57:17Z</time>
      </trkpt>
      <trkpt lat="47.26689" lon="-1.6187">
        <ele>29.8</ele>
        <time>2014-08-03T08:57:28Z</time>
      </trkpt>
      <trkpt lat="47.26679" lon="-1.61868">
        <ele>28.6</ele>
        <time>2014-08-03T08:57:38Z</time>
      </trkpt>
      <trkpt lat="47.2667" lon="-1.61864">
        <ele>27.5</ele>
        <time>2014-08-03T08:57:48Z</time>
      </trkpt>
      <trkpt lat="47.2667" lon="-1.61849">
        <ele>27.5</ele>
        <time>2014-08-03T08:57:57Z</time>
      </trkpt>
      <trkpt lat="47.26667" lon="-1.61837">
        <ele>27</ele>
        <time>2014-08-03T08:58:17Z</time>
      </trkpt>
      <trkpt lat="47.26664" lon="-1.61824">
        <ele>28.2</ele>
        <time>2014-08-03T08:58:29Z</time>
      </trkpt>
      <trkpt lat="47.26655" lon="-1.61817">
        <ele>29.4</ele>
        <time>2014-08-03T08:58:36Z</time>
      </trkpt>
      <trkpt lat="47.26644" lon="-1.61812">
        <ele>30.3</ele>
        <time>2014-08-03T08:58:41Z</time>
      </trkpt>
      <trkpt lat="47.26636" lon="-1.61803">
        <ele>31.2</ele>
        <time>2014-08-03T08:58:49Z</time>
      </trkpt>
      <trkpt lat="47.26627" lon="-1.61798">
        <ele>31.7</ele>
        <time>2014-08-03T08:58:55Z</time>
      </trkpt>
      <trkpt lat="47.26619" lon="-1.61793">
        <ele>32</ele>
        <time>2014-08-03T08:59:03Z</time>
      </trkpt>
      <trkpt lat="47.2661" lon="-1.61792">
        <ele>32</ele>
        <time>2014-08-03T08:59:14Z</time>
      </trkpt>
      <trkpt lat="47.26601" lon="-1.61787">
        <ele>32</ele>
        <time>2014-08-03T08:59:20Z</time>
      </trkpt>
      <trkpt lat="47.26593" lon="-1.61778">
        <ele>31.9</ele>
        <time>2014-08-03T08:59:25Z</time>
      </trkpt>
      <trkpt lat="47.26583" lon="-1.61767">
        <ele>31.4</ele>
        <time>2014-08-03T08:59:29Z</time>
      </trkpt>
      <trkpt lat="47.26575" lon="-1.61757">
        <ele>31.6</ele>
        <time>2014-08-03T08:59:34Z</time>
      </trkpt>
      <trkpt lat="47.2657" lon="-1.61746">
        <ele>31.8</ele>
        <time>2014-08-03T08:59:42Z</time>
      </trkpt>
      <trkpt lat="47.26562" lon="-1.61737">
        <ele>32.6</ele>
        <time>2014-08-03T08:59:55Z</time>
      </trkpt>
      <trkpt lat="47.26557" lon="-1.61725">
        <ele>33.1</ele>
        <time>2014-08-03T09:00:01Z</time>
      </trkpt>
      <trkpt lat="47.26552" lon="-1.61712">
        <ele>33.5</ele>
        <time>2014-08-03T09:00:07Z</time>
      </trkpt>
      <trkpt lat="47.26543" lon="-1.61703">
        <ele>33.6</ele>
        <time>2014-08-03T09:00:13Z</time>
      </trkpt>
      <trkpt lat="47.26535" lon="-1.61695">
        <ele>33.4</ele>
        <time>2014-08-03T09:00:20Z</time>
      </trkpt>
      <trkpt lat="47.26529" lon="-1.61684">
        <ele>33.2</ele>
        <time>2014-08-03T09:00:26Z</time>
      </trkpt>
      <trkpt lat="47.26521" lon="-1.61675">
        <ele>32.7</ele>
        <time>2014-08-03T09:00:32Z</time>
      </trkpt>
      <trkpt lat="47.26513" lon="-1.61669">
        <ele>32</ele>
        <time>2014-08-03T09:00:40Z</time>
      </trkpt>
      <trkpt lat="47.26504" lon="-1.6167">
        <ele>31.4</ele>
        <time>2014-08-03T09:00:51Z</time>
      </trkpt>
      <trkpt lat="47.26494" lon="-1.61669">
        <ele>31.5</ele>
        <time>2014-08-03T09:01:02Z</time>
      </trkpt>
      <trkpt lat="47.26484" lon="-1.61667">
        <ele>32.1</ele>
        <time>2014-08-03T09:01:09Z</time>
      </trkpt>
      <trkpt lat="47.26476" lon="-1.61662">
        <ele>32.6</ele>
        <time>2014-08-03T09:01:17Z</time>
      </trkpt>
      <trkpt lat="47.26466" lon="-1.61659">
        <ele>33.1</ele>
        <time>2014-08-03T09:01:24Z</time>
      </trkpt>
      <trkpt lat="47.26456" lon="-1.61664">
        <ele>34</ele>
        <time>2014-08-03T09:01:29Z</time>
      </trkpt>
      <trkpt lat="47.26448" lon="-1.6167">
        <ele>34.9</ele>
        <time>2014-08-03T09:01:36Z</time>
      </trkpt>
      <trkpt lat="47.26439" lon="-1.61674">
        <ele>35.6</ele>
        <time>2014-08-03T09:01:41Z</time>
      </trkpt>
      <trkpt lat="47.26429" lon="-1.61676">
        <ele>36.4</ele>
        <time>2014-08-03T09:01:49Z</time>
      </trkpt>
      <trkpt lat="47.2642" lon="-1.61666">
        <ele>36.7</ele>
        <time>2014-08-03T09:01:55Z</time>
      </trkpt>
      <trkpt lat="47.26415" lon="-1.61655">
        <ele>35.5</ele>
        <time>2014-08-03T09:02:02Z</time>
      </trkpt>
      <trkpt lat="47.26406" lon="-1.61646">
        <ele>34.7</ele>
        <time>2014-08-03T09:02:12Z</time>
      </trkpt>
      <trkpt lat="47.26397" lon="-1.61643">
        <ele>34.4</ele>
        <time>2014-08-03T09:02:20Z</time>
      </trkpt>
      <trkpt lat="47.26395" lon="-1.6163">
        <ele>32.9</ele>
        <time>2014-08-03T09:02:52Z</time>
      </trkpt>
      <trkpt lat="47.26389" lon="-1.61618">
        <ele>31.7</ele>
        <time>2014-08-03T09:02:58Z</time>
      </trkpt>
      <trkpt lat="47.26383" lon="-1.61608">
        <ele>30.8</ele>
        <time>2014-08-03T09:03:07Z</time>
      </trkpt>
      <trkpt lat="47.26376" lon="-1.61598">
        <ele>30.2</ele>
        <time>2014-08-03T09:04:02Z</time>
      </trkpt>
      <trkpt lat="47.26368" lon="-1.61591">
        <ele>29.7</ele>
        <time>2014-08-03T09:04:08Z</time>
      </trkpt>
      <trkpt lat="47.26364" lon="-1.61576">
        <ele>28.8</ele>
        <time>2014-08-03T09:04:13Z</time>
      </trkpt>
      <trkpt lat="47.26356" lon="-1.61564">
        <ele>28.4</ele>
        <time>2014-08-03T09:04:17Z</time>
      </trkpt>
      <trkpt lat="47.26348" lon="-1.61553">
        <ele>27.8</ele>
        <time>2014-08-03T09:04:22Z</time>
      </trkpt>
      <trkpt lat="47.26344" lon="-1.6154">
        <ele>26.8</ele>
        <time>2014-08-03T09:04:27Z</time>
      </trkpt>
      <trkpt lat="47.26337" lon="-1.6153">
        <ele>25.9</ele>
        <time>2014-08-03T09:04:33Z</time>
      </trkpt>
      <trkpt lat="47.2633" lon="-1.61521">
        <ele>25.1</ele>
        <time>2014-08-03T09:04:36Z</time>
      </trkpt>
      <trkpt lat="47.26321" lon="-1.61512">
        <ele>24.8</ele>
        <time>2014-08-03T09:04:39Z</time>
      </trkpt>
      <trkpt lat="47.26312" lon="-1.6151">
        <ele>25</ele>
        <time>2014-08-03T09:04:45Z</time>
      </trkpt>
      <trkpt lat="47.26302" lon="-1.61503">
        <ele>24.9</ele>
        <time>2014-08-03T09:04:49Z</time>
      </trkpt>
      <trkpt lat="47.26293" lon="-1.61497">
        <ele>24.9</ele>
        <time>2014-08-03T09:04:52Z</time>
      </trkpt>
      <trkpt lat="47.26284" lon="-1.615">
        <ele>25.4</ele>
        <time>2014-08-03T09:04:58Z</time>
      </trkpt>
      <trkpt lat="47.26276" lon="-1.61508">
        <ele>26.6</ele>
        <time>2014-08-03T09:05:07Z</time>
      </trkpt>
      <trkpt lat="47.26266" lon="-1.61513">
        <ele>27.3</ele>
        <time>2014-08-03T09:05:15Z</time>
      </trkpt>
      <trkpt lat="47.26267" lon="-1.61527">
        <ele>28.6</ele>
        <time>2014-08-03T09:06:20Z</time>
      </trkpt>
      <trkpt lat="47.26265" lon="-1.61514">
        <ele>27.5</ele>
        <time>2014-08-03T09:08:24Z</time>
      </trkpt>
      <trkpt lat="47.26272" lon="-1.61523">
        <ele>28</ele>
        <time>2014-08-03T09:11:42Z</time>
      </trkpt>
      <trkpt lat="47.26263" lon="-1.61526">
        <ele>28.6</ele>
        <time>2014-08-03T09:12:41Z</time>
      </trkpt>
      <trkpt lat="47.26255" lon="-1.61533">
        <ele>29.6</ele>
        <time>2014-08-03T09:13:11Z</time>
      </trkpt>
      <trkpt lat="47.2625" lon="-1.61545">
        <ele>30.8</ele>
        <time>2014-08-03T09:14:15Z</time>
      </trkpt>
      <trkpt lat="47.2624" lon="-1.61548">
        <ele>31.2</ele>
        <time>2014-08-03T09:14:26Z</time>
      </trkpt>
      <trkpt lat="47.26231" lon="-1.61554">
        <ele>31.8</ele>
        <time>2014-08-03T09:14:31Z</time>
      </trkpt>
      <trkpt lat="47.26224" lon="-1.61562">
        <ele>32.5</ele>
        <time>2014-08-03T09:14:38Z</time>
      </trkpt>
      <trkpt lat="47.26218" lon="-1.61572">
        <ele>33.2</ele>
        <time>2014-08-03T09:14:46Z</time>
      </trkpt>
      <trkpt lat="47.2621" lon="-1.61581">
        <ele>33.8</ele>
        <time>2014-08-03T09:15:02Z</time>
      </trkpt>
      <trkpt lat="47.26201" lon="-1.61588">
        <ele>34.2</ele>
        <time>2014-08-03T09:15:07Z</time>
      </trkpt>
      <trkpt lat="47.26196" lon="-1.61601">
        <ele>34.6</ele>
        <time>2014-08-03T09:15:14Z</time>
      </trkpt>
      <trkpt lat="47.26192" lon="-1.61613">
        <ele>35</ele>
        <time>2014-08-03T09:15:20Z</time>
      </trkpt>
      <trkpt lat="47.26185" lon="-1.61626">
        <ele>35.4</ele>
        <time>2014-08-03T09:15:24Z</time>
      </trkpt>
      <trkpt lat="47.26178" lon="-1.61636">
        <ele>35.8</ele>
        <time>2014-08-03T09:15:28Z</time>
      </trkpt>
      <trkpt lat="47.26172" lon="-1.61647">
        <ele>36.2</ele>
        <time>2014-08-03T09:15:33Z</time>
      </trkpt>
      <trkpt lat="47.26167" lon="-1.61658">
        <ele>36.7</ele>
        <time>2014-08-03T09:15:43Z</time>
      </trkpt>
      <trkpt lat="47.26168" lon="-1.61672">
        <ele>37.2</ele>
        <time>2014-08-03T09:15:54Z</time>
      </trkpt>
      <trkpt lat="47.26165" lon="-1.61687">
        <ele>38.1</ele>
        <time>2014-08-03T09:15:58Z</time>
      </trkpt>
      <trkpt lat="47.26167" lon="-1.61701">
        <ele>38.7</ele>
        <time>2014-08-03T09:16:04Z</time>
      </trkpt>
      <trkpt lat="47.26172" lon="-1.61714">
        <ele>39.3</ele>
        <time>2014-08-03T09:16:12Z</time>
      </trkpt>
      <trkpt lat="47.26162" lon="-1.61717">
        <ele>39.6</ele>
        <time>2014-08-03T09:16:28Z</time>
      </trkpt>
      <trkpt lat="47.2616" lon="-1.61732">
        <ele>40.4</ele>
        <time>2014-08-03T09:16:50Z</time>
      </trkpt>
      <trkpt lat="47.26156" lon="-1.61745">
        <ele>41.2</ele>
        <time>2014-08-03T09:16:53Z</time>
      </trkpt>
      <trkpt lat="47.26148" lon="-1.61752">
        <ele>41.7</ele>
        <time>2014-08-03T09:17:05Z</time>
      </trkpt>
      <trkpt lat="47.26141" lon="-1.61743">
        <ele>41.7</ele>
        <time>2014-08-03T09:17:18Z</time>
      </trkpt>
      <trkpt lat="47.26135" lon="-1.61752">
        <ele>42.2</ele>
        <time>2014-08-03T09:17:43Z</time>
      </trkpt>
      <trkpt lat="47.26133" lon="-1.61766">
        <ele>42.6</ele>
        <time>2014-08-03T09:17:52Z</time>
      </trkpt>
      <trkpt lat="47.2613" lon="-1.61779">
        <ele>43</ele>
        <time>2014-08-03T09:18:00Z</time>
      </trkpt>
      <trkpt lat="47.26127" lon="-1.61794">
        <ele>43.5</ele>
        <time>2014-08-03T09:18:05Z</time>
      </trkpt>
      <trkpt lat="47.26125" lon="-1.61809">
        <ele>43.9</ele>
        <time>2014-08-03T09:18:10Z</time>
      </trkpt>
      <trkpt lat="47.26118" lon="-1.61818">
        <ele>44.4</ele>
        <time>2014-08-03T09:18:15Z</time>
      </trkpt>
      <trkpt lat="47.26112" lon="-1.61829">
        <ele>44.9</ele>
        <time>2014-08-03T09:18:22Z</time>
      </trkpt>
      <trkpt lat="47.26114" lon="-1.61842">
        <ele>45</ele>
        <time>2014-08-03T09:19:09Z</time>
      </trkpt>
      <trkpt lat="47.26115" lon="-1.61856">
        <ele>45.1</ele>
        <time>2014-08-03T09:19:16Z</time>
      </trkpt>
      <trkpt lat="47.26115" lon="-1.61871">
        <ele>45.3</ele>
        <time>2014-08-03T09:19:22Z</time>
      </trkpt>
      <trkpt lat="47.26116" lon="-1.61884">
        <ele>45.4</ele>
        <time>2014-08-03T09:19:29Z</time>
      </trkpt>
      <trkpt lat="47.26111" lon="-1.61897">
        <ele>45.8</ele>
        <time>2014-08-03T09:19:45Z</time>
      </trkpt>
      <trkpt lat="47.26109" lon="-1.61911">
        <ele>46</ele>
        <time>2014-08-03T09:19:58Z</time>
      </trkpt>
      <trkpt lat="47.2611" lon="-1.61924">
        <ele>46.2</ele>
        <time>2014-08-03T09:20:37Z</time>
      </trkpt>
      <trkpt lat="47.26102" lon="-1.6193">
        <ele>46.6</ele>
        <time>2014-08-03T09:20:47Z</time>
      </trkpt>
      <trkpt lat="47.26091" lon="-1.61931">
        <ele>46.9</ele>
        <time>2014-08-03T09:20:56Z</time>
      </trkpt>
      <trkpt lat="47.2608" lon="-1.6193">
        <ele>47.5</ele>
        <time>2014-08-03T09:21:03Z</time>
      </trkpt>
      <trkpt lat="47.26072" lon="-1.61933">
        <ele>48.4</ele>
        <time>2014-08-03T09:21:14Z</time>
      </trkpt>
      <trkpt lat="47.2607" lon="-1.61946">
        <ele>48.7</ele>
        <time>2014-08-03T09:21:41Z</time>
      </trkpt>
      <trkpt lat="47.26065" lon="-1.61931">
        <ele>49</ele>
        <time>2014-08-03T09:22:21Z</time>
      </trkpt>
      <trkpt lat="47.26061" lon="-1.61917">
        <ele>49.4</ele>
        <time>2014-08-03T09:22:25Z</time>
      </trkpt>
      <trkpt lat="47.26065" lon="-1.61903">
        <ele>48.7</ele>
        <time>2014-08-03T09:22:28Z</time>
      </trkpt>
      <trkpt lat="47.26074" lon="-1.61889">
        <ele>47.6</ele>
        <time>2014-08-03T09:22:31Z</time>
      </trkpt>
      <trkpt lat="47.26079" lon="-1.61873">
        <ele>46.9</ele>
        <time>2014-08-03T09:22:34Z</time>
      </trkpt>
      <trkpt lat="47.26082" lon="-1.61859">
        <ele>46.5</ele>
        <time>2014-08-03T09:22:37Z</time>
      </trkpt>
      <trkpt lat="47.26077" lon="-1.61846">
        <ele>46.8</ele>
        <time>2014-08-03T09:22:42Z</time>
      </trkpt>
      <trkpt lat="47.26073" lon="-1.61831">
        <ele>46.9</ele>
        <time>2014-08-03T09:22:47Z</time>
      </trkpt>
      <trkpt lat="47.26079" lon="-1.61821">
        <ele>46.1</ele>
        <time>2014-08-03T09:23:03Z</time>
      </trkpt>
      <trkpt lat="47.26083" lon="-1.61806">
        <ele>45.4</ele>
        <time>2014-08-03T09:23:08Z</time>
      </trkpt>
      <trkpt lat="47.26087" lon="-1.61793">
        <ele>44.9</ele>
        <time>2014-08-03T09:23:11Z</time>
      </trkpt>
      <trkpt lat="47.26092" lon="-1.6178">
        <ele>44.4</ele>
        <time>2014-08-03T09:23:15Z</time>
      </trkpt>
      <trkpt lat="47.26093" lon="-1.61764">
        <ele>44</ele>
        <time>2014-08-03T09:23:19Z</time>
      </trkpt>
      <trkpt lat="47.2609" lon="-1.61749">
        <ele>43.8</ele>
        <time>2014-08-03T09:23:23Z</time>
      </trkpt>
      <trkpt lat="47.26092" lon="-1.61736">
        <ele>43.5</ele>
        <time>2014-08-03T09:23:27Z</time>
      </trkpt>
      <trkpt lat="47.26095" lon="-1.61721">
        <ele>43.1</ele>
        <time>2014-08-03T09:23:32Z</time>
      </trkpt>
      <trkpt lat="47.26099" lon="-1.61706">
        <ele>42.6</ele>
        <time>2014-08-03T09:23:38Z</time>
      </trkpt>
      <trkpt lat="47.26108" lon="-1.61695">
        <ele>41.9</ele>
        <time>2014-08-03T09:23:43Z</time>
      </trkpt>
      <trkpt lat="47.26109" lon="-1.61681">
        <ele>41.5</ele>
        <time>2014-08-03T09:23:47Z</time>
      </trkpt>
      <trkpt lat="47.2611" lon="-1.61664">
        <ele>41</ele>
        <time>2014-08-03T09:23:54Z</time>
      </trkpt>
      <trkpt lat="47.26112" lon="-1.61645">
        <ele>40.5</ele>
        <time>2014-08-03T09:23:57Z</time>
      </trkpt>
      <trkpt lat="47.26115" lon="-1.61625">
        <ele>39.9</ele>
        <time>2014-08-03T09:24:00Z</time>
      </trkpt>
      <trkpt lat="47.2612" lon="-1.61607">
        <ele>39.1</ele>
        <time>2014-08-03T09:24:03Z</time>
      </trkpt>
      <trkpt lat="47.26124" lon="-1.61595">
        <ele>38.4</ele>
        <time>2014-08-03T09:24:05Z</time>
      </trkpt>
      <trkpt lat="47.26127" lon="-1.61582">
        <ele>37.8</ele>
        <time>2014-08-03T09:24:08Z</time>
      </trkpt>
      <trkpt lat="47.2613" lon="-1.61568">
        <ele>37.1</ele>
        <time>2014-08-03T09:24:13Z</time>
      </trkpt>
      <trkpt lat="47.26134" lon="-1.61555">
        <ele>36.3</ele>
        <time>2014-08-03T09:24:18Z</time>
      </trkpt>
      <trkpt lat="47.26139" lon="-1.61542">
        <ele>35.4</ele>
        <time>2014-08-03T09:24:20Z</time>
      </trkpt>
      <trkpt lat="47.26143" lon="-1.6153">
        <ele>34.4</ele>
        <time>2014-08-03T09:24:24Z</time>
      </trkpt>
      <trkpt lat="47.26148" lon="-1.61518">
        <ele>33.4</ele>
        <time>2014-08-03T09:24:29Z</time>
      </trkpt>
      <trkpt lat="47.26154" lon="-1.61505">
        <ele>31.9</ele>
        <time>2014-08-03T09:24:47Z</time>
      </trkpt>
      <trkpt lat="47.26161" lon="-1.61496">
        <ele>30.5</ele>
        <time>2014-08-03T09:24:51Z</time>
      </trkpt>
      <trkpt lat="47.26166" lon="-1.61483">
        <ele>28.9</ele>
        <time>2014-08-03T09:26:39Z</time>
      </trkpt>
      <trkpt lat="47.26173" lon="-1.61467">
        <ele>27.4</ele>
        <time>2014-08-03T09:26:43Z</time>
      </trkpt>
      <trkpt lat="47.26176" lon="-1.6145">
        <ele>26.1</ele>
        <time>2014-08-03T09:26:46Z</time>
      </trkpt>
      <trkpt lat="47.26181" lon="-1.61433">
        <ele>24.7</ele>
        <time>2014-08-03T09:26:49Z</time>
      </trkpt>
      <trkpt lat="47.26177" lon="-1.61419">
        <ele>23.8</ele>
        <time>2014-08-03T09:26:54Z</time>
      </trkpt>
      <trkpt lat="47.26178" lon="-1.61405">
        <ele>23.2</ele>
        <time>2014-08-03T09:26:59Z</time>
      </trkpt>
      <trkpt lat="47.26187" lon="-1.61398">
        <ele>22.6</ele>
        <time>2014-08-03T09:27:05Z</time>
      </trkpt>
      <trkpt lat="47.26195" lon="-1.61391">
        <ele>22</ele>
        <time>2014-08-03T09:27:12Z</time>
      </trkpt>
      <trkpt lat="47.26204" lon="-1.61385">
        <ele>21.3</ele>
        <time>2014-08-03T09:27:17Z</time>
      </trkpt>
      <trkpt lat="47.26212" lon="-1.61378">
        <ele>20.7</ele>
        <time>2014-08-03T09:27:21Z</time>
      </trkpt>
      <trkpt lat="47.26224" lon="-1.6137">
        <ele>19.9</ele>
        <time>2014-08-03T09:27:24Z</time>
      </trkpt>
      <trkpt lat="47.26236" lon="-1.61363">
        <ele>19</ele>
        <time>2014-08-03T09:27:26Z</time>
      </trkpt>
      <trkpt lat="47.26247" lon="-1.61359">
        <ele>18.4</ele>
        <time>2014-08-03T09:27:28Z</time>
      </trkpt>
      <trkpt lat="47.2626" lon="-1.61358">
        <ele>19.2</ele>
        <time>2014-08-03T09:27:30Z</time>
      </trkpt>
      <trkpt lat="47.26269" lon="-1.61355">
        <ele>20.1</ele>
        <time>2014-08-03T09:27:33Z</time>
      </trkpt>
      <trkpt lat="47.2628" lon="-1.61349">
        <ele>21.1</ele>
        <time>2014-08-03T09:27:36Z</time>
      </trkpt>
      <trkpt lat="47.26288" lon="-1.6134">
        <ele>21.7</ele>
        <time>2014-08-03T09:27:38Z</time>
      </trkpt>
      <trkpt lat="47.26296" lon="-1.61332">
        <ele>22.5</ele>
        <time>2014-08-03T09:27:41Z</time>
      </trkpt>
      <trkpt lat="47.26304" lon="-1.61324">
        <ele>22.9</ele>
        <time>2014-08-03T09:27:46Z</time>
      </trkpt>
      <trkpt lat="47.26313" lon="-1.61328">
        <ele>24.3</ele>
        <time>2014-08-03T09:27:56Z</time>
      </trkpt>
      <trkpt lat="47.2632" lon="-1.61337">
        <ele>25.5</ele>
        <time>2014-08-03T09:28:05Z</time>
      </trkpt>
      <trkpt lat="47.26319" lon="-1.61351">
        <ele>25.4</ele>
        <time>2014-08-03T09:28:23Z</time>
      </trkpt>
      <trkpt lat="47.2632" lon="-1.61365">
        <ele>25.7</ele>
        <time>2014-08-03T09:28:27Z</time>
      </trkpt>
      <trkpt lat="47.26322" lon="-1.6138">
        <ele>26</ele>
        <time>2014-08-03T09:28:30Z</time>
      </trkpt>
      <trkpt lat="47.26326" lon="-1.61397">
        <ele>26.4</ele>
        <time>2014-08-03T09:28:34Z</time>
      </trkpt>
      <trkpt lat="47.26329" lon="-1.61411">
        <ele>26.7</ele>
        <time>2014-08-03T09:28:37Z</time>
      </trkpt>
      <trkpt lat="47.26331" lon="-1.61425">
        <ele>26.4</ele>
        <time>2014-08-03T09:28:40Z</time>
      </trkpt>
      <trkpt lat="47.26334" lon="-1.61442">
        <ele>25.8</ele>
        <time>2014-08-03T09:28:43Z</time>
      </trkpt>
      <trkpt lat="47.26339" lon="-1.61453">
        <ele>25.6</ele>
        <time>2014-08-03T09:28:46Z</time>
      </trkpt>
      <trkpt lat="47.2635" lon="-1.61459">
        <ele>25.9</ele>
        <time>2014-08-03T09:28:49Z</time>
      </trkpt>
      <trkpt lat="47.26361" lon="-1.6146">
        <ele>26.4</ele>
        <time>2014-08-03T09:28:52Z</time>
      </trkpt>
      <trkpt lat="47.2637" lon="-1.61465">
        <ele>26.5</ele>
        <time>2014-08-03T09:28:55Z</time>
      </trkpt>
      <trkpt lat="47.26378" lon="-1.61477">
        <ele>26.3</ele>
        <time>2014-08-03T09:29:00Z</time>
      </trkpt>
      <trkpt lat="47.26385" lon="-1.61488">
        <ele>26.1</ele>
        <time>2014-08-03T09:29:04Z</time>
      </trkpt>
      <trkpt lat="47.26394" lon="-1.61498">
        <ele>26</ele>
        <time>2014-08-03T09:29:08Z</time>
      </trkpt>
      <trkpt lat="47.26403" lon="-1.61504">
        <ele>26.4</ele>
        <time>2014-08-03T09:29:11Z</time>
      </trkpt>
      <trkpt lat="47.26411" lon="-1.61509">
        <ele>26.7</ele>
        <time>2014-08-03T09:29:14Z</time>
      </trkpt>
      <trkpt lat="47.2642" lon="-1.61519">
        <ele>27.1</ele>
        <time>2014-08-03T09:29:18Z</time>
      </trkpt>
      <trkpt lat="47.26428" lon="-1.61532">
        <ele>27.7</ele>
        <time>2014-08-03T09:29:22Z</time>
      </trkpt>
      <trkpt lat="47.26434" lon="-1.61546">
        <ele>28.1</ele>
        <time>2014-08-03T09:29:26Z</time>
      </trkpt>
      <trkpt lat="47.26441" lon="-1.61557">
        <ele>28.4</ele>
        <time>2014-08-03T09:29:29Z</time>
      </trkpt>
      <trkpt lat="47.26449" lon="-1.61565">
        <ele>28.9</ele>
        <time>2014-08-03T09:29:33Z</time>
      </trkpt>
      <trkpt lat="47.26457" lon="-1.61574">
        <ele>29.2</ele>
        <time>2014-08-03T09:29:36Z</time>
      </trkpt>
      <trkpt lat="47.26465" lon="-1.61581">
        <ele>29.6</ele>
        <time>2014-08-03T09:29:39Z</time>
      </trkpt>
      <trkpt lat="47.26476" lon="-1.61586">
        <ele>30.4</ele>
        <time>2014-08-03T09:29:42Z</time>
      </trkpt>
      <trkpt lat="47.26485" lon="-1.61592">
        <ele>31</ele>
        <time>2014-08-03T09:29:45Z</time>
      </trkpt>
      <trkpt lat="47.26495" lon="-1.61595">
        <ele>31.6</ele>
        <time>2014-08-03T09:29:48Z</time>
      </trkpt>
      <trkpt lat="47.26507" lon="-1.61596">
        <ele>32.5</ele>
        <time>2014-08-03T09:29:51Z</time>
      </trkpt>
      <trkpt lat="47.26519" lon="-1.61605">
        <ele>33.5</ele>
        <time>2014-08-03T09:29:54Z</time>
      </trkpt>
      <trkpt lat="47.26526" lon="-1.61618">
        <ele>33.8</ele>
        <time>2014-08-03T09:29:57Z</time>
      </trkpt>
      <trkpt lat="47.26531" lon="-1.61633">
        <ele>34</ele>
        <time>2014-08-03T09:30:00Z</time>
      </trkpt>
      <trkpt lat="47.26538" lon="-1.61647">
        <ele>34.2</ele>
        <time>2014-08-03T09:30:03Z</time>
      </trkpt>
      <trkpt lat="47.26544" lon="-1.61661">
        <ele>34.3</ele>
        <time>2014-08-03T09:30:06Z</time>
      </trkpt>
      <trkpt lat="47.2655" lon="-1.61677">
        <ele>34.3</ele>
        <time>2014-08-03T09:30:09Z</time>
      </trkpt>
      <trkpt lat="47.26558" lon="-1.61691">
        <ele>34.3</ele>
        <time>2014-08-03T09:30:11Z</time>
      </trkpt>
      <trkpt lat="47.26566" lon="-1.61704">
        <ele>34</ele>
        <time>2014-08-03T09:30:13Z</time>
      </trkpt>
      <trkpt lat="47.26573" lon="-1.61714">
        <ele>33.5</ele>
        <time>2014-08-03T09:30:15Z</time>
      </trkpt>
      <trkpt lat="47.26583" lon="-1.61728">
        <ele>32.5</ele>
        <time>2014-08-03T09:30:18Z</time>
      </trkpt>
      <trkpt lat="47.26593" lon="-1.61739">
        <ele>32.5</ele>
        <time>2014-08-03T09:30:21Z</time>
      </trkpt>
      <trkpt lat="47.26604" lon="-1.61749">
        <ele>32.5</ele>
        <time>2014-08-03T09:30:24Z</time>
      </trkpt>
      <trkpt lat="47.26613" lon="-1.61754">
        <ele>33</ele>
        <time>2014-08-03T09:30:26Z</time>
      </trkpt>
      <trkpt lat="47.26622" lon="-1.61761">
        <ele>33.4</ele>
        <time>2014-08-03T09:30:29Z</time>
      </trkpt>
      <trkpt lat="47.26634" lon="-1.6177">
        <ele>33.4</ele>
        <time>2014-08-03T09:30:32Z</time>
      </trkpt>
      <trkpt lat="47.26643" lon="-1.61776">
        <ele>33.2</ele>
        <time>2014-08-03T09:30:34Z</time>
      </trkpt>
      <trkpt lat="47.26653" lon="-1.61782">
        <ele>32.9</ele>
        <time>2014-08-03T09:30:36Z</time>
      </trkpt>
      <trkpt lat="47.26663" lon="-1.61787">
        <ele>32.4</ele>
        <time>2014-08-03T09:30:38Z</time>
      </trkpt>
      <trkpt lat="47.26673" lon="-1.61794">
        <ele>32.6</ele>
        <time>2014-08-03T09:30:40Z</time>
      </trkpt>
      <trkpt lat="47.26682" lon="-1.61797">
        <ele>33.4</ele>
        <time>2014-08-03T09:30:42Z</time>
      </trkpt>
      <trkpt lat="47.26693" lon="-1.618">
        <ele>34.7</ele>
        <time>2014-08-03T09:30:45Z</time>
      </trkpt>
      <trkpt lat="47.26704" lon="-1.61803">
        <ele>35.8</ele>
        <time>2014-08-03T09:30:48Z</time>
      </trkpt>
      <trkpt lat="47.26714" lon="-1.61808">
        <ele>36.6</ele>
        <time>2014-08-03T09:30:50Z</time>
      </trkpt>
      <trkpt lat="47.26725" lon="-1.61816">
        <ele>37.2</ele>
        <time>2014-08-03T09:30:52Z</time>
      </trkpt>
      <trkpt lat="47.26733" lon="-1.61823">
        <ele>37.7</ele>
        <time>2014-08-03T09:30:55Z</time>
      </trkpt>
      <trkpt lat="47.26744" lon="-1.61834">
        <ele>38.1</ele>
        <time>2014-08-03T09:30:58Z</time>
      </trkpt>
      <trkpt lat="47.26751" lon="-1.61844">
        <ele>38.6</ele>
        <time>2014-08-03T09:31:00Z</time>
      </trkpt>
      <trkpt lat="47.26756" lon="-1.61855">
        <ele>38.3</ele>
        <time>2014-08-03T09:31:02Z</time>
      </trkpt>
      <trkpt lat="47.26756" lon="-1.61873">
        <ele>37.5</ele>
        <time>2014-08-03T09:31:05Z</time>
      </trkpt>
      <trkpt lat="47.26751" lon="-1.61889">
        <ele>36.4</ele>
        <time>2014-08-03T09:31:08Z</time>
      </trkpt>
      <trkpt lat="47.26749" lon="-1.61908">
        <ele>35.3</ele>
        <time>2014-08-03T09:31:11Z</time>
      </trkpt>
      <trkpt lat="47.26746" lon="-1.61927">
        <ele>34.2</ele>
        <time>2014-08-03T09:31:14Z</time>
      </trkpt>
      <trkpt lat="47.26744" lon="-1.61941">
        <ele>33.6</ele>
        <time>2014-08-03T09:31:16Z</time>
      </trkpt>
      <trkpt lat="47.26741" lon="-1.6196">
        <ele>32.6</ele>
        <time>2014-08-03T09:31:19Z</time>
      </trkpt>
      <trkpt lat="47.2674" lon="-1.61974">
        <ele>32.1</ele>
        <time>2014-08-03T09:31:21Z</time>
      </trkpt>
      <trkpt lat="47.26736" lon="-1.61986">
        <ele>31.3</ele>
        <time>2014-08-03T09:31:23Z</time>
      </trkpt>
      <trkpt lat="47.26734" lon="-1.62004">
        <ele>30.5</ele>
        <time>2014-08-03T09:31:26Z</time>
      </trkpt>
      <trkpt lat="47.26737" lon="-1.62023">
        <ele>29.3</ele>
        <time>2014-08-03T09:31:29Z</time>
      </trkpt>
      <trkpt lat="47.26737" lon="-1.6204">
        <ele>28.1</ele>
        <time>2014-08-03T09:31:32Z</time>
      </trkpt>
      <trkpt lat="47.2674" lon="-1.62053">
        <ele>27.3</ele>
        <time>2014-08-03T09:31:34Z</time>
      </trkpt>
      <trkpt lat="47.26745" lon="-1.62069">
        <ele>26.2</ele>
        <time>2014-08-03T09:31:37Z</time>
      </trkpt>
      <trkpt lat="47.26754" lon="-1.6208">
        <ele>25.1</ele>
        <time>2014-08-03T09:31:40Z</time>
      </trkpt>
      <trkpt lat="47.26762" lon="-1.62088">
        <ele>24</ele>
        <time>2014-08-03T09:31:43Z</time>
      </trkpt>
      <trkpt lat="47.26772" lon="-1.62095">
        <ele>23</ele>
        <time>2014-08-03T09:31:47Z</time>
      </trkpt>
      <trkpt lat="47.26782" lon="-1.62101">
        <ele>22.2</ele>
        <time>2014-08-03T09:31:50Z</time>
      </trkpt>
      <trkpt lat="47.26791" lon="-1.62106">
        <ele>21.6</ele>
        <time>2014-08-03T09:31:54Z</time>
      </trkpt>
      <trkpt lat="47.26802" lon="-1.62112">
        <ele>21</ele>
        <time>2014-08-03T09:31:58Z</time>
      </trkpt>
      <trkpt lat="47.26811" lon="-1.62115">
        <ele>20.7</ele>
        <time>2014-08-03T09:32:01Z</time>
      </trkpt>
      <trkpt lat="47.26821" lon="-1.62115">
        <ele>20.5</ele>
        <time>2014-08-03T09:32:05Z</time>
      </trkpt>
      <trkpt lat="47.26831" lon="-1.62114">
        <ele>20.3</ele>
        <time>2014-08-03T09:32:08Z</time>
      </trkpt>
      <trkpt lat="47.26841" lon="-1.62111">
        <ele>20.8</ele>
        <time>2014-08-03T09:32:12Z</time>
      </trkpt>
      <trkpt lat="47.2685" lon="-1.62108">
        <ele>21.2</ele>
        <time>2014-08-03T09:32:15Z</time>
      </trkpt>
      <trkpt lat="47.26861" lon="-1.62103">
        <ele>21.7</ele>
        <time>2014-08-03T09:32:19Z</time>
      </trkpt>
      <trkpt lat="47.26869" lon="-1.62094">
        <ele>22</ele>
        <time>2014-08-03T09:32:24Z</time>
      </trkpt>
      <trkpt lat="47.26878" lon="-1.62085">
        <ele>22.1</ele>
        <time>2014-08-03T09:32:30Z</time>
      </trkpt>
      <trkpt lat="47.26885" lon="-1.62075">
        <ele>23.1</ele>
        <time>2014-08-03T09:32:36Z</time>
      </trkpt>
      <trkpt lat="47.26883" lon="-1.62062">
        <ele>24.4</ele>
        <time>2014-08-03T09:32:41Z</time>
      </trkpt>
      <trkpt lat="47.26885" lon="-1.62049">
        <ele>25.8</ele>
        <time>2014-08-03T09:32:47Z</time>
      </trkpt>
      <trkpt lat="47.26891" lon="-1.62036">
        <ele>27.2</ele>
        <time>2014-08-03T09:32:53Z</time>
      </trkpt>
      <trkpt lat="47.26899" lon="-1.62028">
        <ele>28.1</ele>
        <time>2014-08-03T09:32:58Z</time>
      </trkpt>
      <trkpt lat="47.26903" lon="-1.62015">
        <ele>29.4</ele>
        <time>2014-08-03T09:33:07Z</time>
      </trkpt>
      <trkpt lat="47.26911" lon="-1.62005">
        <ele>30.4</ele>
        <time>2014-08-03T09:33:13Z</time>
      </trkpt>
      <trkpt lat="47.26916" lon="-1.61993">
        <ele>31.7</ele>
        <time>2014-08-03T09:33:20Z</time>
      </trkpt>
      <trkpt lat="47.26923" lon="-1.61985">
        <ele>32.8</ele>
        <time>2014-08-03T09:33:25Z</time>
      </trkpt>
      <trkpt lat="47.26927" lon="-1.61971">
        <ele>34.6</ele>
        <time>2014-08-03T09:33:32Z</time>
      </trkpt>
      <trkpt lat="47.2692" lon="-1.61961">
        <ele>35.4</ele>
        <time>2014-08-03T09:33:46Z</time>
      </trkpt>
      <trkpt lat="47.26913" lon="-1.61953">
        <ele>36.1</ele>
        <time>2014-08-03T09:33:57Z</time>
      </trkpt>
      <trkpt lat="47.26903" lon="-1.61953">
        <ele>36.1</ele>
        <time>2014-08-03T09:34:08Z</time>
      </trkpt>
      <trkpt lat="47.26893" lon="-1.61949">
        <ele>36.5</ele>
        <time>2014-08-03T09:34:15Z</time>
      </trkpt>
      <trkpt lat="47.26884" lon="-1.61949">
        <ele>36.5</ele>
        <time>2014-08-03T09:34:23Z</time>
      </trkpt>
      <trkpt lat="47.26876" lon="-1.6194">
        <ele>37.5</ele>
        <time>2014-08-03T09:34:29Z</time>
      </trkpt>
      <trkpt lat="47.26865" lon="-1.61937">
        <ele>37.7</ele>
        <time>2014-08-03T09:34:38Z</time>
      </trkpt>
      <trkpt lat="47.26856" lon="-1.61936">
        <ele>37.9</ele>
        <time>2014-08-03T09:34:47Z</time>
      </trkpt>
      <trkpt lat="47.26856" lon="-1.61922">
        <ele>39.4</ele>
        <time>2014-08-03T09:34:57Z</time>
      </trkpt>
      <trkpt lat="47.26859" lon="-1.61908">
        <ele>40.4</ele>
        <time>2014-08-03T09:35:05Z</time>
      </trkpt>
      <trkpt lat="47.26857" lon="-1.61894">
        <ele>41.3</ele>
        <time>2014-08-03T09:35:10Z</time>
      </trkpt>
      <trkpt lat="47.2686" lon="-1.6188">
        <ele>42</ele>
        <time>2014-08-03T09:35:15Z</time>
      </trkpt>
      <trkpt lat="47.26864" lon="-1.61867">
        <ele>42.8</ele>
        <time>2014-08-03T09:35:21Z</time>
      </trkpt>
      <trkpt lat="47.26868" lon="-1.61853">
        <ele>43.4</ele>
        <time>2014-08-03T09:35:29Z</time>
      </trkpt>
      <trkpt lat="47.2687" lon="-1.61838">
        <ele>44.3</ele>
        <time>2014-08-03T09:35:35Z</time>
      </trkpt>
      <trkpt lat="47.2687" lon="-1.61823">
        <ele>44.9</ele>
        <time>2014-08-03T09:35:40Z</time>
      </trkpt>
      <trkpt lat="47.26869" lon="-1.6181">
        <ele>45.5</ele>
        <time>2014-08-03T09:35:51Z</time>
      </trkpt>
      <trkpt lat="47.26875" lon="-1.61799">
        <ele>45.9</ele>
        <time>2014-08-03T09:36:00Z</time>
      </trkpt>
      <trkpt lat="47.26881" lon="-1.61786">
        <ele>46.4</ele>
        <time>2014-08-03T09:36:21Z</time>
      </trkpt>
      <trkpt lat="47.2688" lon="-1.61772">
        <ele>47.1</ele>
        <time>2014-08-03T09:36:27Z</time>
      </trkpt>
      <trkpt lat="47.26874" lon="-1.6176">
        <ele>47.6</ele>
        <time>2014-08-03T09:36:33Z</time>
      </trkpt>
      <trkpt lat="47.26863" lon="-1.6176">
        <ele>47.6</ele>
        <time>2014-08-03T09:36:39Z</time>
      </trkpt>
      <trkpt lat="47.26854" lon="-1.61756">
        <ele>47.7</ele>
        <time>2014-08-03T09:36:44Z</time>
      </trkpt>
      <trkpt lat="47.26845" lon="-1.61752">
        <ele>47.9</ele>
        <time>2014-08-03T09:36:51Z</time>
      </trkpt>
      <trkpt lat="47.26833" lon="-1.61751">
        <ele>48</ele>
        <time>2014-08-03T09:36:54Z</time>
      </trkpt>
      <trkpt lat="47.26824" lon="-1.61744">
        <ele>48</ele>
        <time>2014-08-03T09:36:58Z</time>
      </trkpt>
      <trkpt lat="47.26819" lon="-1.6173">
        <ele>48</ele>
        <time>2014-08-03T09:37:05Z</time>
      </trkpt>
      <trkpt lat="47.26812" lon="-1.61716">
        <ele>47.9</ele>
        <time>2014-08-03T09:37:10Z</time>
      </trkpt>
      <trkpt lat="47.26801" lon="-1.61707">
        <ele>47.8</ele>
        <time>2014-08-03T09:37:13Z</time>
      </trkpt>
      <trkpt lat="47.26792" lon="-1.61709">
        <ele>47.8</ele>
        <time>2014-08-03T09:37:17Z</time>
      </trkpt>
      <trkpt lat="47.26785" lon="-1.61717">
        <ele>47.8</ele>
        <time>2014-08-03T09:37:23Z</time>
      </trkpt>
      <trkpt lat="47.26776" lon="-1.61714">
        <ele>47.7</ele>
        <time>2014-08-03T09:37:29Z</time>
      </trkpt>
      <trkpt lat="47.2677" lon="-1.61701">
        <ele>47.6</ele>
        <time>2014-08-03T09:37:33Z</time>
      </trkpt>
      <trkpt lat="47.26759" lon="-1.61695">
        <ele>47.4</ele>
        <time>2014-08-03T09:37:36Z</time>
      </trkpt>
      <trkpt lat="47.2675" lon="-1.61687">
        <ele>47.3</ele>
        <time>2014-08-03T09:37:38Z</time>
      </trkpt>
      <trkpt lat="47.2674" lon="-1.6168">
        <ele>46.7</ele>
        <time>2014-08-03T09:37:41Z</time>
      </trkpt>
      <trkpt lat="47.26731" lon="-1.61678">
        <ele>46.2</ele>
        <time>2014-08-03T09:37:44Z</time>
      </trkpt>
      <trkpt lat="47.2672" lon="-1.61673">
        <ele>45.8</ele>
        <time>2014-08-03T09:37:47Z</time>
      </trkpt>
      <trkpt lat="47.26711" lon="-1.61668">
        <ele>45.6</ele>
        <time>2014-08-03T09:37:49Z</time>
      </trkpt>
      <trkpt lat="47.26701" lon="-1.61661">
        <ele>45.4</ele>
        <time>2014-08-03T09:37:51Z</time>
      </trkpt>
      <trkpt lat="47.26692" lon="-1.61657">
        <ele>45.2</ele>
        <time>2014-08-03T09:37:53Z</time>
      </trkpt>
      <trkpt lat="47.26681" lon="-1.61656">
        <ele>44.8</ele>
        <time>2014-08-03T09:37:56Z</time>
      </trkpt>
      <trkpt lat="47.26671" lon="-1.61657">
        <ele>44.5</ele>
        <time>2014-08-03T09:38:00Z</time>
      </trkpt>
      <trkpt lat="47.2666" lon="-1.61654">
        <ele>43.9</ele>
        <time>2014-08-03T09:38:04Z</time>
      </trkpt>
      <trkpt lat="47.26653" lon="-1.6164">
        <ele>43.8</ele>
        <time>2014-08-03T09:38:09Z</time>
      </trkpt>
      <trkpt lat="47.26648" lon="-1.61627">
        <ele>43.9</ele>
        <time>2014-08-03T09:38:14Z</time>
      </trkpt>
      <trkpt lat="47.26644" lon="-1.61615">
        <ele>43.9</ele>
        <time>2014-08-03T09:38:19Z</time>
      </trkpt>
      <trkpt lat="47.26641" lon="-1.61601">
        <ele>44.2</ele>
        <time>2014-08-03T09:38:25Z</time>
      </trkpt>
      <trkpt lat="47.26637" lon="-1.61586">
        <ele>44.4</ele>
        <time>2014-08-03T09:38:31Z</time>
      </trkpt>
      <trkpt lat="47.26634" lon="-1.61574">
        <ele>44.4</ele>
        <time>2014-08-03T09:38:35Z</time>
      </trkpt>
      <trkpt lat="47.2663" lon="-1.6156">
        <ele>44.3</ele>
        <time>2014-08-03T09:38:39Z</time>
      </trkpt>
      <trkpt lat="47.26628" lon="-1.61546">
        <ele>44.4</ele>
        <time>2014-08-03T09:38:46Z</time>
      </trkpt>
      <trkpt lat="47.2662" lon="-1.61535">
        <ele>44</ele>
        <time>2014-08-03T09:38:52Z</time>
      </trkpt>
      <trkpt lat="47.26609" lon="-1.61525">
        <ele>43.4</ele>
        <time>2014-08-03T09:38:56Z</time>
      </trkpt>
      <trkpt lat="47.266" lon="-1.61521">
        <ele>42.8</ele>
        <time>2014-08-03T09:38:59Z</time>
      </trkpt>
      <trkpt lat="47.26591" lon="-1.61521">
        <ele>42.1</ele>
        <time>2014-08-03T09:39:02Z</time>
      </trkpt>
      <trkpt lat="47.26581" lon="-1.61519">
        <ele>41.4</ele>
        <time>2014-08-03T09:39:13Z</time>
      </trkpt>
      <trkpt lat="47.26572" lon="-1.6152">
        <ele>40.7</ele>
        <time>2014-08-03T09:39:18Z</time>
      </trkpt>
      <trkpt lat="47.26563" lon="-1.61524">
        <ele>40</ele>
        <time>2014-08-03T09:39:27Z</time>
      </trkpt>
      <trkpt lat="47.26571" lon="-1.6153">
        <ele>40.4</ele>
        <time>2014-08-03T09:40:13Z</time>
      </trkpt>
      <trkpt lat="47.2658" lon="-1.61532">
        <ele>41</ele>
        <time>2014-08-03T09:40:25Z</time>
      </trkpt>
      <trkpt lat="47.26589" lon="-1.61538">
        <ele>41.5</ele>
        <time>2014-08-03T09:40:39Z</time>
      </trkpt>
      <trkpt lat="47.2658" lon="-1.61533">
        <ele>41</ele>
        <time>2014-08-03T09:41:48Z</time>
      </trkpt>
      <trkpt lat="47.26571" lon="-1.61525">
        <ele>40.5</ele>
        <time>2014-08-03T09:42:36Z</time>
      </trkpt>
      <trkpt lat="47.26562" lon="-1.61518">
        <ele>40.1</ele>
        <time>2014-08-03T09:42:42Z</time>
      </trkpt>
      <trkpt lat="47.26554" lon="-1.61525">
        <ele>39.3</ele>
        <time>2014-08-03T09:45:08Z</time>
      </trkpt>
      <trkpt lat="47.26547" lon="-1.61515">
        <ele>39.2</ele>
        <time>2014-08-03T09:45:35Z</time>
      </trkpt>
      <trkpt lat="47.26546" lon="-1.61501">
        <ele>39.7</ele>
        <time>2014-08-03T09:45:40Z</time>
      </trkpt>
      <trkpt lat="47.26541" lon="-1.6149">
        <ele>39.6</ele>
        <time>2014-08-03T09:45:49Z</time>
      </trkpt>
      <trkpt lat="47.26532" lon="-1.61482">
        <ele>39.2</ele>
        <time>2014-08-03T09:45:58Z</time>
      </trkpt>
      <trkpt lat="47.26533" lon="-1.61495">
        <ele>39</ele>
        <time>2014-08-03T09:46:27Z</time>
      </trkpt>
      <trkpt lat="47.26522" lon="-1.61496">
        <ele>38.4</ele>
        <time>2014-08-03T09:46:30Z</time>
      </trkpt>
      <trkpt lat="47.26515" lon="-1.61488">
        <ele>38.1</ele>
        <time>2014-08-03T09:46:37Z</time>
      </trkpt>
      <trkpt lat="47.26506" lon="-1.61481">
        <ele>37.8</ele>
        <time>2014-08-03T09:46:55Z</time>
      </trkpt>
      <trkpt lat="47.26496" lon="-1.61476">
        <ele>37.2</ele>
        <time>2014-08-03T09:46:59Z</time>
      </trkpt>
      <trkpt lat="47.26488" lon="-1.6147">
        <ele>36.5</ele>
        <time>2014-08-03T09:47:03Z</time>
      </trkpt>
      <trkpt lat="47.26479" lon="-1.61461">
        <ele>35.7</ele>
        <time>2014-08-03T09:47:08Z</time>
      </trkpt>
      <trkpt lat="47.26469" lon="-1.61453">
        <ele>35.1</ele>
        <time>2014-08-03T09:47:12Z</time>
      </trkpt>
      <trkpt lat="47.26461" lon="-1.61448">
        <ele>34.4</ele>
        <time>2014-08-03T09:47:16Z</time>
      </trkpt>
      <trkpt lat="47.26451" lon="-1.61445">
        <ele>33.6</ele>
        <time>2014-08-03T09:47:19Z</time>
      </trkpt>
      <trkpt lat="47.2644" lon="-1.6144">
        <ele>32.8</ele>
        <time>2014-08-03T09:47:22Z</time>
      </trkpt>
      <trkpt lat="47.26431" lon="-1.61435">
        <ele>32.2</ele>
        <time>2014-08-03T09:47:25Z</time>
      </trkpt>
      <trkpt lat="47.26422" lon="-1.61428">
        <ele>31.8</ele>
        <time>2014-08-03T09:47:30Z</time>
      </trkpt>
      <trkpt lat="47.26407" lon="-1.61425">
        <ele>30.9</ele>
        <time>2014-08-03T09:47:34Z</time>
      </trkpt>
      <trkpt lat="47.26396" lon="-1.61415">
        <ele>30.8</ele>
        <time>2014-08-03T09:47:36Z</time>
      </trkpt>
      <trkpt lat="47.26388" lon="-1.61405">
        <ele>30.4</ele>
        <time>2014-08-03T09:47:38Z</time>
      </trkpt>
      <trkpt lat="47.26379" lon="-1.61393">
        <ele>29.9</ele>
        <time>2014-08-03T09:47:41Z</time>
      </trkpt>
      <trkpt lat="47.26371" lon="-1.61382">
        <ele>29.4</ele>
        <time>2014-08-03T09:47:44Z</time>
      </trkpt>
      <trkpt lat="47.26365" lon="-1.61372">
        <ele>29.1</ele>
        <time>2014-08-03T09:47:49Z</time>
      </trkpt>
      <trkpt lat="47.26368" lon="-1.61359">
        <ele>29.4</ele>
        <time>2014-08-03T09:48:36Z</time>
      </trkpt>
      <trkpt lat="47.26371" lon="-1.61345">
        <ele>29.6</ele>
        <time>2014-08-03T09:48:40Z</time>
      </trkpt>
      <trkpt lat="47.26373" lon="-1.6133">
        <ele>29.6</ele>
        <time>2014-08-03T09:48:43Z</time>
      </trkpt>
      <trkpt lat="47.26376" lon="-1.61312">
        <ele>28.2</ele>
        <time>2014-08-03T09:48:46Z</time>
      </trkpt>
      <trkpt lat="47.26379" lon="-1.61294">
        <ele>26.8</ele>
        <time>2014-08-03T09:48:49Z</time>
      </trkpt>
      <trkpt lat="47.26383" lon="-1.6128">
        <ele>25.9</ele>
        <time>2014-08-03T09:48:51Z</time>
      </trkpt>
      <trkpt lat="47.26388" lon="-1.61265">
        <ele>24.9</ele>
        <time>2014-08-03T09:48:53Z</time>
      </trkpt>
      <trkpt lat="47.26396" lon="-1.61252">
        <ele>24.5</ele>
        <time>2014-08-03T09:48:55Z</time>
      </trkpt>
      <trkpt lat="47.26408" lon="-1.61238">
        <ele>25</ele>
        <time>2014-08-03T09:48:57Z</time>
      </trkpt>
      <trkpt lat="47.26418" lon="-1.61225">
        <ele>25.6</ele>
        <time>2014-08-03T09:48:59Z</time>
      </trkpt>
      <trkpt lat="47.2643" lon="-1.61211">
        <ele>26.6</ele>
        <time>2014-08-03T09:49:01Z</time>
      </trkpt>
      <trkpt lat="47.26442" lon="-1.61197">
        <ele>27.8</ele>
        <time>2014-08-03T09:49:03Z</time>
      </trkpt>
      <trkpt lat="47.26453" lon="-1.61182">
        <ele>28.6</ele>
        <time>2014-08-03T09:49:05Z</time>
      </trkpt>
      <trkpt lat="47.26461" lon="-1.6116">
        <ele>29.4</ele>
        <time>2014-08-03T09:49:07Z</time>
      </trkpt>
      <trkpt lat="47.26467" lon="-1.61141">
        <ele>30.4</ele>
        <time>2014-08-03T09:49:09Z</time>
      </trkpt>
      <trkpt lat="47.26473" lon="-1.61122">
        <ele>31.3</ele>
        <time>2014-08-03T09:49:11Z</time>
      </trkpt>
      <trkpt lat="47.26476" lon="-1.61105">
        <ele>31.8</ele>
        <time>2014-08-03T09:49:13Z</time>
      </trkpt>
      <trkpt lat="47.26477" lon="-1.61084">
        <ele>32.2</ele>
        <time>2014-08-03T09:49:15Z</time>
      </trkpt>
      <trkpt lat="47.26477" lon="-1.61064">
        <ele>33.9</ele>
        <time>2014-08-03T09:49:17Z</time>
      </trkpt>
      <trkpt lat="47.26476" lon="-1.61041">
        <ele>35.4</ele>
        <time>2014-08-03T09:49:19Z</time>
      </trkpt>
      <trkpt lat="47.26475" lon="-1.61021">
        <ele>36.9</ele>
        <time>2014-08-03T09:49:21Z</time>
      </trkpt>
      <trkpt lat="47.26474" lon="-1.61002">
        <ele>38.1</ele>
        <time>2014-08-03T09:49:23Z</time>
      </trkpt>
      <trkpt lat="47.2647" lon="-1.60983">
        <ele>38.9</ele>
        <time>2014-08-03T09:49:25Z</time>
      </trkpt>
      <trkpt lat="47.26463" lon="-1.60964">
        <ele>39.1</ele>
        <time>2014-08-03T09:49:27Z</time>
      </trkpt>
      <trkpt lat="47.26454" lon="-1.60946">
        <ele>39.5</ele>
        <time>2014-08-03T09:49:29Z</time>
      </trkpt>
      <trkpt lat="47.26445" lon="-1.60929">
        <ele>39.9</ele>
        <time>2014-08-03T09:49:31Z</time>
      </trkpt>
      <trkpt lat="47.26436" lon="-1.60913">
        <ele>40.2</ele>
        <time>2014-08-03T09:49:33Z</time>
      </trkpt>
      <trkpt lat="47.26425" lon="-1.60897">
        <ele>39.7</ele>
        <time>2014-08-03T09:49:35Z</time>
      </trkpt>
      <trkpt lat="47.26415" lon="-1.6088">
        <ele>38.9</ele>
        <time>2014-08-03T09:49:37Z</time>
      </trkpt>
      <trkpt lat="47.26405" lon="-1.60863">
        <ele>37.1</ele>
        <time>2014-08-03T09:49:39Z</time>
      </trkpt>
      <trkpt lat="47.26397" lon="-1.60847">
        <ele>35.8</ele>
        <time>2014-08-03T09:49:41Z</time>
      </trkpt>
      <trkpt lat="47.26392" lon="-1.60829">
        <ele>34.8</ele>
        <time>2014-08-03T09:49:43Z</time>
      </trkpt>
      <trkpt lat="47.26386" lon="-1.60812">
        <ele>34.1</ele>
        <time>2014-08-03T09:49:45Z</time>
      </trkpt>
      <trkpt lat="47.26377" lon="-1.60807">
        <ele>32</ele>
        <time>2014-08-03T09:49:48Z</time>
      </trkpt>
      <trkpt lat="47.26368" lon="-1.60813">
        <ele>29.6</ele>
        <time>2014-08-03T09:49:52Z</time>
      </trkpt>
      <trkpt lat="47.26358" lon="-1.60823">
        <ele>26.9</ele>
        <time>2014-08-03T09:49:54Z</time>
      </trkpt>
      <trkpt lat="47.26349" lon="-1.60833">
        <ele>23.9</ele>
        <time>2014-08-03T09:49:57Z</time>
      </trkpt>
      <trkpt lat="47.26339" lon="-1.60845">
        <ele>21.5</ele>
        <time>2014-08-03T09:50:00Z</time>
      </trkpt>
      <trkpt lat="47.26331" lon="-1.60857">
        <ele>20</ele>
        <time>2014-08-03T09:50:03Z</time>
      </trkpt>
      <trkpt lat="47.26324" lon="-1.60866">
        <ele>20.1</ele>
        <time>2014-08-03T09:50:06Z</time>
      </trkpt>
      <trkpt lat="47.26325" lon="-1.60848">
        <ele>20.1</ele>
        <time>2014-08-03T09:50:44Z</time>
      </trkpt>
      <trkpt lat="47.26331" lon="-1.60836">
        <ele>20</ele>
        <time>2014-08-03T09:50:46Z</time>
      </trkpt>
      <trkpt lat="47.26335" lon="-1.60824">
        <ele>21.1</ele>
        <time>2014-08-03T09:50:48Z</time>
      </trkpt>
      <trkpt lat="47.26339" lon="-1.60812">
        <ele>22.8</ele>
        <time>2014-08-03T09:50:50Z</time>
      </trkpt>
      <trkpt lat="47.26342" lon="-1.60799">
        <ele>24.4</ele>
        <time>2014-08-03T09:50:52Z</time>
      </trkpt>
      <trkpt lat="47.26345" lon="-1.60783">
        <ele>26.2</ele>
        <time>2014-08-03T09:50:54Z</time>
      </trkpt>
      <trkpt lat="47.26349" lon="-1.60767">
        <ele>28</ele>
        <time>2014-08-03T09:50:56Z</time>
      </trkpt>
      <trkpt lat="47.26352" lon="-1.60752">
        <ele>29.3</ele>
        <time>2014-08-03T09:50:58Z</time>
      </trkpt>
      <trkpt lat="47.26355" lon="-1.60739">
        <ele>30.7</ele>
        <time>2014-08-03T09:51:00Z</time>
      </trkpt>
      <trkpt lat="47.26359" lon="-1.60726">
        <ele>32.1</ele>
        <time>2014-08-03T09:51:02Z</time>
      </trkpt>
      <trkpt lat="47.26363" lon="-1.60709">
        <ele>33.8</ele>
        <time>2014-08-03T09:51:05Z</time>
      </trkpt>
      <trkpt lat="47.26366" lon="-1.60691">
        <ele>35.1</ele>
        <time>2014-08-03T09:51:08Z</time>
      </trkpt>
      <trkpt lat="47.26362" lon="-1.60675">
        <ele>35.3</ele>
        <time>2014-08-03T09:51:11Z</time>
      </trkpt>
      <trkpt lat="47.26356" lon="-1.60664">
        <ele>34.9</ele>
        <time>2014-08-03T09:51:14Z</time>
      </trkpt>
      <trkpt lat="47.26349" lon="-1.60654">
        <ele>33.7</ele>
        <time>2014-08-03T09:51:16Z</time>
      </trkpt>
      <trkpt lat="47.26341" lon="-1.60646">
        <ele>32.3</ele>
        <time>2014-08-03T09:51:18Z</time>
      </trkpt>
      <trkpt lat="47.26332" lon="-1.60639">
        <ele>30.9</ele>
        <time>2014-08-03T09:51:20Z</time>
      </trkpt>
      <trkpt lat="47.26327" lon="-1.60629">
        <ele>29.8</ele>
        <time>2014-08-03T09:51:22Z</time>
      </trkpt>
      <trkpt lat="47.26321" lon="-1.60612">
        <ele>28.6</ele>
        <time>2014-08-03T09:51:24Z</time>
      </trkpt>
      <trkpt lat="47.26317" lon="-1.60596">
        <ele>27.6</ele>
        <time>2014-08-03T09:51:26Z</time>
      </trkpt>
      <trkpt lat="47.26313" lon="-1.60577">
        <ele>26.6</ele>
        <time>2014-08-03T09:51:28Z</time>
      </trkpt>
      <trkpt lat="47.26313" lon="-1.60556">
        <ele>25.6</ele>
        <time>2014-08-03T09:51:30Z</time>
      </trkpt>
      <trkpt lat="47.26314" lon="-1.60535">
        <ele>24.8</ele>
        <time>2014-08-03T09:51:32Z</time>
      </trkpt>
      <trkpt lat="47.26315" lon="-1.60518">
        <ele>24.3</ele>
        <time>2014-08-03T09:51:34Z</time>
      </trkpt>
      <trkpt lat="47.26317" lon="-1.60501">
        <ele>23.7</ele>
        <time>2014-08-03T09:51:36Z</time>
      </trkpt>
      <trkpt lat="47.2632" lon="-1.60484">
        <ele>24</ele>
        <time>2014-08-03T09:51:38Z</time>
      </trkpt>
      <trkpt lat="47.26322" lon="-1.60469">
        <ele>24.4</ele>
        <time>2014-08-03T09:51:40Z</time>
      </trkpt>
      <trkpt lat="47.26324" lon="-1.60455">
        <ele>24.8</ele>
        <time>2014-08-03T09:51:42Z</time>
      </trkpt>
      <trkpt lat="47.26327" lon="-1.60436">
        <ele>25.2</ele>
        <time>2014-08-03T09:51:45Z</time>
      </trkpt>
      <trkpt lat="47.2633" lon="-1.60418">
        <ele>25.7</ele>
        <time>2014-08-03T09:51:48Z</time>
      </trkpt>
      <trkpt lat="47.26333" lon="-1.60401">
        <ele>26</ele>
        <time>2014-08-03T09:51:51Z</time>
      </trkpt>
      <trkpt lat="47.26335" lon="-1.60381">
        <ele>26.3</ele>
        <time>2014-08-03T09:51:54Z</time>
      </trkpt>
      <trkpt lat="47.26337" lon="-1.60367">
        <ele>26.4</ele>
        <time>2014-08-03T09:51:56Z</time>
      </trkpt>
      <trkpt lat="47.26339" lon="-1.60351">
        <ele>26.6</ele>
        <time>2014-08-03T09:51:58Z</time>
      </trkpt>
      <trkpt lat="47.2634" lon="-1.60337">
        <ele>26.7</ele>
        <time>2014-08-03T09:52:00Z</time>
      </trkpt>
      <trkpt lat="47.26341" lon="-1.60319">
        <ele>27</ele>
        <time>2014-08-03T09:52:02Z</time>
      </trkpt>
      <trkpt lat="47.26343" lon="-1.60305">
        <ele>27.4</ele>
        <time>2014-08-03T09:52:04Z</time>
      </trkpt>
      <trkpt lat="47.26346" lon="-1.60291">
        <ele>27.9</ele>
        <time>2014-08-03T09:52:06Z</time>
      </trkpt>
      <trkpt lat="47.2635" lon="-1.60276">
        <ele>28.4</ele>
        <time>2014-08-03T09:52:08Z</time>
      </trkpt>
      <trkpt lat="47.26352" lon="-1.60259">
        <ele>28.9</ele>
        <time>2014-08-03T09:52:10Z</time>
      </trkpt>
      <trkpt lat="47.26352" lon="-1.60245">
        <ele>29.2</ele>
        <time>2014-08-03T09:52:12Z</time>
      </trkpt>
      <trkpt lat="47.26348" lon="-1.60233">
        <ele>29.1</ele>
        <time>2014-08-03T09:52:14Z</time>
      </trkpt>
      <trkpt lat="47.26342" lon="-1.60217">
        <ele>29</ele>
        <time>2014-08-03T09:52:16Z</time>
      </trkpt>
      <trkpt lat="47.2633" lon="-1.602">
        <ele>28.5</ele>
        <time>2014-08-03T09:52:18Z</time>
      </trkpt>
      <trkpt lat="47.26318" lon="-1.60187">
        <ele>27.9</ele>
        <time>2014-08-03T09:52:20Z</time>
      </trkpt>
      <trkpt lat="47.2631" lon="-1.60179">
        <ele>27.3</ele>
        <time>2014-08-03T09:52:22Z</time>
      </trkpt>
      <trkpt lat="47.26302" lon="-1.6017">
        <ele>26.8</ele>
        <time>2014-08-03T09:52:24Z</time>
      </trkpt>
      <trkpt lat="47.26295" lon="-1.60161">
        <ele>26.5</ele>
        <time>2014-08-03T09:52:26Z</time>
      </trkpt>
      <trkpt lat="47.26288" lon="-1.60144">
        <ele>26.7</ele>
        <time>2014-08-03T09:52:29Z</time>
      </trkpt>
      <trkpt lat="47.26283" lon="-1.60131">
        <ele>27</ele>
        <time>2014-08-03T09:52:31Z</time>
      </trkpt>
      <trkpt lat="47.26277" lon="-1.60116">
        <ele>27.2</ele>
        <time>2014-08-03T09:52:33Z</time>
      </trkpt>
      <trkpt lat="47.2627" lon="-1.60104">
        <ele>27.3</ele>
        <time>2014-08-03T09:52:35Z</time>
      </trkpt>
      <trkpt lat="47.26263" lon="-1.60094">
        <ele>27.3</ele>
        <time>2014-08-03T09:52:37Z</time>
      </trkpt>
      <trkpt lat="47.26255" lon="-1.60089">
        <ele>27</ele>
        <time>2014-08-03T09:52:39Z</time>
      </trkpt>
      <trkpt lat="47.26242" lon="-1.60089">
        <ele>25.7</ele>
        <time>2014-08-03T09:52:42Z</time>
      </trkpt>
      <trkpt lat="47.2623" lon="-1.60095">
        <ele>24</ele>
        <time>2014-08-03T09:52:45Z</time>
      </trkpt>
      <trkpt lat="47.26218" lon="-1.60099">
        <ele>22.5</ele>
        <time>2014-08-03T09:52:48Z</time>
      </trkpt>
      <trkpt lat="47.26209" lon="-1.60096">
        <ele>21.5</ele>
        <time>2014-08-03T09:52:50Z</time>
      </trkpt>
      <trkpt lat="47.26198" lon="-1.60089">
        <ele>20.3</ele>
        <time>2014-08-03T09:52:53Z</time>
      </trkpt>
      <trkpt lat="47.26194" lon="-1.60076">
        <ele>19.8</ele>
        <time>2014-08-03T09:52:55Z</time>
      </trkpt>
      <trkpt lat="47.26193" lon="-1.60056">
        <ele>20.3</ele>
        <time>2014-08-03T09:52:57Z</time>
      </trkpt>
      <trkpt lat="47.26198" lon="-1.60039">
        <ele>21.4</ele>
        <time>2014-08-03T09:52:59Z</time>
      </trkpt>
      <trkpt lat="47.26201" lon="-1.60026">
        <ele>22.4</ele>
        <time>2014-08-03T09:53:01Z</time>
      </trkpt>
      <trkpt lat="47.26207" lon="-1.6001">
        <ele>24</ele>
        <time>2014-08-03T09:53:03Z</time>
      </trkpt>
      <trkpt lat="47.26214" lon="-1.59996">
        <ele>25.4</ele>
        <time>2014-08-03T09:53:05Z</time>
      </trkpt>
      <trkpt lat="47.2622" lon="-1.59983">
        <ele>26.2</ele>
        <time>2014-08-03T09:53:07Z</time>
      </trkpt>
      <trkpt lat="47.26226" lon="-1.59973">
        <ele>26.9</ele>
        <time>2014-08-03T09:53:09Z</time>
      </trkpt>
      <trkpt lat="47.26232" lon="-1.59962">
        <ele>27.6</ele>
        <time>2014-08-03T09:53:11Z</time>
      </trkpt>
      <trkpt lat="47.26238" lon="-1.59951">
        <ele>28.2</ele>
        <time>2014-08-03T09:53:13Z</time>
      </trkpt>
      <trkpt lat="47.26243" lon="-1.5994">
        <ele>28.7</ele>
        <time>2014-08-03T09:53:15Z</time>
      </trkpt>
      <trkpt lat="47.26248" lon="-1.59927">
        <ele>29.1</ele>
        <time>2014-08-03T09:53:17Z</time>
      </trkpt>
      <trkpt lat="47.2625" lon="-1.59914">
        <ele>28.9</ele>
        <time>2014-08-03T09:53:19Z</time>
      </trkpt>
      <trkpt lat="47.26251" lon="-1.59895">
        <ele>28.3</ele>
        <time>2014-08-03T09:53:21Z</time>
      </trkpt>
      <trkpt lat="47.26252" lon="-1.59877">
        <ele>27.8</ele>
        <time>2014-08-03T09:53:23Z</time>
      </trkpt>
      <trkpt lat="47.26254" lon="-1.59863">
        <ele>27.4</ele>
        <time>2014-08-03T09:53:25Z</time>
      </trkpt>
      <trkpt lat="47.26255" lon="-1.59843">
        <ele>26.7</ele>
        <time>2014-08-03T09:53:28Z</time>
      </trkpt>
      <trkpt lat="47.26254" lon="-1.59826">
        <ele>26.1</ele>
        <time>2014-08-03T09:53:30Z</time>
      </trkpt>
      <trkpt lat="47.26251" lon="-1.5981">
        <ele>25.5</ele>
        <time>2014-08-03T09:53:33Z</time>
      </trkpt>
      <trkpt lat="47.26248" lon="-1.59797">
        <ele>24.9</ele>
        <time>2014-08-03T09:53:36Z</time>
      </trkpt>
      <trkpt lat="47.26245" lon="-1.59784">
        <ele>24.2</ele>
        <time>2014-08-03T09:53:39Z</time>
      </trkpt>
      <trkpt lat="47.2624" lon="-1.59773">
        <ele>23.3</ele>
        <time>2014-08-03T09:53:43Z</time>
      </trkpt>
      <trkpt lat="47.26231" lon="-1.59764">
        <ele>22</ele>
        <time>2014-08-03T09:53:48Z</time>
      </trkpt>
      <trkpt lat="47.26224" lon="-1.59754">
        <ele>20.9</ele>
        <time>2014-08-03T09:53:51Z</time>
      </trkpt>
      <trkpt lat="47.26215" lon="-1.59744">
        <ele>19.9</ele>
        <time>2014-08-03T09:53:54Z</time>
      </trkpt>
      <trkpt lat="47.26208" lon="-1.59736">
        <ele>19.2</ele>
        <time>2014-08-03T09:53:57Z</time>
      </trkpt>
      <trkpt lat="47.26197" lon="-1.59728">
        <ele>18.2</ele>
        <time>2014-08-03T09:54:00Z</time>
      </trkpt>
      <trkpt lat="47.26185" lon="-1.59724">
        <ele>17.2</ele>
        <time>2014-08-03T09:54:03Z</time>
      </trkpt>
      <trkpt lat="47.26174" lon="-1.59722">
        <ele>16.1</ele>
        <time>2014-08-03T09:54:06Z</time>
      </trkpt>
      <trkpt lat="47.26163" lon="-1.59721">
        <ele>15.3</ele>
        <time>2014-08-03T09:54:09Z</time>
      </trkpt>
      <trkpt lat="47.26151" lon="-1.59718">
        <ele>15.3</ele>
        <time>2014-08-03T09:54:12Z</time>
      </trkpt>
      <trkpt lat="47.26139" lon="-1.59715">
        <ele>15.3</ele>
        <time>2014-08-03T09:54:15Z</time>
      </trkpt>
      <trkpt lat="47.26127" lon="-1.59712">
        <ele>15.3</ele>
        <time>2014-08-03T09:54:18Z</time>
      </trkpt>
      <trkpt lat="47.26115" lon="-1.59708">
        <ele>15.4</ele>
        <time>2014-08-03T09:54:21Z</time>
      </trkpt>
      <trkpt lat="47.26106" lon="-1.59705">
        <ele>15.4</ele>
        <time>2014-08-03T09:54:23Z</time>
      </trkpt>
      <trkpt lat="47.26095" lon="-1.59703">
        <ele>15.4</ele>
        <time>2014-08-03T09:54:25Z</time>
      </trkpt>
      <trkpt lat="47.26082" lon="-1.597">
        <ele>15.4</ele>
        <time>2014-08-03T09:54:28Z</time>
      </trkpt>
      <trkpt lat="47.26073" lon="-1.59695">
        <ele>15.4</ele>
        <time>2014-08-03T09:54:30Z</time>
      </trkpt>
      <trkpt lat="47.26063" lon="-1.59687">
        <ele>15.5</ele>
        <time>2014-08-03T09:54:32Z</time>
      </trkpt>
      <trkpt lat="47.26054" lon="-1.59679">
        <ele>15.5</ele>
        <time>2014-08-03T09:54:34Z</time>
      </trkpt>
      <trkpt lat="47.26045" lon="-1.59672">
        <ele>15.5</ele>
        <time>2014-08-03T09:54:36Z</time>
      </trkpt>
      <trkpt lat="47.26035" lon="-1.59665">
        <ele>15.4</ele>
        <time>2014-08-03T09:54:38Z</time>
      </trkpt>
      <trkpt lat="47.26026" lon="-1.59657">
        <ele>15.5</ele>
        <time>2014-08-03T09:54:40Z</time>
      </trkpt>
      <trkpt lat="47.26017" lon="-1.59651">
        <ele>15.6</ele>
        <time>2014-08-03T09:54:42Z</time>
      </trkpt>
      <trkpt lat="47.26008" lon="-1.59643">
        <ele>15.9</ele>
        <time>2014-08-03T09:54:44Z</time>
      </trkpt>
      <trkpt lat="47.26" lon="-1.59634">
        <ele>16.3</ele>
        <time>2014-08-03T09:54:46Z</time>
      </trkpt>
      <trkpt lat="47.25992" lon="-1.59624">
        <ele>17</ele>
        <time>2014-08-03T09:54:48Z</time>
      </trkpt>
      <trkpt lat="47.25987" lon="-1.59612">
        <ele>17.8</ele>
        <time>2014-08-03T09:54:50Z</time>
      </trkpt>
      <trkpt lat="47.25981" lon="-1.59599">
        <ele>18.5</ele>
        <time>2014-08-03T09:54:52Z</time>
      </trkpt>
      <trkpt lat="47.25977" lon="-1.59584">
        <ele>19.1</ele>
        <time>2014-08-03T09:54:54Z</time>
      </trkpt>
      <trkpt lat="47.25975" lon="-1.59569">
        <ele>19.4</ele>
        <time>2014-08-03T09:54:56Z</time>
      </trkpt>
      <trkpt lat="47.25973" lon="-1.59552">
        <ele>19.5</ele>
        <time>2014-08-03T09:54:58Z</time>
      </trkpt>
      <trkpt lat="47.25973" lon="-1.59537">
        <ele>19.8</ele>
        <time>2014-08-03T09:55:00Z</time>
      </trkpt>
      <trkpt lat="47.25974" lon="-1.59524">
        <ele>20</ele>
        <time>2014-08-03T09:55:02Z</time>
      </trkpt>
      <trkpt lat="47.25976" lon="-1.59509">
        <ele>20.4</ele>
        <time>2014-08-03T09:55:04Z</time>
      </trkpt>
      <trkpt lat="47.25975" lon="-1.59492">
        <ele>20.6</ele>
        <time>2014-08-03T09:55:06Z</time>
      </trkpt>
      <trkpt lat="47.25971" lon="-1.59473">
        <ele>20.6</ele>
        <time>2014-08-03T09:55:09Z</time>
      </trkpt>
      <trkpt lat="47.25968" lon="-1.59459">
        <ele>20.5</ele>
        <time>2014-08-03T09:55:11Z</time>
      </trkpt>
      <trkpt lat="47.25968" lon="-1.59446">
        <ele>20.7</ele>
        <time>2014-08-03T09:55:13Z</time>
      </trkpt>
      <trkpt lat="47.25973" lon="-1.59431">
        <ele>21.2</ele>
        <time>2014-08-03T09:55:15Z</time>
      </trkpt>
      <trkpt lat="47.25979" lon="-1.59419">
        <ele>21.9</ele>
        <time>2014-08-03T09:55:17Z</time>
      </trkpt>
      <trkpt lat="47.25986" lon="-1.59405">
        <ele>22.9</ele>
        <time>2014-08-03T09:55:19Z</time>
      </trkpt>
      <trkpt lat="47.25993" lon="-1.59395">
        <ele>23.9</ele>
        <time>2014-08-03T09:55:21Z</time>
      </trkpt>
      <trkpt lat="47.26" lon="-1.59383">
        <ele>24.8</ele>
        <time>2014-08-03T09:55:23Z</time>
      </trkpt>
      <trkpt lat="47.26006" lon="-1.59371">
        <ele>25.3</ele>
        <time>2014-08-03T09:55:25Z</time>
      </trkpt>
      <trkpt lat="47.26012" lon="-1.59357">
        <ele>25.7</ele>
        <time>2014-08-03T09:55:27Z</time>
      </trkpt>
      <trkpt lat="47.26017" lon="-1.59345">
        <ele>26.2</ele>
        <time>2014-08-03T09:55:29Z</time>
      </trkpt>
      <trkpt lat="47.26022" lon="-1.5933">
        <ele>26.6</ele>
        <time>2014-08-03T09:55:31Z</time>
      </trkpt>
      <trkpt lat="47.26027" lon="-1.59315">
        <ele>27</ele>
        <time>2014-08-03T09:55:33Z</time>
      </trkpt>
      <trkpt lat="47.26029" lon="-1.59302">
        <ele>27.3</ele>
        <time>2014-08-03T09:55:35Z</time>
      </trkpt>
      <trkpt lat="47.26028" lon="-1.59287">
        <ele>27.6</ele>
        <time>2014-08-03T09:55:37Z</time>
      </trkpt>
      <trkpt lat="47.26024" lon="-1.59272">
        <ele>27.8</ele>
        <time>2014-08-03T09:55:39Z</time>
      </trkpt>
      <trkpt lat="47.26021" lon="-1.59256">
        <ele>28.1</ele>
        <time>2014-08-03T09:55:41Z</time>
      </trkpt>
      <trkpt lat="47.26018" lon="-1.59237">
        <ele>28.3</ele>
        <time>2014-08-03T09:55:43Z</time>
      </trkpt>
      <trkpt lat="47.26011" lon="-1.59223">
        <ele>28.2</ele>
        <time>2014-08-03T09:55:45Z</time>
      </trkpt>
      <trkpt lat="47.25999" lon="-1.59213">
        <ele>27.9</ele>
        <time>2014-08-03T09:55:48Z</time>
      </trkpt>
      <trkpt lat="47.25989" lon="-1.59208">
        <ele>27.1</ele>
        <time>2014-08-03T09:55:50Z</time>
      </trkpt>
      <trkpt lat="47.25977" lon="-1.59205">
        <ele>26.1</ele>
        <time>2014-08-03T09:55:52Z</time>
      </trkpt>
      <trkpt lat="47.25966" lon="-1.59201">
        <ele>25.2</ele>
        <time>2014-08-03T09:55:54Z</time>
      </trkpt>
      <trkpt lat="47.25957" lon="-1.59198">
        <ele>24.5</ele>
        <time>2014-08-03T09:55:56Z</time>
      </trkpt>
      <trkpt lat="47.25946" lon="-1.59197">
        <ele>23.6</ele>
        <time>2014-08-03T09:55:58Z</time>
      </trkpt>
      <trkpt lat="47.25936" lon="-1.59196">
        <ele>22.8</ele>
        <time>2014-08-03T09:56:00Z</time>
      </trkpt>
      <trkpt lat="47.25923" lon="-1.59201">
        <ele>21.7</ele>
        <time>2014-08-03T09:56:03Z</time>
      </trkpt>
      <trkpt lat="47.25913" lon="-1.59213">
        <ele>20.9</ele>
        <time>2014-08-03T09:56:06Z</time>
      </trkpt>
      <trkpt lat="47.25906" lon="-1.59228">
        <ele>20.5</ele>
        <time>2014-08-03T09:56:08Z</time>
      </trkpt>
      <trkpt lat="47.25897" lon="-1.59244">
        <ele>19.9</ele>
        <time>2014-08-03T09:56:10Z</time>
      </trkpt>
      <trkpt lat="47.2589" lon="-1.59256">
        <ele>19.7</ele>
        <time>2014-08-03T09:56:12Z</time>
      </trkpt>
      <trkpt lat="47.25879" lon="-1.59266">
        <ele>19.6</ele>
        <time>2014-08-03T09:56:15Z</time>
      </trkpt>
      <trkpt lat="47.25869" lon="-1.59269">
        <ele>19.6</ele>
        <time>2014-08-03T09:56:17Z</time>
      </trkpt>
      <trkpt lat="47.25858" lon="-1.59268">
        <ele>19.5</ele>
        <time>2014-08-03T09:56:19Z</time>
      </trkpt>
      <trkpt lat="47.25847" lon="-1.59264">
        <ele>19.4</ele>
        <time>2014-08-03T09:56:21Z</time>
      </trkpt>
      <trkpt lat="47.25837" lon="-1.59257">
        <ele>19.2</ele>
        <time>2014-08-03T09:56:23Z</time>
      </trkpt>
      <trkpt lat="47.25826" lon="-1.5925">
        <ele>19.2</ele>
        <time>2014-08-03T09:56:25Z</time>
      </trkpt>
      <trkpt lat="47.25818" lon="-1.59239">
        <ele>20.1</ele>
        <time>2014-08-03T09:56:27Z</time>
      </trkpt>
      <trkpt lat="47.25811" lon="-1.59229">
        <ele>20.8</ele>
        <time>2014-08-03T09:56:29Z</time>
      </trkpt>
      <trkpt lat="47.25803" lon="-1.59215">
        <ele>21.5</ele>
        <time>2014-08-03T09:56:31Z</time>
      </trkpt>
      <trkpt lat="47.25794" lon="-1.59205">
        <ele>22.1</ele>
        <time>2014-08-03T09:56:33Z</time>
      </trkpt>
      <trkpt lat="47.25787" lon="-1.59193">
        <ele>22.5</ele>
        <time>2014-08-03T09:56:35Z</time>
      </trkpt>
      <trkpt lat="47.2578" lon="-1.5918">
        <ele>23</ele>
        <time>2014-08-03T09:56:37Z</time>
      </trkpt>
      <trkpt lat="47.25773" lon="-1.5917">
        <ele>23.2</ele>
        <time>2014-08-03T09:56:39Z</time>
      </trkpt>
      <trkpt lat="47.25764" lon="-1.59161">
        <ele>23.4</ele>
        <time>2014-08-03T09:56:42Z</time>
      </trkpt>
      <trkpt lat="47.25754" lon="-1.59151">
        <ele>23.5</ele>
        <time>2014-08-03T09:56:45Z</time>
      </trkpt>
      <trkpt lat="47.25745" lon="-1.59141">
        <ele>23.4</ele>
        <time>2014-08-03T09:56:48Z</time>
      </trkpt>
      <trkpt lat="47.25735" lon="-1.59133">
        <ele>23</ele>
        <time>2014-08-03T09:56:51Z</time>
      </trkpt>
      <trkpt lat="47.25725" lon="-1.59133">
        <ele>22.5</ele>
        <time>2014-08-03T09:56:59Z</time>
      </trkpt>
      <trkpt lat="47.25716" lon="-1.59136">
        <ele>22.1</ele>
        <time>2014-08-03T09:57:06Z</time>
      </trkpt>
      <trkpt lat="47.25723" lon="-1.59128">
        <ele>22.5</ele>
        <time>2014-08-03T09:57:28Z</time>
      </trkpt>
      <trkpt lat="47.25715" lon="-1.59123">
        <ele>22.1</ele>
        <time>2014-08-03T10:00:08Z</time>
      </trkpt>
      <trkpt lat="47.25705" lon="-1.59118">
        <ele>21.6</ele>
        <time>2014-08-03T10:00:13Z</time>
      </trkpt>
      <trkpt lat="47.25696" lon="-1.59119">
        <ele>21.1</ele>
        <time>2014-08-03T10:00:33Z</time>
      </trkpt>
      <trkpt lat="47.25691" lon="-1.5913">
        <ele>20.8</ele>
        <time>2014-08-03T10:00:44Z</time>
      </trkpt>
      <trkpt lat="47.25683" lon="-1.59136">
        <ele>20.4</ele>
        <time>2014-08-03T10:01:15Z</time>
      </trkpt>
      <trkpt lat="47.25675" lon="-1.59143">
        <ele>20.1</ele>
        <time>2014-08-03T10:01:40Z</time>
      </trkpt>
      <trkpt lat="47.25667" lon="-1.5915">
        <ele>19.8</ele>
        <time>2014-08-03T10:01:50Z</time>
      </trkpt>
      <trkpt lat="47.25659" lon="-1.59158">
        <ele>20.4</ele>
        <time>2014-08-03T10:02:06Z</time>
      </trkpt>
      <trkpt lat="47.25651" lon="-1.59166">
        <ele>21.1</ele>
        <time>2014-08-03T10:02:15Z</time>
      </trkpt>
      <trkpt lat="47.25647" lon="-1.59178">
        <ele>22.2</ele>
        <time>2014-08-03T10:02:44Z</time>
      </trkpt>
      <trkpt lat="47.25638" lon="-1.5918">
        <ele>22.9</ele>
        <time>2014-08-03T10:03:09Z</time>
      </trkpt>
      <trkpt lat="47.25631" lon="-1.59189">
        <ele>24.1</ele>
        <time>2014-08-03T10:03:14Z</time>
      </trkpt>
      <trkpt lat="47.25623" lon="-1.59197">
        <ele>25.2</ele>
        <time>2014-08-03T10:03:19Z</time>
      </trkpt>
      <trkpt lat="47.25615" lon="-1.59206">
        <ele>26.4</ele>
        <time>2014-08-03T10:03:23Z</time>
      </trkpt>
      <trkpt lat="47.25606" lon="-1.59216">
        <ele>27.5</ele>
        <time>2014-08-03T10:03:26Z</time>
      </trkpt>
      <trkpt lat="47.25599" lon="-1.59227">
        <ele>28.6</ele>
        <time>2014-08-03T10:03:29Z</time>
      </trkpt>
      <trkpt lat="47.25599" lon="-1.59242">
        <ele>29.5</ele>
        <time>2014-08-03T10:03:32Z</time>
      </trkpt>
      <trkpt lat="47.25603" lon="-1.59256">
        <ele>30.2</ele>
        <time>2014-08-03T10:03:35Z</time>
      </trkpt>
      <trkpt lat="47.2561" lon="-1.59268">
        <ele>30.6</ele>
        <time>2014-08-03T10:03:38Z</time>
      </trkpt>
      <trkpt lat="47.25615" lon="-1.59278">
        <ele>30.9</ele>
        <time>2014-08-03T10:03:41Z</time>
      </trkpt>
      <trkpt lat="47.25623" lon="-1.59292">
        <ele>31.4</ele>
        <time>2014-08-03T10:03:45Z</time>
      </trkpt>
      <trkpt lat="47.25629" lon="-1.59304">
        <ele>31.9</ele>
        <time>2014-08-03T10:03:48Z</time>
      </trkpt>
      <trkpt lat="47.25635" lon="-1.59316">
        <ele>32.4</ele>
        <time>2014-08-03T10:03:52Z</time>
      </trkpt>
      <trkpt lat="47.2564" lon="-1.59332">
        <ele>33.2</ele>
        <time>2014-08-03T10:03:56Z</time>
      </trkpt>
      <trkpt lat="47.25645" lon="-1.59344">
        <ele>33.5</ele>
        <time>2014-08-03T10:03:59Z</time>
      </trkpt>
      <trkpt lat="47.2565" lon="-1.59356">
        <ele>33.9</ele>
        <time>2014-08-03T10:04:02Z</time>
      </trkpt>
      <trkpt lat="47.25656" lon="-1.59368">
        <ele>34.2</ele>
        <time>2014-08-03T10:04:05Z</time>
      </trkpt>
      <trkpt lat="47.25661" lon="-1.59379">
        <ele>34.5</ele>
        <time>2014-08-03T10:04:08Z</time>
      </trkpt>
      <trkpt lat="47.25667" lon="-1.59392">
        <ele>34.9</ele>
        <time>2014-08-03T10:04:12Z</time>
      </trkpt>
      <trkpt lat="47.25672" lon="-1.59407">
        <ele>35.3</ele>
        <time>2014-08-03T10:04:16Z</time>
      </trkpt>
      <trkpt lat="47.2567" lon="-1.59423">
        <ele>35.9</ele>
        <time>2014-08-03T10:04:20Z</time>
      </trkpt>
      <trkpt lat="47.25661" lon="-1.59432">
        <ele>36.5</ele>
        <time>2014-08-03T10:04:23Z</time>
      </trkpt>
      <trkpt lat="47.25651" lon="-1.59441">
        <ele>37</ele>
        <time>2014-08-03T10:04:26Z</time>
      </trkpt>
      <trkpt lat="47.25643" lon="-1.59448">
        <ele>37.5</ele>
        <time>2014-08-03T10:04:29Z</time>
      </trkpt>
      <trkpt lat="47.25632" lon="-1.59457">
        <ele>38.1</ele>
        <time>2014-08-03T10:04:33Z</time>
      </trkpt>
      <trkpt lat="47.25624" lon="-1.59464">
        <ele>38.6</ele>
        <time>2014-08-03T10:04:36Z</time>
      </trkpt>
      <trkpt lat="47.25615" lon="-1.59472">
        <ele>39.1</ele>
        <time>2014-08-03T10:04:39Z</time>
      </trkpt>
      <trkpt lat="47.25606" lon="-1.5948">
        <ele>39.7</ele>
        <time>2014-08-03T10:04:43Z</time>
      </trkpt>
      <trkpt lat="47.25598" lon="-1.59488">
        <ele>40.2</ele>
        <time>2014-08-03T10:04:46Z</time>
      </trkpt>
      <trkpt lat="47.2559" lon="-1.59496">
        <ele>40.6</ele>
        <time>2014-08-03T10:04:49Z</time>
      </trkpt>
      <trkpt lat="47.25583" lon="-1.59505">
        <ele>41.1</ele>
        <time>2014-08-03T10:04:52Z</time>
      </trkpt>
      <trkpt lat="47.25574" lon="-1.59513">
        <ele>41.4</ele>
        <time>2014-08-03T10:04:55Z</time>
      </trkpt>
      <trkpt lat="47.25565" lon="-1.59521">
        <ele>41.9</ele>
        <time>2014-08-03T10:04:58Z</time>
      </trkpt>
      <trkpt lat="47.25557" lon="-1.59529">
        <ele>42.3</ele>
        <time>2014-08-03T10:05:01Z</time>
      </trkpt>
      <trkpt lat="47.25548" lon="-1.59537">
        <ele>42.9</ele>
        <time>2014-08-03T10:05:05Z</time>
      </trkpt>
      <trkpt lat="47.2554" lon="-1.59544">
        <ele>43.4</ele>
        <time>2014-08-03T10:05:08Z</time>
      </trkpt>
      <trkpt lat="47.25531" lon="-1.59551">
        <ele>44</ele>
        <time>2014-08-03T10:05:11Z</time>
      </trkpt>
      <trkpt lat="47.25523" lon="-1.59559">
        <ele>44.7</ele>
        <time>2014-08-03T10:05:14Z</time>
      </trkpt>
      <trkpt lat="47.25513" lon="-1.59568">
        <ele>45.6</ele>
        <time>2014-08-03T10:05:18Z</time>
      </trkpt>
      <trkpt lat="47.25505" lon="-1.59578">
        <ele>46.4</ele>
        <time>2014-08-03T10:05:21Z</time>
      </trkpt>
      <trkpt lat="47.25497" lon="-1.59586">
        <ele>46.9</ele>
        <time>2014-08-03T10:05:25Z</time>
      </trkpt>
      <trkpt lat="47.25488" lon="-1.59594">
        <ele>46.7</ele>
        <time>2014-08-03T10:05:28Z</time>
      </trkpt>
      <trkpt lat="47.25479" lon="-1.59602">
        <ele>46.5</ele>
        <time>2014-08-03T10:05:31Z</time>
      </trkpt>
      <trkpt lat="47.25472" lon="-1.59609">
        <ele>46.4</ele>
        <time>2014-08-03T10:05:34Z</time>
      </trkpt>
      <trkpt lat="47.25464" lon="-1.59617">
        <ele>46.3</ele>
        <time>2014-08-03T10:05:37Z</time>
      </trkpt>
      <trkpt lat="47.25454" lon="-1.59625">
        <ele>46.3</ele>
        <time>2014-08-03T10:05:40Z</time>
      </trkpt>
      <trkpt lat="47.25446" lon="-1.59632">
        <ele>46.4</ele>
        <time>2014-08-03T10:05:43Z</time>
      </trkpt>
      <trkpt lat="47.25436" lon="-1.59644">
        <ele>46.5</ele>
        <time>2014-08-03T10:05:47Z</time>
      </trkpt>
      <trkpt lat="47.25427" lon="-1.59652">
        <ele>46.7</ele>
        <time>2014-08-03T10:05:50Z</time>
      </trkpt>
      <trkpt lat="47.25418" lon="-1.59661">
        <ele>47</ele>
        <time>2014-08-03T10:05:54Z</time>
      </trkpt>
      <trkpt lat="47.2541" lon="-1.5967">
        <ele>46.6</ele>
        <time>2014-08-03T10:05:59Z</time>
      </trkpt>
      <trkpt lat="47.25405" lon="-1.59682">
        <ele>46.1</ele>
        <time>2014-08-03T10:07:39Z</time>
      </trkpt>
      <trkpt lat="47.25398" lon="-1.59695">
        <ele>45.6</ele>
        <time>2014-08-03T10:07:43Z</time>
      </trkpt>
      <trkpt lat="47.25389" lon="-1.59702">
        <ele>45</ele>
        <time>2014-08-03T10:07:46Z</time>
      </trkpt>
      <trkpt lat="47.25379" lon="-1.59707">
        <ele>44.5</ele>
        <time>2014-08-03T10:07:49Z</time>
      </trkpt>
      <trkpt lat="47.25369" lon="-1.5971">
        <ele>43.9</ele>
        <time>2014-08-03T10:07:53Z</time>
      </trkpt>
      <trkpt lat="47.25359" lon="-1.59715">
        <ele>43.3</ele>
        <time>2014-08-03T10:07:59Z</time>
      </trkpt>
      <trkpt lat="47.2535" lon="-1.59719">
        <ele>42.9</ele>
        <time>2014-08-03T10:08:02Z</time>
      </trkpt>
      <trkpt lat="47.25339" lon="-1.5972">
        <ele>42.3</ele>
        <time>2014-08-03T10:08:05Z</time>
      </trkpt>
      <trkpt lat="47.25326" lon="-1.59724">
        <ele>42</ele>
        <time>2014-08-03T10:08:08Z</time>
      </trkpt>
      <trkpt lat="47.25317" lon="-1.59729">
        <ele>42</ele>
        <time>2014-08-03T10:08:10Z</time>
      </trkpt>
      <trkpt lat="47.25308" lon="-1.59735">
        <ele>42</ele>
        <time>2014-08-03T10:08:12Z</time>
      </trkpt>
      <trkpt lat="47.25298" lon="-1.5974">
        <ele>42</ele>
        <time>2014-08-03T10:08:14Z</time>
      </trkpt>
      <trkpt lat="47.25289" lon="-1.59745">
        <ele>42</ele>
        <time>2014-08-03T10:08:16Z</time>
      </trkpt>
      <trkpt lat="47.2528" lon="-1.59751">
        <ele>42</ele>
        <time>2014-08-03T10:08:18Z</time>
      </trkpt>
      <trkpt lat="47.25271" lon="-1.59757">
        <ele>42</ele>
        <time>2014-08-03T10:08:20Z</time>
      </trkpt>
      <trkpt lat="47.2526" lon="-1.59764">
        <ele>42</ele>
        <time>2014-08-03T10:08:23Z</time>
      </trkpt>
      <trkpt lat="47.25251" lon="-1.59769">
        <ele>42</ele>
        <time>2014-08-03T10:08:25Z</time>
      </trkpt>
      <trkpt lat="47.25242" lon="-1.59774">
        <ele>42</ele>
        <time>2014-08-03T10:08:27Z</time>
      </trkpt>
      <trkpt lat="47.25233" lon="-1.59779">
        <ele>42</ele>
        <time>2014-08-03T10:08:29Z</time>
      </trkpt>
      <trkpt lat="47.25221" lon="-1.59787">
        <ele>42</ele>
        <time>2014-08-03T10:08:32Z</time>
      </trkpt>
      <trkpt lat="47.25212" lon="-1.59793">
        <ele>42</ele>
        <time>2014-08-03T10:08:34Z</time>
      </trkpt>
      <trkpt lat="47.25202" lon="-1.59798">
        <ele>42</ele>
        <time>2014-08-03T10:08:36Z</time>
      </trkpt>
      <trkpt lat="47.25192" lon="-1.59804">
        <ele>42</ele>
        <time>2014-08-03T10:08:38Z</time>
      </trkpt>
      <trkpt lat="47.25183" lon="-1.59809">
        <ele>42</ele>
        <time>2014-08-03T10:08:40Z</time>
      </trkpt>
      <trkpt lat="47.25173" lon="-1.59815">
        <ele>42</ele>
        <time>2014-08-03T10:08:42Z</time>
      </trkpt>
      <trkpt lat="47.25164" lon="-1.5982">
        <ele>42</ele>
        <time>2014-08-03T10:08:44Z</time>
      </trkpt>
      <trkpt lat="47.25155" lon="-1.59825">
        <ele>42</ele>
        <time>2014-08-03T10:08:46Z</time>
      </trkpt>
      <trkpt lat="47.25145" lon="-1.59831">
        <ele>42</ele>
        <time>2014-08-03T10:08:48Z</time>
      </trkpt>
      <trkpt lat="47.25136" lon="-1.59836">
        <ele>42</ele>
        <time>2014-08-03T10:08:50Z</time>
      </trkpt>
      <trkpt lat="47.25126" lon="-1.59842">
        <ele>42</ele>
        <time>2014-08-03T10:08:52Z</time>
      </trkpt>
      <trkpt lat="47.25117" lon="-1.59846">
        <ele>42</ele>
        <time>2014-08-03T10:08:54Z</time>
      </trkpt>
      <trkpt lat="47.25107" lon="-1.59851">
        <ele>42</ele>
        <time>2014-08-03T10:08:56Z</time>
      </trkpt>
      <trkpt lat="47.25097" lon="-1.59856">
        <ele>42</ele>
        <time>2014-08-03T10:08:58Z</time>
      </trkpt>
      <trkpt lat="47.25088" lon="-1.5986">
        <ele>42</ele>
        <time>2014-08-03T10:09:00Z</time>
      </trkpt>
      <trkpt lat="47.25078" lon="-1.59865">
        <ele>42</ele>
        <time>2014-08-03T10:09:02Z</time>
      </trkpt>
      <trkpt lat="47.25068" lon="-1.59869">
        <ele>42</ele>
        <time>2014-08-03T10:09:04Z</time>
      </trkpt>
      <trkpt lat="47.25058" lon="-1.59874">
        <ele>42</ele>
        <time>2014-08-03T10:09:06Z</time>
      </trkpt>
      <trkpt lat="47.2505" lon="-1.59879">
        <ele>42</ele>
        <time>2014-08-03T10:09:08Z</time>
      </trkpt>
      <trkpt lat="47.25042" lon="-1.59887">
        <ele>42</ele>
        <time>2014-08-03T10:09:10Z</time>
      </trkpt>
      <trkpt lat="47.25034" lon="-1.59898">
        <ele>42</ele>
        <time>2014-08-03T10:09:12Z</time>
      </trkpt>
      <trkpt lat="47.25025" lon="-1.59907">
        <ele>42</ele>
        <time>2014-08-03T10:09:14Z</time>
      </trkpt>
      <trkpt lat="47.25016" lon="-1.59909">
        <ele>42</ele>
        <time>2014-08-03T10:09:16Z</time>
      </trkpt>
      <trkpt lat="47.25007" lon="-1.59912">
        <ele>42</ele>
        <time>2014-08-03T10:09:18Z</time>
      </trkpt>
      <trkpt lat="47.24996" lon="-1.59923">
        <ele>42</ele>
        <time>2014-08-03T10:09:21Z</time>
      </trkpt>
      <trkpt lat="47.24989" lon="-1.59933">
        <ele>42</ele>
        <time>2014-08-03T10:09:23Z</time>
      </trkpt>
      <trkpt lat="47.24981" lon="-1.59944">
        <ele>42</ele>
        <time>2014-08-03T10:09:25Z</time>
      </trkpt>
      <trkpt lat="47.24972" lon="-1.59955">
        <ele>42</ele>
        <time>2014-08-03T10:09:27Z</time>
      </trkpt>
      <trkpt lat="47.24964" lon="-1.59965">
        <ele>42</ele>
        <time>2014-08-03T10:09:29Z</time>
      </trkpt>
      <trkpt lat="47.24956" lon="-1.59974">
        <ele>42</ele>
        <time>2014-08-03T10:09:31Z</time>
      </trkpt>
      <trkpt lat="47.24948" lon="-1.59984">
        <ele>42</ele>
        <time>2014-08-03T10:09:33Z</time>
      </trkpt>
      <trkpt lat="47.2494" lon="-1.59995">
        <ele>42</ele>
        <time>2014-08-03T10:09:35Z</time>
      </trkpt>
      <trkpt lat="47.24932" lon="-1.60005">
        <ele>42.5</ele>
        <time>2014-08-03T10:09:37Z</time>
      </trkpt>
      <trkpt lat="47.24925" lon="-1.60015">
        <ele>43.5</ele>
        <time>2014-08-03T10:09:39Z</time>
      </trkpt>
      <trkpt lat="47.24916" lon="-1.60025">
        <ele>44.5</ele>
        <time>2014-08-03T10:09:41Z</time>
      </trkpt>
      <trkpt lat="47.24909" lon="-1.60036">
        <ele>45.5</ele>
        <time>2014-08-03T10:09:43Z</time>
      </trkpt>
      <trkpt lat="47.24904" lon="-1.60048">
        <ele>46.6</ele>
        <time>2014-08-03T10:09:45Z</time>
      </trkpt>
      <trkpt lat="47.24897" lon="-1.60059">
        <ele>47.6</ele>
        <time>2014-08-03T10:09:47Z</time>
      </trkpt>
      <trkpt lat="47.24889" lon="-1.60068">
        <ele>48.6</ele>
        <time>2014-08-03T10:09:49Z</time>
      </trkpt>
      <trkpt lat="47.2488" lon="-1.60077">
        <ele>49.5</ele>
        <time>2014-08-03T10:09:51Z</time>
      </trkpt>
      <trkpt lat="47.24872" lon="-1.60087">
        <ele>50</ele>
        <time>2014-08-03T10:09:53Z</time>
      </trkpt>
      <trkpt lat="47.24865" lon="-1.60097">
        <ele>50</ele>
        <time>2014-08-03T10:09:55Z</time>
      </trkpt>
      <trkpt lat="47.24857" lon="-1.60107">
        <ele>50</ele>
        <time>2014-08-03T10:09:57Z</time>
      </trkpt>
      <trkpt lat="47.2485" lon="-1.60117">
        <ele>50</ele>
        <time>2014-08-03T10:09:59Z</time>
      </trkpt>
      <trkpt lat="47.24842" lon="-1.60128">
        <ele>50</ele>
        <time>2014-08-03T10:10:01Z</time>
      </trkpt>
      <trkpt lat="47.24835" lon="-1.60138">
        <ele>50</ele>
        <time>2014-08-03T10:10:03Z</time>
      </trkpt>
      <trkpt lat="47.24828" lon="-1.60149">
        <ele>50</ele>
        <time>2014-08-03T10:10:05Z</time>
      </trkpt>
      <trkpt lat="47.2482" lon="-1.6016">
        <ele>50</ele>
        <time>2014-08-03T10:10:07Z</time>
      </trkpt>
      <trkpt lat="47.24812" lon="-1.60171">
        <ele>50</ele>
        <time>2014-08-03T10:10:09Z</time>
      </trkpt>
      <trkpt lat="47.24804" lon="-1.60182">
        <ele>50</ele>
        <time>2014-08-03T10:10:11Z</time>
      </trkpt>
      <trkpt lat="47.24796" lon="-1.60192">
        <ele>50</ele>
        <time>2014-08-03T10:10:13Z</time>
      </trkpt>
      <trkpt lat="47.24789" lon="-1.60202">
        <ele>50</ele>
        <time>2014-08-03T10:10:15Z</time>
      </trkpt>
      <trkpt lat="47.24781" lon="-1.60213">
        <ele>50</ele>
        <time>2014-08-03T10:10:17Z</time>
      </trkpt>
      <trkpt lat="47.24775" lon="-1.60224">
        <ele>50</ele>
        <time>2014-08-03T10:10:19Z</time>
      </trkpt>
      <trkpt lat="47.24768" lon="-1.60235">
        <ele>50</ele>
        <time>2014-08-03T10:10:21Z</time>
      </trkpt>
      <trkpt lat="47.24761" lon="-1.60248">
        <ele>50</ele>
        <time>2014-08-03T10:10:23Z</time>
      </trkpt>
      <trkpt lat="47.24754" lon="-1.60261">
        <ele>50</ele>
        <time>2014-08-03T10:10:25Z</time>
      </trkpt>
      <trkpt lat="47.2475" lon="-1.60273">
        <ele>50</ele>
        <time>2014-08-03T10:10:27Z</time>
      </trkpt>
      <trkpt lat="47.24742" lon="-1.60286">
        <ele>50.3</ele>
        <time>2014-08-03T10:10:30Z</time>
      </trkpt>
      <trkpt lat="47.24735" lon="-1.60296">
        <ele>50.5</ele>
        <time>2014-08-03T10:10:32Z</time>
      </trkpt>
      <trkpt lat="47.24727" lon="-1.60306">
        <ele>50.8</ele>
        <time>2014-08-03T10:10:34Z</time>
      </trkpt>
      <trkpt lat="47.2472" lon="-1.60315">
        <ele>51.1</ele>
        <time>2014-08-03T10:10:36Z</time>
      </trkpt>
      <trkpt lat="47.24712" lon="-1.60325">
        <ele>51.4</ele>
        <time>2014-08-03T10:10:38Z</time>
      </trkpt>
      <trkpt lat="47.24705" lon="-1.60335">
        <ele>51.6</ele>
        <time>2014-08-03T10:10:40Z</time>
      </trkpt>
      <trkpt lat="47.24698" lon="-1.60345">
        <ele>51.9</ele>
        <time>2014-08-03T10:10:42Z</time>
      </trkpt>
      <trkpt lat="47.24691" lon="-1.60354">
        <ele>52.1</ele>
        <time>2014-08-03T10:10:44Z</time>
      </trkpt>
      <trkpt lat="47.24685" lon="-1.60364">
        <ele>52.4</ele>
        <time>2014-08-03T10:10:46Z</time>
      </trkpt>
      <trkpt lat="47.24678" lon="-1.60375">
        <ele>52.6</ele>
        <time>2014-08-03T10:10:48Z</time>
      </trkpt>
      <trkpt lat="47.24674" lon="-1.60387">
        <ele>52.7</ele>
        <time>2014-08-03T10:10:50Z</time>
      </trkpt>
      <trkpt lat="47.24669" lon="-1.60399">
        <ele>52.9</ele>
        <time>2014-08-03T10:10:52Z</time>
      </trkpt>
      <trkpt lat="47.24665" lon="-1.60411">
        <ele>53</ele>
        <time>2014-08-03T10:10:54Z</time>
      </trkpt>
      <trkpt lat="47.24661" lon="-1.60425">
        <ele>53</ele>
        <time>2014-08-03T10:10:56Z</time>
      </trkpt>
      <trkpt lat="47.24656" lon="-1.60442">
        <ele>53</ele>
        <time>2014-08-03T10:10:59Z</time>
      </trkpt>
      <trkpt lat="47.24644" lon="-1.60453">
        <ele>53</ele>
        <time>2014-08-03T10:11:02Z</time>
      </trkpt>
      <trkpt lat="47.24634" lon="-1.60459">
        <ele>53</ele>
        <time>2014-08-03T10:11:04Z</time>
      </trkpt>
      <trkpt lat="47.24625" lon="-1.60468">
        <ele>53</ele>
        <time>2014-08-03T10:11:06Z</time>
      </trkpt>
      <trkpt lat="47.24616" lon="-1.60478">
        <ele>53</ele>
        <time>2014-08-03T10:11:08Z</time>
      </trkpt>
      <trkpt lat="47.24607" lon="-1.60488">
        <ele>53</ele>
        <time>2014-08-03T10:11:10Z</time>
      </trkpt>
      <trkpt lat="47.24599" lon="-1.60497">
        <ele>53</ele>
        <time>2014-08-03T10:11:12Z</time>
      </trkpt>
      <trkpt lat="47.24589" lon="-1.60508">
        <ele>53</ele>
        <time>2014-08-03T10:11:14Z</time>
      </trkpt>
      <trkpt lat="47.24578" lon="-1.60518">
        <ele>53</ele>
        <time>2014-08-03T10:11:16Z</time>
      </trkpt>
      <trkpt lat="47.2457" lon="-1.60527">
        <ele>53</ele>
        <time>2014-08-03T10:11:18Z</time>
      </trkpt>
      <trkpt lat="47.24562" lon="-1.60536">
        <ele>53</ele>
        <time>2014-08-03T10:11:20Z</time>
      </trkpt>
      <trkpt lat="47.24555" lon="-1.60545">
        <ele>53</ele>
        <time>2014-08-03T10:11:22Z</time>
      </trkpt>
      <trkpt lat="47.24547" lon="-1.60553">
        <ele>53</ele>
        <time>2014-08-03T10:11:24Z</time>
      </trkpt>
      <trkpt lat="47.24538" lon="-1.60562">
        <ele>53</ele>
        <time>2014-08-03T10:11:26Z</time>
      </trkpt>
      <trkpt lat="47.24529" lon="-1.6057">
        <ele>53</ele>
        <time>2014-08-03T10:11:28Z</time>
      </trkpt>
      <trkpt lat="47.24521" lon="-1.60578">
        <ele>53</ele>
        <time>2014-08-03T10:11:30Z</time>
      </trkpt>
      <trkpt lat="47.24513" lon="-1.60587">
        <ele>53</ele>
        <time>2014-08-03T10:11:32Z</time>
      </trkpt>
      <trkpt lat="47.24505" lon="-1.60602">
        <ele>53</ele>
        <time>2014-08-03T10:11:35Z</time>
      </trkpt>
      <trkpt lat="47.24498" lon="-1.60611">
        <ele>53</ele>
        <time>2014-08-03T10:11:37Z</time>
      </trkpt>
      <trkpt lat="47.24485" lon="-1.60613">
        <ele>53</ele>
        <time>2014-08-03T10:11:39Z</time>
      </trkpt>
      <trkpt lat="47.24474" lon="-1.60613">
        <ele>53</ele>
        <time>2014-08-03T10:11:41Z</time>
      </trkpt>
      <trkpt lat="47.24465" lon="-1.60615">
        <ele>53</ele>
        <time>2014-08-03T10:11:43Z</time>
      </trkpt>
      <trkpt lat="47.24456" lon="-1.60621">
        <ele>53</ele>
        <time>2014-08-03T10:11:45Z</time>
      </trkpt>
      <trkpt lat="47.24446" lon="-1.60627">
        <ele>53</ele>
        <time>2014-08-03T10:11:47Z</time>
      </trkpt>
      <trkpt lat="47.24437" lon="-1.60635">
        <ele>53</ele>
        <time>2014-08-03T10:11:49Z</time>
      </trkpt>
      <trkpt lat="47.24429" lon="-1.60642">
        <ele>53</ele>
        <time>2014-08-03T10:11:51Z</time>
      </trkpt>
      <trkpt lat="47.24418" lon="-1.60654">
        <ele>53</ele>
        <time>2014-08-03T10:11:54Z</time>
      </trkpt>
      <trkpt lat="47.2441" lon="-1.60661">
        <ele>53</ele>
        <time>2014-08-03T10:11:56Z</time>
      </trkpt>
      <trkpt lat="47.24402" lon="-1.60669">
        <ele>53.1</ele>
        <time>2014-08-03T10:11:58Z</time>
      </trkpt>
      <trkpt lat="47.24394" lon="-1.60676">
        <ele>53.4</ele>
        <time>2014-08-03T10:12:00Z</time>
      </trkpt>
      <trkpt lat="47.24384" lon="-1.60685">
        <ele>53.7</ele>
        <time>2014-08-03T10:12:02Z</time>
      </trkpt>
      <trkpt lat="47.24374" lon="-1.60692">
        <ele>53.9</ele>
        <time>2014-08-03T10:12:04Z</time>
      </trkpt>
      <trkpt lat="47.24364" lon="-1.60701">
        <ele>54.3</ele>
        <time>2014-08-03T10:12:06Z</time>
      </trkpt>
      <trkpt lat="47.24353" lon="-1.6071">
        <ele>54.6</ele>
        <time>2014-08-03T10:12:08Z</time>
      </trkpt>
      <trkpt lat="47.24342" lon="-1.60718">
        <ele>54.9</ele>
        <time>2014-08-03T10:12:10Z</time>
      </trkpt>
      <trkpt lat="47.24333" lon="-1.60725">
        <ele>55.1</ele>
        <time>2014-08-03T10:12:12Z</time>
      </trkpt>
      <trkpt lat="47.24322" lon="-1.60734">
        <ele>55.4</ele>
        <time>2014-08-03T10:12:14Z</time>
      </trkpt>
      <trkpt lat="47.24312" lon="-1.60742">
        <ele>55.7</ele>
        <time>2014-08-03T10:12:16Z</time>
      </trkpt>
      <trkpt lat="47.24302" lon="-1.60751">
        <ele>56</ele>
        <time>2014-08-03T10:12:18Z</time>
      </trkpt>
      <trkpt lat="47.24294" lon="-1.6076">
        <ele>56</ele>
        <time>2014-08-03T10:12:20Z</time>
      </trkpt>
      <trkpt lat="47.24283" lon="-1.6077">
        <ele>56</ele>
        <time>2014-08-03T10:12:22Z</time>
      </trkpt>
      <trkpt lat="47.24274" lon="-1.60779">
        <ele>56</ele>
        <time>2014-08-03T10:12:24Z</time>
      </trkpt>
      <trkpt lat="47.24265" lon="-1.60788">
        <ele>56</ele>
        <time>2014-08-03T10:12:26Z</time>
      </trkpt>
      <trkpt lat="47.24256" lon="-1.60794">
        <ele>56</ele>
        <time>2014-08-03T10:12:28Z</time>
      </trkpt>
      <trkpt lat="47.24248" lon="-1.60802">
        <ele>56</ele>
        <time>2014-08-03T10:12:30Z</time>
      </trkpt>
      <trkpt lat="47.24239" lon="-1.60811">
        <ele>56</ele>
        <time>2014-08-03T10:12:32Z</time>
      </trkpt>
      <trkpt lat="47.2423" lon="-1.60821">
        <ele>56</ele>
        <time>2014-08-03T10:12:34Z</time>
      </trkpt>
      <trkpt lat="47.24222" lon="-1.60829">
        <ele>56</ele>
        <time>2014-08-03T10:12:36Z</time>
      </trkpt>
      <trkpt lat="47.24213" lon="-1.60836">
        <ele>56</ele>
        <time>2014-08-03T10:12:38Z</time>
      </trkpt>
      <trkpt lat="47.24203" lon="-1.6084">
        <ele>56</ele>
        <time>2014-08-03T10:12:40Z</time>
      </trkpt>
      <trkpt lat="47.24193" lon="-1.60843">
        <ele>56</ele>
        <time>2014-08-03T10:12:42Z</time>
      </trkpt>
      <trkpt lat="47.24183" lon="-1.60847">
        <ele>56</ele>
        <time>2014-08-03T10:12:44Z</time>
      </trkpt>
      <trkpt lat="47.24173" lon="-1.60852">
        <ele>56</ele>
        <time>2014-08-03T10:12:46Z</time>
      </trkpt>
      <trkpt lat="47.24163" lon="-1.60854">
        <ele>56</ele>
        <time>2014-08-03T10:12:48Z</time>
      </trkpt>
      <trkpt lat="47.24154" lon="-1.60851">
        <ele>56</ele>
        <time>2014-08-03T10:12:50Z</time>
      </trkpt>
      <trkpt lat="47.24144" lon="-1.60847">
        <ele>56</ele>
        <time>2014-08-03T10:12:52Z</time>
      </trkpt>
      <trkpt lat="47.24133" lon="-1.60841">
        <ele>56</ele>
        <time>2014-08-03T10:12:55Z</time>
      </trkpt>
      <trkpt lat="47.24129" lon="-1.60827">
        <ele>56</ele>
        <time>2014-08-03T10:12:58Z</time>
      </trkpt>
      <trkpt lat="47.24125" lon="-1.60811">
        <ele>56</ele>
        <time>2014-08-03T10:13:02Z</time>
      </trkpt>
      <trkpt lat="47.24121" lon="-1.60795">
        <ele>56</ele>
        <time>2014-08-03T10:13:05Z</time>
      </trkpt>
      <trkpt lat="47.24115" lon="-1.60785">
        <ele>56</ele>
        <time>2014-08-03T10:13:24Z</time>
      </trkpt>
      <trkpt lat="47.24106" lon="-1.6078">
        <ele>56</ele>
        <time>2014-08-03T10:13:30Z</time>
      </trkpt>
      <trkpt lat="47.24111" lon="-1.60792">
        <ele>56</ele>
        <time>2014-08-03T10:14:03Z</time>
      </trkpt>
      <trkpt lat="47.24117" lon="-1.60805">
        <ele>56</ele>
        <time>2014-08-03T10:17:07Z</time>
      </trkpt>
      <trkpt lat="47.24123" lon="-1.60815">
        <ele>56</ele>
        <time>2014-08-03T10:18:18Z</time>
      </trkpt>
      <trkpt lat="47.2412" lon="-1.60798">
        <ele>56</ele>
        <time>2014-08-03T10:19:18Z</time>
      </trkpt>
      <trkpt lat="47.24121" lon="-1.60784">
        <ele>56</ele>
        <time>2014-08-03T10:22:21Z</time>
      </trkpt>
      <trkpt lat="47.24116" lon="-1.60772">
        <ele>56</ele>
        <time>2014-08-03T10:22:27Z</time>
      </trkpt>
      <trkpt lat="47.24106" lon="-1.60772">
        <ele>56</ele>
        <time>2014-08-03T10:22:36Z</time>
      </trkpt>
      <trkpt lat="47.24105" lon="-1.60789">
        <ele>56</ele>
        <time>2014-08-03T10:22:48Z</time>
      </trkpt>
      <trkpt lat="47.24107" lon="-1.60804">
        <ele>56</ele>
        <time>2014-08-03T10:22:53Z</time>
      </trkpt>
      <trkpt lat="47.24103" lon="-1.60792">
        <ele>56</ele>
        <time>2014-08-03T10:23:01Z</time>
      </trkpt>
      <trkpt lat="47.24098" lon="-1.60779">
        <ele>56</ele>
        <time>2014-08-03T10:23:06Z</time>
      </trkpt>
      <trkpt lat="47.24088" lon="-1.60775">
        <ele>56</ele>
        <time>2014-08-03T10:23:09Z</time>
      </trkpt>
      <trkpt lat="47.24076" lon="-1.60782">
        <ele>54.4</ele>
        <time>2014-08-03T10:23:12Z</time>
      </trkpt>
      <trkpt lat="47.24068" lon="-1.60789">
        <ele>52.6</ele>
        <time>2014-08-03T10:23:14Z</time>
      </trkpt>
      <trkpt lat="47.24059" lon="-1.60795">
        <ele>50.7</ele>
        <time>2014-08-03T10:23:16Z</time>
      </trkpt>
      <trkpt lat="47.24049" lon="-1.60802">
        <ele>48.6</ele>
        <time>2014-08-03T10:23:19Z</time>
      </trkpt>
      <trkpt lat="47.2404" lon="-1.60808">
        <ele>46.7</ele>
        <time>2014-08-03T10:23:24Z</time>
      </trkpt>
      <trkpt lat="47.24036" lon="-1.6082">
        <ele>45.7</ele>
        <time>2014-08-03T10:23:29Z</time>
      </trkpt>
      <trkpt lat="47.24039" lon="-1.60837">
        <ele>46.5</ele>
        <time>2014-08-03T10:23:33Z</time>
      </trkpt>
      <trkpt lat="47.24042" lon="-1.60851">
        <ele>47.1</ele>
        <time>2014-08-03T10:23:36Z</time>
      </trkpt>
      <trkpt lat="47.24044" lon="-1.60866">
        <ele>47.5</ele>
        <time>2014-08-03T10:23:40Z</time>
      </trkpt>
      <trkpt lat="47.24037" lon="-1.60875">
        <ele>46</ele>
        <time>2014-08-03T10:23:44Z</time>
      </trkpt>
      <trkpt lat="47.24026" lon="-1.60883">
        <ele>43.6</ele>
        <time>2014-08-03T10:23:48Z</time>
      </trkpt>
      <trkpt lat="47.24014" lon="-1.60884">
        <ele>41.1</ele>
        <time>2014-08-03T10:23:51Z</time>
      </trkpt>
      <trkpt lat="47.24004" lon="-1.60888">
        <ele>38.8</ele>
        <time>2014-08-03T10:23:54Z</time>
      </trkpt>
      <trkpt lat="47.23993" lon="-1.60895">
        <ele>38</ele>
        <time>2014-08-03T10:23:57Z</time>
      </trkpt>
      <trkpt lat="47.23985" lon="-1.60901">
        <ele>38</ele>
        <time>2014-08-03T10:24:00Z</time>
      </trkpt>
      <trkpt lat="47.23974" lon="-1.60905">
        <ele>38</ele>
        <time>2014-08-03T10:24:03Z</time>
      </trkpt>
      <trkpt lat="47.23962" lon="-1.60908">
        <ele>38</ele>
        <time>2014-08-03T10:24:06Z</time>
      </trkpt>
      <trkpt lat="47.23951" lon="-1.60913">
        <ele>38</ele>
        <time>2014-08-03T10:24:09Z</time>
      </trkpt>
      <trkpt lat="47.2394" lon="-1.60917">
        <ele>38</ele>
        <time>2014-08-03T10:24:12Z</time>
      </trkpt>
      <trkpt lat="47.23927" lon="-1.6092">
        <ele>38</ele>
        <time>2014-08-03T10:24:15Z</time>
      </trkpt>
      <trkpt lat="47.23917" lon="-1.60922">
        <ele>38</ele>
        <time>2014-08-03T10:24:17Z</time>
      </trkpt>
      <trkpt lat="47.23908" lon="-1.60925">
        <ele>38</ele>
        <time>2014-08-03T10:24:19Z</time>
      </trkpt>
      <trkpt lat="47.23899" lon="-1.6093">
        <ele>38</ele>
        <time>2014-08-03T10:24:21Z</time>
      </trkpt>
      <trkpt lat="47.2389" lon="-1.60935">
        <ele>38</ele>
        <time>2014-08-03T10:24:23Z</time>
      </trkpt>
      <trkpt lat="47.2388" lon="-1.60939">
        <ele>38</ele>
        <time>2014-08-03T10:24:25Z</time>
      </trkpt>
      <trkpt lat="47.2387" lon="-1.60943">
        <ele>38</ele>
        <time>2014-08-03T10:24:27Z</time>
      </trkpt>
      <trkpt lat="47.2386" lon="-1.60948">
        <ele>38</ele>
        <time>2014-08-03T10:24:29Z</time>
      </trkpt>
      <trkpt lat="47.23851" lon="-1.60954">
        <ele>38</ele>
        <time>2014-08-03T10:24:31Z</time>
      </trkpt>
      <trkpt lat="47.23841" lon="-1.6096">
        <ele>38</ele>
        <time>2014-08-03T10:24:33Z</time>
      </trkpt>
      <trkpt lat="47.23832" lon="-1.60967">
        <ele>38</ele>
        <time>2014-08-03T10:24:35Z</time>
      </trkpt>
      <trkpt lat="47.23822" lon="-1.60974">
        <ele>38</ele>
        <time>2014-08-03T10:24:37Z</time>
      </trkpt>
      <trkpt lat="47.23813" lon="-1.60982">
        <ele>38</ele>
        <time>2014-08-03T10:24:39Z</time>
      </trkpt>
      <trkpt lat="47.23802" lon="-1.60993">
        <ele>38</ele>
        <time>2014-08-03T10:24:41Z</time>
      </trkpt>
      <trkpt lat="47.2379" lon="-1.61003">
        <ele>38</ele>
        <time>2014-08-03T10:24:43Z</time>
      </trkpt>
      <trkpt lat="47.23777" lon="-1.61015">
        <ele>38</ele>
        <time>2014-08-03T10:24:45Z</time>
      </trkpt>
      <trkpt lat="47.23764" lon="-1.61025">
        <ele>38</ele>
        <time>2014-08-03T10:24:47Z</time>
      </trkpt>
      <trkpt lat="47.2375" lon="-1.61034">
        <ele>38</ele>
        <time>2014-08-03T10:24:49Z</time>
      </trkpt>
      <trkpt lat="47.23737" lon="-1.61045">
        <ele>38</ele>
        <time>2014-08-03T10:24:51Z</time>
      </trkpt>
      <trkpt lat="47.23725" lon="-1.61053">
        <ele>38</ele>
        <time>2014-08-03T10:24:53Z</time>
      </trkpt>
      <trkpt lat="47.23714" lon="-1.61061">
        <ele>38</ele>
        <time>2014-08-03T10:24:56Z</time>
      </trkpt>
      <trkpt lat="47.23703" lon="-1.61068">
        <ele>38</ele>
        <time>2014-08-03T10:24:59Z</time>
      </trkpt>
      <trkpt lat="47.23694" lon="-1.61073">
        <ele>38</ele>
        <time>2014-08-03T10:25:03Z</time>
      </trkpt>
      <trkpt lat="47.23688" lon="-1.6106">
        <ele>38</ele>
        <time>2014-08-03T10:25:09Z</time>
      </trkpt>
      <trkpt lat="47.23678" lon="-1.61058">
        <ele>38</ele>
        <time>2014-08-03T10:25:14Z</time>
      </trkpt>
      <trkpt lat="47.23667" lon="-1.6106">
        <ele>38</ele>
        <time>2014-08-03T10:25:18Z</time>
      </trkpt>
      <trkpt lat="47.23657" lon="-1.61058">
        <ele>38</ele>
        <time>2014-08-03T10:25:21Z</time>
      </trkpt>
      <trkpt lat="47.23655" lon="-1.61044">
        <ele>38</ele>
        <time>2014-08-03T10:25:25Z</time>
      </trkpt>
      <trkpt lat="47.2366" lon="-1.61026">
        <ele>38</ele>
        <time>2014-08-03T10:25:28Z</time>
      </trkpt>
      <trkpt lat="47.23663" lon="-1.61011">
        <ele>38</ele>
        <time>2014-08-03T10:25:31Z</time>
      </trkpt>
      <trkpt lat="47.2366" lon="-1.60996">
        <ele>38</ele>
        <time>2014-08-03T10:25:34Z</time>
      </trkpt>
      <trkpt lat="47.23657" lon="-1.60982">
        <ele>38</ele>
        <time>2014-08-03T10:25:36Z</time>
      </trkpt>
      <trkpt lat="47.23658" lon="-1.60964">
        <ele>38</ele>
        <time>2014-08-03T10:25:38Z</time>
      </trkpt>
      <trkpt lat="47.2366" lon="-1.60943">
        <ele>38</ele>
        <time>2014-08-03T10:25:40Z</time>
      </trkpt>
      <trkpt lat="47.23659" lon="-1.60928">
        <ele>38</ele>
        <time>2014-08-03T10:25:42Z</time>
      </trkpt>
      <trkpt lat="47.23652" lon="-1.60918">
        <ele>38</ele>
        <time>2014-08-03T10:25:44Z</time>
      </trkpt>
      <trkpt lat="47.23644" lon="-1.60903">
        <ele>38</ele>
        <time>2014-08-03T10:25:47Z</time>
      </trkpt>
      <trkpt lat="47.23653" lon="-1.60891">
        <ele>38</ele>
        <time>2014-08-03T10:25:51Z</time>
      </trkpt>
      <trkpt lat="47.23662" lon="-1.60878">
        <ele>38</ele>
        <time>2014-08-03T10:25:54Z</time>
      </trkpt>
      <trkpt lat="47.23669" lon="-1.60861">
        <ele>38</ele>
        <time>2014-08-03T10:25:57Z</time>
      </trkpt>
      <trkpt lat="47.23673" lon="-1.60848">
        <ele>38</ele>
        <time>2014-08-03T10:25:59Z</time>
      </trkpt>
      <trkpt lat="47.23676" lon="-1.60831">
        <ele>38</ele>
        <time>2014-08-03T10:26:02Z</time>
      </trkpt>
      <trkpt lat="47.23679" lon="-1.60813">
        <ele>38</ele>
        <time>2014-08-03T10:26:05Z</time>
      </trkpt>
      <trkpt lat="47.23683" lon="-1.60801">
        <ele>38</ele>
        <time>2014-08-03T10:26:07Z</time>
      </trkpt>
      <trkpt lat="47.2369" lon="-1.60786">
        <ele>38</ele>
        <time>2014-08-03T10:26:10Z</time>
      </trkpt>
      <trkpt lat="47.23695" lon="-1.6077">
        <ele>38</ele>
        <time>2014-08-03T10:26:13Z</time>
      </trkpt>
      <trkpt lat="47.23696" lon="-1.60756">
        <ele>38</ele>
        <time>2014-08-03T10:26:15Z</time>
      </trkpt>
      <trkpt lat="47.23691" lon="-1.60742">
        <ele>38.7</ele>
        <time>2014-08-03T10:26:18Z</time>
      </trkpt>
      <trkpt lat="47.23683" lon="-1.60732">
        <ele>39.7</ele>
        <time>2014-08-03T10:26:20Z</time>
      </trkpt>
      <trkpt lat="47.23676" lon="-1.60722">
        <ele>40.6</ele>
        <time>2014-08-03T10:26:22Z</time>
      </trkpt>
      <trkpt lat="47.23665" lon="-1.60713">
        <ele>41.5</ele>
        <time>2014-08-03T10:26:25Z</time>
      </trkpt>
      <trkpt lat="47.23656" lon="-1.60706">
        <ele>42.1</ele>
        <time>2014-08-03T10:26:28Z</time>
      </trkpt>
      <trkpt lat="47.23645" lon="-1.60696">
        <ele>43.1</ele>
        <time>2014-08-03T10:26:31Z</time>
      </trkpt>
      <trkpt lat="47.23636" lon="-1.60688">
        <ele>44</ele>
        <time>2014-08-03T10:26:33Z</time>
      </trkpt>
      <trkpt lat="47.23628" lon="-1.6068">
        <ele>44.6</ele>
        <time>2014-08-03T10:26:35Z</time>
      </trkpt>
      <trkpt lat="47.23619" lon="-1.60672">
        <ele>45.5</ele>
        <time>2014-08-03T10:26:37Z</time>
      </trkpt>
      <trkpt lat="47.2361" lon="-1.60663">
        <ele>46</ele>
        <time>2014-08-03T10:26:40Z</time>
      </trkpt>
      <trkpt lat="47.23603" lon="-1.6065">
        <ele>46</ele>
        <time>2014-08-03T10:26:43Z</time>
      </trkpt>
      <trkpt lat="47.23597" lon="-1.60634">
        <ele>46</ele>
        <time>2014-08-03T10:26:46Z</time>
      </trkpt>
      <trkpt lat="47.23592" lon="-1.6062">
        <ele>46</ele>
        <time>2014-08-03T10:26:48Z</time>
      </trkpt>
      <trkpt lat="47.23584" lon="-1.60605">
        <ele>46</ele>
        <time>2014-08-03T10:26:51Z</time>
      </trkpt>
      <trkpt lat="47.23576" lon="-1.60596">
        <ele>46</ele>
        <time>2014-08-03T10:26:54Z</time>
      </trkpt>
      <trkpt lat="47.23565" lon="-1.60589">
        <ele>46</ele>
        <time>2014-08-03T10:26:57Z</time>
      </trkpt>
      <trkpt lat="47.23553" lon="-1.60582">
        <ele>46</ele>
        <time>2014-08-03T10:27:00Z</time>
      </trkpt>
      <trkpt lat="47.23543" lon="-1.60574">
        <ele>46</ele>
        <time>2014-08-03T10:27:02Z</time>
      </trkpt>
      <trkpt lat="47.23534" lon="-1.60567">
        <ele>46</ele>
        <time>2014-08-03T10:27:04Z</time>
      </trkpt>
      <trkpt lat="47.23526" lon="-1.60556">
        <ele>46</ele>
        <time>2014-08-03T10:27:07Z</time>
      </trkpt>
      <trkpt lat="47.23519" lon="-1.60542">
        <ele>46</ele>
        <time>2014-08-03T10:27:10Z</time>
      </trkpt>
      <trkpt lat="47.23514" lon="-1.60527">
        <ele>46</ele>
        <time>2014-08-03T10:27:12Z</time>
      </trkpt>
      <trkpt lat="47.23512" lon="-1.60513">
        <ele>46</ele>
        <time>2014-08-03T10:27:14Z</time>
      </trkpt>
      <trkpt lat="47.2351" lon="-1.60498">
        <ele>46</ele>
        <time>2014-08-03T10:27:16Z</time>
      </trkpt>
      <trkpt lat="47.23508" lon="-1.60481">
        <ele>46</ele>
        <time>2014-08-03T10:27:18Z</time>
      </trkpt>
      <trkpt lat="47.23508" lon="-1.60467">
        <ele>46</ele>
        <time>2014-08-03T10:27:20Z</time>
      </trkpt>
      <trkpt lat="47.23507" lon="-1.6045">
        <ele>46</ele>
        <time>2014-08-03T10:27:23Z</time>
      </trkpt>
      <trkpt lat="47.23506" lon="-1.60436">
        <ele>46</ele>
        <time>2014-08-03T10:27:25Z</time>
      </trkpt>
      <trkpt lat="47.23503" lon="-1.60423">
        <ele>46</ele>
        <time>2014-08-03T10:27:27Z</time>
      </trkpt>
      <trkpt lat="47.235" lon="-1.60406">
        <ele>46</ele>
        <time>2014-08-03T10:27:30Z</time>
      </trkpt>
      <trkpt lat="47.23497" lon="-1.60391">
        <ele>46</ele>
        <time>2014-08-03T10:27:33Z</time>
      </trkpt>
      <trkpt lat="47.23492" lon="-1.60375">
        <ele>46</ele>
        <time>2014-08-03T10:27:36Z</time>
      </trkpt>
      <trkpt lat="47.23486" lon="-1.60359">
        <ele>46</ele>
        <time>2014-08-03T10:27:39Z</time>
      </trkpt>
      <trkpt lat="47.23481" lon="-1.60347">
        <ele>46</ele>
        <time>2014-08-03T10:27:41Z</time>
      </trkpt>
      <trkpt lat="47.23472" lon="-1.60334">
        <ele>46</ele>
        <time>2014-08-03T10:27:44Z</time>
      </trkpt>
      <trkpt lat="47.23463" lon="-1.60332">
        <ele>46</ele>
        <time>2014-08-03T10:27:47Z</time>
      </trkpt>
      <trkpt lat="47.23454" lon="-1.60338">
        <ele>46</ele>
        <time>2014-08-03T10:27:50Z</time>
      </trkpt>
      <trkpt lat="47.23452" lon="-1.60354">
        <ele>46</ele>
        <time>2014-08-03T10:27:53Z</time>
      </trkpt>
      <trkpt lat="47.23456" lon="-1.6037">
        <ele>46</ele>
        <time>2014-08-03T10:27:57Z</time>
      </trkpt>
      <trkpt lat="47.2346" lon="-1.60382">
        <ele>46</ele>
        <time>2014-08-03T10:28:00Z</time>
      </trkpt>
      <trkpt lat="47.23464" lon="-1.60396">
        <ele>46</ele>
        <time>2014-08-03T10:28:04Z</time>
      </trkpt>
      <trkpt lat="47.23466" lon="-1.60409">
        <ele>46</ele>
        <time>2014-08-03T10:28:08Z</time>
      </trkpt>
      <trkpt lat="47.23461" lon="-1.60424">
        <ele>46</ele>
        <time>2014-08-03T10:28:14Z</time>
      </trkpt>
      <trkpt lat="47.23455" lon="-1.60435">
        <ele>46</ele>
        <time>2014-08-03T10:28:19Z</time>
      </trkpt>
      <trkpt lat="47.23447" lon="-1.60444">
        <ele>46</ele>
        <time>2014-08-03T10:28:25Z</time>
      </trkpt>
      <trkpt lat="47.23438" lon="-1.60452">
        <ele>46</ele>
        <time>2014-08-03T10:28:32Z</time>
      </trkpt>
      <trkpt lat="47.23429" lon="-1.6046">
        <ele>46</ele>
        <time>2014-08-03T10:28:39Z</time>
      </trkpt>
      <trkpt lat="47.2342" lon="-1.60462">
        <ele>46</ele>
        <time>2014-08-03T10:28:45Z</time>
      </trkpt>
      <trkpt lat="47.23412" lon="-1.60452">
        <ele>45</ele>
        <time>2014-08-03T10:28:50Z</time>
      </trkpt>
      <trkpt lat="47.23404" lon="-1.60442">
        <ele>43.1</ele>
        <time>2014-08-03T10:28:55Z</time>
      </trkpt>
      <trkpt lat="47.23396" lon="-1.60436">
        <ele>41.2</ele>
        <time>2014-08-03T10:29:00Z</time>
      </trkpt>
      <trkpt lat="47.2339" lon="-1.60423">
        <ele>40.1</ele>
        <time>2014-08-03T10:29:05Z</time>
      </trkpt>
      <trkpt lat="47.23385" lon="-1.60411">
        <ele>38.7</ele>
        <time>2014-08-03T10:29:09Z</time>
      </trkpt>
      <trkpt lat="47.23379" lon="-1.604">
        <ele>37.4</ele>
        <time>2014-08-03T10:29:13Z</time>
      </trkpt>
      <trkpt lat="47.23373" lon="-1.60389">
        <ele>36.1</ele>
        <time>2014-08-03T10:29:17Z</time>
      </trkpt>
      <trkpt lat="47.23365" lon="-1.60378">
        <ele>34.1</ele>
        <time>2014-08-03T10:29:22Z</time>
      </trkpt>
      <trkpt lat="47.23354" lon="-1.60373">
        <ele>31.8</ele>
        <time>2014-08-03T10:29:27Z</time>
      </trkpt>
      <trkpt lat="47.23344" lon="-1.60373">
        <ele>29.5</ele>
        <time>2014-08-03T10:29:31Z</time>
      </trkpt>
      <trkpt lat="47.23355" lon="-1.60373">
        <ele>31.9</ele>
        <time>2014-08-03T10:29:53Z</time>
      </trkpt>
      <trkpt lat="47.23345" lon="-1.60374">
        <ele>29.6</ele>
        <time>2014-08-03T10:30:14Z</time>
      </trkpt>
      <trkpt lat="47.23336" lon="-1.60376">
        <ele>27.5</ele>
        <time>2014-08-03T10:30:18Z</time>
      </trkpt>
      <trkpt lat="47.23325" lon="-1.60381">
        <ele>27</ele>
        <time>2014-08-03T10:30:23Z</time>
      </trkpt>
      <trkpt lat="47.23316" lon="-1.60386">
        <ele>27</ele>
        <time>2014-08-03T10:30:27Z</time>
      </trkpt>
      <trkpt lat="47.23307" lon="-1.60395">
        <ele>27</ele>
        <time>2014-08-03T10:30:31Z</time>
      </trkpt>
      <trkpt lat="47.23299" lon="-1.60403">
        <ele>27</ele>
        <time>2014-08-03T10:30:35Z</time>
      </trkpt>
      <trkpt lat="47.23291" lon="-1.60412">
        <ele>27</ele>
        <time>2014-08-03T10:30:39Z</time>
      </trkpt>
      <trkpt lat="47.23283" lon="-1.60414">
        <ele>27</ele>
        <time>2014-08-03T10:30:44Z</time>
      </trkpt>
      <trkpt lat="47.23275" lon="-1.60404">
        <ele>27</ele>
        <time>2014-08-03T10:30:48Z</time>
      </trkpt>
      <trkpt lat="47.23266" lon="-1.60392">
        <ele>27</ele>
        <time>2014-08-03T10:30:52Z</time>
      </trkpt>
      <trkpt lat="47.23259" lon="-1.60384">
        <ele>27</ele>
        <time>2014-08-03T10:30:55Z</time>
      </trkpt>
      <trkpt lat="47.23247" lon="-1.60381">
        <ele>27</ele>
        <time>2014-08-03T10:31:00Z</time>
      </trkpt>
      <trkpt lat="47.2324" lon="-1.6039">
        <ele>27</ele>
        <time>2014-08-03T10:31:05Z</time>
      </trkpt>
      <trkpt lat="47.23234" lon="-1.60402">
        <ele>27</ele>
        <time>2014-08-03T10:31:11Z</time>
      </trkpt>
      <trkpt lat="47.23225" lon="-1.60415">
        <ele>27</ele>
        <time>2014-08-03T10:31:15Z</time>
      </trkpt>
      <trkpt lat="47.23218" lon="-1.60424">
        <ele>27</ele>
        <time>2014-08-03T10:31:18Z</time>
      </trkpt>
      <trkpt lat="47.23212" lon="-1.60439">
        <ele>27</ele>
        <time>2014-08-03T10:31:22Z</time>
      </trkpt>
      <trkpt lat="47.23206" lon="-1.60451">
        <ele>27</ele>
        <time>2014-08-03T10:31:26Z</time>
      </trkpt>
      <trkpt lat="47.23199" lon="-1.60462">
        <ele>27</ele>
        <time>2014-08-03T10:31:30Z</time>
      </trkpt>
      <trkpt lat="47.23191" lon="-1.60475">
        <ele>27</ele>
        <time>2014-08-03T10:31:34Z</time>
      </trkpt>
      <trkpt lat="47.23184" lon="-1.60487">
        <ele>27</ele>
        <time>2014-08-03T10:31:38Z</time>
      </trkpt>
      <trkpt lat="47.23177" lon="-1.60496">
        <ele>27</ele>
        <time>2014-08-03T10:31:42Z</time>
      </trkpt>
      <trkpt lat="47.23169" lon="-1.60504">
        <ele>27</ele>
        <time>2014-08-03T10:31:46Z</time>
      </trkpt>
      <trkpt lat="47.23162" lon="-1.60517">
        <ele>27</ele>
        <time>2014-08-03T10:31:50Z</time>
      </trkpt>
      <trkpt lat="47.23155" lon="-1.60529">
        <ele>27</ele>
        <time>2014-08-03T10:31:54Z</time>
      </trkpt>
      <trkpt lat="47.23145" lon="-1.60537">
        <ele>27</ele>
        <time>2014-08-03T10:31:58Z</time>
      </trkpt>
      <trkpt lat="47.23135" lon="-1.60537">
        <ele>27</ele>
        <time>2014-08-03T10:32:02Z</time>
      </trkpt>
      <trkpt lat="47.23126" lon="-1.60528">
        <ele>27</ele>
        <time>2014-08-03T10:32:06Z</time>
      </trkpt>
      <trkpt lat="47.2312" lon="-1.60517">
        <ele>27</ele>
        <time>2014-08-03T10:32:09Z</time>
      </trkpt>
      <trkpt lat="47.23112" lon="-1.60504">
        <ele>27</ele>
        <time>2014-08-03T10:32:12Z</time>
      </trkpt>
      <trkpt lat="47.23105" lon="-1.60494">
        <ele>27</ele>
        <time>2014-08-03T10:32:15Z</time>
      </trkpt>
      <trkpt lat="47.23098" lon="-1.60483">
        <ele>27</ele>
        <time>2014-08-03T10:32:19Z</time>
      </trkpt>
      <trkpt lat="47.2309" lon="-1.60475">
        <ele>27</ele>
        <time>2014-08-03T10:32:23Z</time>
      </trkpt>
      <trkpt lat="47.23081" lon="-1.60482">
        <ele>27</ele>
        <time>2014-08-03T10:32:27Z</time>
      </trkpt>
      <trkpt lat="47.23074" lon="-1.60494">
        <ele>27</ele>
        <time>2014-08-03T10:32:30Z</time>
      </trkpt>
      <trkpt lat="47.23068" lon="-1.60504">
        <ele>27</ele>
        <time>2014-08-03T10:32:33Z</time>
      </trkpt>
      <trkpt lat="47.23059" lon="-1.60517">
        <ele>27</ele>
        <time>2014-08-03T10:32:37Z</time>
      </trkpt>
      <trkpt lat="47.2305" lon="-1.60528">
        <ele>27</ele>
        <time>2014-08-03T10:32:40Z</time>
      </trkpt>
      <trkpt lat="47.23043" lon="-1.60535">
        <ele>27</ele>
        <time>2014-08-03T10:32:43Z</time>
      </trkpt>
      <trkpt lat="47.23035" lon="-1.60543">
        <ele>27</ele>
        <time>2014-08-03T10:32:46Z</time>
      </trkpt>
      <trkpt lat="47.23028" lon="-1.60552">
        <ele>27</ele>
        <time>2014-08-03T10:32:49Z</time>
      </trkpt>
      <trkpt lat="47.2302" lon="-1.60562">
        <ele>27</ele>
        <time>2014-08-03T10:32:52Z</time>
      </trkpt>
      <trkpt lat="47.2301" lon="-1.60571">
        <ele>27</ele>
        <time>2014-08-03T10:32:56Z</time>
      </trkpt>
      <trkpt lat="47.23003" lon="-1.6058">
        <ele>27</ele>
        <time>2014-08-03T10:32:59Z</time>
      </trkpt>
      <trkpt lat="47.22995" lon="-1.60589">
        <ele>27</ele>
        <time>2014-08-03T10:33:03Z</time>
      </trkpt>
      <trkpt lat="47.22986" lon="-1.60597">
        <ele>27</ele>
        <time>2014-08-03T10:33:07Z</time>
      </trkpt>
      <trkpt lat="47.22978" lon="-1.60606">
        <ele>27</ele>
        <time>2014-08-03T10:33:11Z</time>
      </trkpt>
      <trkpt lat="47.22981" lon="-1.60623">
        <ele>27</ele>
        <time>2014-08-03T10:33:15Z</time>
      </trkpt>
      <trkpt lat="47.22987" lon="-1.60636">
        <ele>27</ele>
        <time>2014-08-03T10:33:19Z</time>
      </trkpt>
      <trkpt lat="47.22993" lon="-1.60646">
        <ele>27</ele>
        <time>2014-08-03T10:33:22Z</time>
      </trkpt>
      <trkpt lat="47.22999" lon="-1.60658">
        <ele>27</ele>
        <time>2014-08-03T10:33:25Z</time>
      </trkpt>
      <trkpt lat="47.23004" lon="-1.60671">
        <ele>27.6</ele>
        <time>2014-08-03T10:33:28Z</time>
      </trkpt>
      <trkpt lat="47.23008" lon="-1.60684">
        <ele>29</ele>
        <time>2014-08-03T10:33:31Z</time>
      </trkpt>
      <trkpt lat="47.23009" lon="-1.60699">
        <ele>30.9</ele>
        <time>2014-08-03T10:33:35Z</time>
      </trkpt>
      <trkpt lat="47.23011" lon="-1.60715">
        <ele>32.8</ele>
        <time>2014-08-03T10:33:40Z</time>
      </trkpt>
      <trkpt lat="47.23015" lon="-1.60726">
        <ele>34.2</ele>
        <time>2014-08-03T10:33:43Z</time>
      </trkpt>
      <trkpt lat="47.2302" lon="-1.60741">
        <ele>36.1</ele>
        <time>2014-08-03T10:33:47Z</time>
      </trkpt>
      <trkpt lat="47.23025" lon="-1.60754">
        <ele>37</ele>
        <time>2014-08-03T10:33:51Z</time>
      </trkpt>
      <trkpt lat="47.23032" lon="-1.60764">
        <ele>37</ele>
        <time>2014-08-03T10:33:55Z</time>
      </trkpt>
      <trkpt lat="47.23042" lon="-1.60765">
        <ele>37</ele>
        <time>2014-08-03T10:34:00Z</time>
      </trkpt>
      <trkpt lat="47.23052" lon="-1.60761">
        <ele>37</ele>
        <time>2014-08-03T10:34:04Z</time>
      </trkpt>
      <trkpt lat="47.23061" lon="-1.60756">
        <ele>37</ele>
        <time>2014-08-03T10:34:08Z</time>
      </trkpt>
      <trkpt lat="47.23071" lon="-1.60749">
        <ele>36.8</ele>
        <time>2014-08-03T10:34:12Z</time>
      </trkpt>
      <trkpt lat="47.23079" lon="-1.60736">
        <ele>35.4</ele>
        <time>2014-08-03T10:34:16Z</time>
      </trkpt>
      <trkpt lat="47.23079" lon="-1.60719">
        <ele>33.4</ele>
        <time>2014-08-03T10:34:20Z</time>
      </trkpt>
      <trkpt lat="47.23076" lon="-1.60703">
        <ele>31.5</ele>
        <time>2014-08-03T10:34:23Z</time>
      </trkpt>
      <trkpt lat="47.23073" lon="-1.6069">
        <ele>29.8</ele>
        <time>2014-08-03T10:34:25Z</time>
      </trkpt>
      <trkpt lat="47.23074" lon="-1.60673">
        <ele>27.8</ele>
        <time>2014-08-03T10:34:28Z</time>
      </trkpt>
      <trkpt lat="47.23071" lon="-1.60659">
        <ele>27</ele>
        <time>2014-08-03T10:34:38Z</time>
      </trkpt>
      <trkpt lat="47.23079" lon="-1.60652">
        <ele>27</ele>
        <time>2014-08-03T10:35:06Z</time>
      </trkpt>
      <trkpt lat="47.23077" lon="-1.60649">
        <ele>27</ele>
        <time>2014-08-03T10:35:55Z</time>
      </trkpt>
    </trkseg>
  </trk>
</gpx>